[[{"header":{"parameterUnit":"m.s-1","parameterCategory":1,"la1":30.6,"la2":29.2853,"lo1":-89.7004,"lo2":-87.6739,"dx":0.0162,"dy":0.0183,"nx":112,"ny":82,"refTime":"2022-11-24T18:00:00:Z","depth":0,"parameterNumber":2,"parameterNumberName":"U-component_of_WINDS"},"data":[0.0,0.0,0.0,0.0,0.0,0.0,0.0,0.0,0.0,0.0,0.0,0.0,0.0,0.0,0.0,0.0,0.0,0.0,0.0,0.0,0.0,0.0,0.0,0.0,0.0,0.0,0.0,0.0,0.0,0.0,0.0,0.0,0.0,0.0,0.0,0.0,0.0,0.0,0.0,0.0,0.0,0.0,0.0,0.0,0.0,0.0,0.0,0.0,0.0,0.0,0.0,0.0,0.0,0.0,0.0,0.0,0.0,0.0,0.0,0.0,0.0,0.0,0.0,0.0,0.0,0.0,0.0,0.0,0.0,0.0,0.0,0.0,0.0,0.0,0.0,0.0,0.0,0.0,0.0,0.0,0.0,0.0,0.0,0.0,0.0,0.0,0.0,0.0,0.0,0.0,3.1172,3.4734,4.0139,4.2947,4.1589,4.1258,3.8046,3.0834,0.0,0.0,0.0,0.0,0.0,0.0,0.0,0.0,0.0,0.0,0.0,0.0,0.0,0.0,0.0,0.0,0.0,0.0,0.0,0.0,0.0,0.0,0.0,0.0,0.0,0.0,0.0,0.0,0.0,0.0,0.0,0.0,0.0,0.0,0.0,0.0,0.0,0.0,0.0,0.0,0.0,0.0,0.0,0.0,0.0,0.0,0.0,0.0,0.0,0.0,0.0,0.0,0.0,0.0,0.0,0.0,0.0,0.0,0.0,0.0,0.0,0.0,0.0,0.0,0.0,0.0,0.0,0.0,0.0,0.0,0.0,0.0,0.0,0.0,0.0,0.0,0.0,0.0,0.0,0.0,0.0,0.0,0.0,0.0,0.0,0.0,0.0,0.0,0.0,0.0,0.0,0.0,0.0,0.0,0.0,0.0,0.0,0.0,0.0,0.0,0.0,0.0,0.0,0.0,3.2666,4.0198,4.2488,4.3387,4.3149,4.1882,3.8285,3.1623,0.0,0.0,0.0,0.0,0.0,0.0,0.0,0.0,0.0,0.0,0.0,0.0,0.0,0.0,0.0,0.0,0.0,0.0,0.0,0.0,0.0,0.0,0.0,0.0,0.0,0.0,0.0,0.0,0.0,0.0,0.0,0.0,0.0,0.0,0.0,0.0,0.0,0.0,0.0,0.0,0.0,0.0,0.0,0.0,0.0,0.0,0.0,0.0,0.0,0.0,0.0,0.0,0.0,0.0,0.0,0.0,0.0,0.0,0.0,0.0,0.0,0.0,0.0,0.0,0.0,0.0,0.0,0.0,0.0,0.0,0.0,0.0,0.0,0.0,0.0,0.0,0.0,0.0,0.0,0.0,0.0,0.0,0.0,0.0,0.0,0.0,0.0,0.0,0.0,0.0,0.0,0.0,0.0,0.0,0.0,0.0,0.0,0.0,0.0,0.0,0.0,0.0,0.0,3.0724,3.4613,4.157,4.302,4.3314,4.2892,4.1772,3.8322,3.1806,2.9648,0.0,0.0,0.0,0.0,0.0,0.0,0.0,0.0,0.0,0.0,0.0,0.0,0.0,0.0,0.0,0.0,0.0,0.0,0.0,0.0,0.0,0.0,0.0,0.0,0.0,0.0,0.0,0.0,0.0,0.0,0.0,0.0,0.0,0.0,0.0,0.0,0.0,0.0,0.0,0.0,0.0,0.0,0.0,0.0,0.0,0.0,0.0,0.0,0.0,0.0,0.0,0.0,0.0,0.0,0.0,0.0,0.0,0.0,0.0,0.0,0.0,0.0,0.0,0.0,0.0,0.0,0.0,0.0,0.0,0.0,0.0,0.0,0.0,0.0,0.0,0.0,0.0,0.0,0.0,0.0,0.0,0.0,0.0,0.0,0.0,0.0,0.0,0.0,0.0,0.0,0.0,0.0,0.0,0.0,0.0,0.0,0.0,0.0,0.0,0.0,0.0,0.0,3.4321,3.7331,4.2084,4.313,4.324,4.2635,4.1864,3.8542,3.1806,2.9831,0.0,0.0,0.0,0.0,0.0,0.0,0.0,0.0,0.0,0.0,0.0,0.0,0.0,0.0,0.0,0.0,0.0,0.0,0.0,0.0,0.0,0.0,0.0,0.0,0.0,0.0,0.0,0.0,0.0,0.0,0.0,0.0,0.0,0.0,0.0,0.0,0.0,0.0,0.0,0.0,0.0,0.0,0.0,0.0,0.0,0.0,0.0,0.0,0.0,0.0,0.0,0.0,0.0,0.0,0.0,0.0,0.0,0.0,0.0,0.0,0.0,0.0,0.0,0.0,0.0,0.0,0.0,0.0,0.0,0.0,0.0,0.0,0.0,0.0,0.0,0.0,0.0,0.0,0.0,0.0,0.0,0.0,0.0,0.0,0.0,0.0,0.0,0.0,0.0,0.0,0.0,0.0,0.0,0.0,0.0,0.0,0.0,0.0,0.0,0.0,0.0,0.0,3.7276,4.1313,4.3204,4.3461,4.3461,4.3406,4.2671,3.9129,3.1843,3.0341,0.0,0.0,0.0,0.0,0.0,0.0,0.0,0.0,0.0,0.0,0.0,0.0,0.0,0.0,0.0,0.0,0.0,0.0,0.0,0.0,0.0,0.0,0.0,0.0,0.0,0.0,0.0,0.0,0.0,0.0,0.0,0.0,0.0,0.0,0.0,0.0,0.0,0.0,0.0,0.0,0.0,0.0,0.0,0.0,0.0,0.0,0.0,0.0,0.0,0.0,0.0,0.0,0.0,0.0,0.0,0.0,0.0,0.0,0.0,0.0,0.0,0.0,0.0,0.0,0.0,0.0,0.0,0.0,0.0,0.0,0.0,0.0,0.0,0.0,0.0,0.0,0.0,0.0,0.0,0.0,0.0,0.0,0.0,0.0,0.0,0.0,0.0,0.0,0.0,0.0,0.0,0.0,0.0,0.0,0.0,0.0,0.0,0.0,0.0,0.0,0.0,0.0,3.6578,4.0047,0.0,4.3497,4.3497,4.3497,4.2763,3.9405,3.2577,0.0,0.0,0.0,0.0,0.0,0.0,0.0,0.0,0.0,0.0,0.0,0.0,0.0,0.0,0.0,0.0,0.0,0.0,0.0,0.0,0.0,0.0,0.0,0.0,0.0,0.0,0.0,0.0,0.0,0.0,0.0,0.0,0.0,0.0,0.0,0.0,0.0,0.0,0.0,0.0,0.0,0.0,0.0,0.0,0.0,0.0,0.0,0.0,0.0,0.0,0.0,0.0,0.0,0.0,0.0,0.0,0.0,0.0,0.0,0.0,0.0,0.0,0.0,0.0,0.0,0.0,0.0,0.0,0.0,0.0,0.0,0.0,0.0,0.0,0.0,0.0,0.0,0.0,0.0,0.0,0.0,0.0,0.0,0.0,0.0,0.0,0.0,0.0,0.0,0.0,0.0,0.0,0.0,0.0,0.0,0.0,0.0,0.0,0.0,0.0,0.0,0.0,3.3201,3.6853,4.0267,0.0,4.3644,4.3589,4.3864,4.3387,4.0084,3.3054,0.0,0.0,0.0,0.0,0.0,0.0,0.0,0.0,0.0,0.0,0.0,0.0,0.0,0.0,0.0,0.0,0.0,0.0,0.0,0.0,0.0,0.0,0.0,0.0,0.0,0.0,0.0,0.0,0.0,0.0,0.0,0.0,0.0,0.0,0.0,0.0,0.0,0.0,0.0,0.0,0.0,0.0,0.0,0.0,0.0,0.0,0.0,0.0,0.0,0.0,0.0,0.0,0.0,0.0,0.0,0.0,0.0,0.0,0.0,0.0,0.0,0.0,0.0,0.0,0.0,0.0,0.0,0.0,0.0,0.0,0.0,0.0,0.0,0.0,0.0,0.0,0.0,0.0,0.0,0.0,0.0,0.0,0.0,0.0,0.0,0.0,0.0,0.0,0.0,0.0,0.0,0.0,0.0,0.0,0.0,0.0,0.0,0.0,0.0,0.0,0.0,0.0,3.3495,3.8781,4.2928,4.4544,4.3975,4.3828,4.4635,4.4709,4.124,0.0,0.0,0.0,0.0,0.0,0.0,0.0,0.0,0.0,0.0,0.0,0.0,0.0,0.0,0.0,0.0,0.0,0.0,0.0,0.0,0.0,0.0,0.0,0.0,0.0,0.0,0.0,0.0,0.0,0.0,0.0,0.0,0.0,0.0,0.0,0.0,0.0,0.0,0.0,0.0,0.0,0.0,0.0,0.0,0.0,0.0,0.0,0.0,0.0,0.0,0.0,0.0,0.0,0.0,0.0,0.0,0.0,0.0,0.0,0.0,0.0,0.0,0.0,0.0,0.0,0.0,0.0,0.0,0.0,0.0,0.0,0.0,0.0,0.0,0.0,0.0,0.0,0.0,0.0,0.0,0.0,0.0,0.0,0.0,0.0,0.0,0.0,0.0,0.0,0.0,0.0,0.0,0.0,0.0,0.0,0.0,0.0,0.0,0.0,0.0,0.0,0.0,0.0,3.3495,3.8781,4.2928,4.4544,4.3975,4.3828,4.4635,4.4176,4.0873,3.3899,0.0,0.0,0.0,0.0,0.0,0.0,0.0,0.0,0.0,0.0,0.0,0.0,0.0,0.0,0.0,0.0,0.0,0.0,0.0,0.0,0.0,0.0,0.0,0.0,0.0,0.0,0.0,0.0,0.0,0.0,0.0,0.0,0.0,0.0,0.0,0.0,0.0,0.0,0.0,0.0,0.0,0.0,0.0,0.0,0.0,0.0,0.0,0.0,0.0,0.0,0.0,0.0,0.0,0.0,0.0,0.0,0.0,0.0,0.0,0.0,0.0,0.0,0.0,0.0,0.0,0.0,0.0,0.0,0.0,0.0,0.0,0.0,0.0,0.0,0.0,0.0,0.0,0.0,0.0,0.0,0.0,0.0,0.0,0.0,0.0,0.0,0.0,0.0,0.0,0.0,0.0,0.0,0.0,0.0,0.0,0.0,0.0,0.0,0.0,0.0,0.0,0.0,3.3568,3.935,4.3754,4.5039,4.4452,4.4305,4.5112,4.4727,4.2103,3.6578,0.0,0.0,0.0,0.0,0.0,0.0,0.0,0.0,0.0,0.0,0.0,0.0,0.0,0.0,0.0,0.0,0.0,0.0,0.0,0.0,0.0,0.0,0.0,0.0,0.0,0.0,0.0,0.0,0.0,0.0,0.0,0.0,0.0,0.0,0.0,0.0,0.0,0.0,0.0,0.0,0.0,0.0,0.0,0.0,0.0,0.0,0.0,0.0,0.0,0.0,0.0,0.0,0.0,0.0,0.0,0.0,0.0,0.0,0.0,0.0,0.0,0.0,0.0,0.0,0.0,0.0,0.0,0.0,0.0,0.0,0.0,0.0,0.0,0.0,0.0,0.0,0.0,0.0,0.0,0.0,0.0,0.0,0.0,0.0,0.0,0.0,0.0,0.0,0.0,0.0,0.0,0.0,0.0,0.0,0.0,0.0,0.0,0.0,0.0,0.0,0.0,0.0,3.3807,4.0304,4.5094,4.581,4.5259,4.5149,4.5938,4.5865,4.4103,4.0139,0.0,0.0,0.0,0.0,0.0,0.0,0.0,0.0,0.0,0.0,0.0,0.0,0.0,0.0,0.0,0.0,0.0,0.0,0.0,0.0,0.0,0.0,0.0,0.0,0.0,0.0,0.0,0.0,0.0,0.0,0.0,0.0,0.0,0.0,0.0,0.0,0.0,0.0,0.0,0.0,0.0,0.0,0.0,0.0,0.0,0.0,0.0,0.0,0.0,0.0,0.0,0.0,0.0,0.0,0.0,0.0,0.0,0.0,0.0,0.0,3.3603,0.0,0.0,0.0,0.0,0.0,0.0,0.0,0.0,0.0,0.0,0.0,0.0,0.0,0.0,0.0,0.0,0.0,0.0,0.0,0.0,0.0,0.0,0.0,0.0,0.0,0.0,0.0,0.0,0.0,0.0,0.0,0.0,0.0,0.0,0.0,0.0,0.0,0.0,0.0,0.0,0.0,3.4651,4.113,4.5718,4.5883,4.5755,4.5975,4.6801,4.57,4.3516,4.0102,3.883,0.0,0.0,0.0,0.0,0.0,0.0,0.0,0.0,0.0,0.0,0.0,0.0,0.0,0.0,0.0,0.0,0.0,0.0,0.0,0.0,0.0,0.0,0.0,0.0,0.0,0.0,0.0,0.0,0.0,0.0,0.0,0.0,0.0,0.0,0.0,0.0,0.0,0.0,0.0,0.0,0.0,0.0,0.0,0.0,0.0,0.0,0.0,0.0,0.0,0.0,0.0,0.0,0.0,0.0,0.0,0.0,0.0,0.0,0.0,0.0,3.418,0.0,0.0,0.0,0.0,0.0,0.0,0.0,0.0,0.0,0.0,0.0,0.0,0.0,0.0,0.0,0.0,0.0,0.0,0.0,0.0,0.0,0.0,0.0,0.0,0.0,0.0,0.0,0.0,0.0,0.0,0.0,0.0,0.0,0.0,0.0,0.0,0.0,0.0,0.0,0.0,3.4935,4.1387,4.5902,4.5902,4.625,4.6654,4.7039,4.6342,4.4984,4.291,4.1162,0.0,0.0,0.0,0.0,0.0,0.0,0.0,0.0,0.0,0.0,0.0,0.0,0.0,0.0,0.0,0.0,0.0,0.0,0.0,0.0,0.0,0.0,0.0,0.0,0.0,0.0,0.0,0.0,0.0,0.0,0.0,0.0,0.0,0.0,0.0,0.0,0.0,0.0,0.0,0.0,0.0,0.0,0.0,0.0,0.0,0.0,0.0,0.0,0.0,0.0,0.0,0.0,0.0,3.8931,3.9546,3.9565,3.97,4.0912,4.2701,3.9219,3.8854,4.0335,0.0,0.0,0.0,0.0,0.0,0.0,0.0,0.0,0.0,0.0,0.0,0.0,0.0,0.0,0.0,0.0,0.0,0.0,0.0,0.0,0.0,0.0,0.0,0.0,0.0,3.8579,3.9423,0.0,0.0,0.0,0.0,0.0,0.0,0.0,0.0,0.0,0.0,0.0,0.0,3.5981,4.1956,4.6159,4.6305,4.7058,4.7553,4.7553,4.7407,4.6985,4.6159,4.3479,4.1302,0.0,0.0,0.0,0.0,0.0,0.0,0.0,0.0,0.0,0.0,0.0,0.0,0.0,0.0,0.0,0.0,0.0,0.0,0.0,0.0,0.0,0.0,0.0,0.0,0.0,0.0,0.0,0.0,0.0,0.0,0.0,0.0,3.0621,2.9987,0.0,0.0,0.0,0.0,0.0,0.0,0.0,0.0,0.0,0.0,0.0,0.0,0.0,0.0,3.6546,3.9604,4.1143,4.1162,4.4259,4.574,4.5759,4.6451,4.6951,4.724,4.6682,0.0,4.1508,3.9969,0.0,0.0,0.0,0.0,0.0,0.0,0.0,0.0,0.0,0.0,0.0,0.0,0.0,0.0,0.0,0.0,0.0,0.0,0.0,0.0,0.0,0.0,4.3479,4.4268,4.5259,4.5883,0.0,3.9184,3.3495,3.2918,0.0,0.0,0.0,0.0,0.0,0.0,0.0,0.0,3.9955,4.4213,4.7223,4.7921,4.8746,4.926,4.926,4.8581,4.781,4.7003,4.5902,4.3956,4.0991,3.9473,0.0,0.0,0.0,0.0,0.0,0.0,0.0,0.0,0.0,0.0,0.0,0.0,0.0,0.0,0.0,0.0,0.0,0.0,0.0,0.0,0.0,0.0,0.0,0.0,0.0,0.0,0.0,0.0,0.0,2.9006,3.0275,3.0379,3.0179,2.9467,0.0,0.0,0.0,0.0,0.0,0.0,0.0,0.0,0.0,3.895,3.9854,4.0989,4.2431,4.4374,4.5336,4.5355,4.6855,4.7567,4.7586,4.7952,4.8105,4.8105,4.8105,4.7048,4.5163,4.2893,4.0523,3.8054,0.0,0.0,0.0,0.0,0.0,3.4138,3.6434,3.7459,0.0,0.0,0.0,0.0,0.0,0.0,0.0,0.0,0.0,0.0,0.0,0.0,0.0,4.6067,4.6507,4.6434,4.6434,4.3718,4.0616,0.0,3.645,3.4174,3.0907,0.0,0.0,0.0,0.0,4.0029,4.0983,4.5021,4.7921,4.8269,4.9481,5.027,5.027,4.9921,4.9014,4.7361,4.7379,4.6019,4.2897,4.0824,3.7969,0.0,0.0,0.0,0.0,0.0,0.0,0.0,0.0,0.0,0.0,0.0,0.0,0.0,0.0,0.0,0.0,0.0,0.0,0.0,0.0,0.0,0.0,0.0,0.0,0.0,0.0,0.0,0.0,3.041,3.1929,3.1737,3.3026,3.2949,0.0,0.0,0.0,0.0,0.0,0.0,3.8257,3.8334,3.9912,4.3297,4.4047,4.5297,4.7201,4.8029,4.8432,4.8432,4.8875,4.9067,4.9086,4.9298,4.9394,4.9394,4.9394,4.9394,4.9144,4.5778,4.3881,4.2871,4.0306,3.8671,3.7822,3.8395,3.8421,3.8544,4.0794,4.1709,4.1622,4.0115,0.0,3.8395,3.6762,0.0,0.0,0.0,0.0,3.867,4.2286,4.3369,4.4195,4.6801,4.7131,4.6838,4.6838,4.6819,4.5975,0.0,4.0873,3.8322,3.5055,0.0,0.0,0.0,0.0,4.247,4.2892,4.6085,4.8545,4.9187,5.0362,5.1114,5.1114,5.1114,5.0309,4.8381,4.8412,4.7522,4.5339,4.2829,4.0762,3.9138,0.0,0.0,0.0,0.0,0.0,0.0,0.0,0.0,0.0,0.0,0.0,0.0,0.0,0.0,0.0,0.0,0.0,0.0,0.0,0.0,0.0,0.0,0.0,0.0,0.0,0.0,0.0,0.0,0.0,3.5622,3.8084,0.0,0.0,0.0,0.0,3.768,3.7796,3.9315,4.2604,4.2777,4.4316,4.7682,4.7836,4.7913,4.8048,4.8894,4.9336,4.9356,5.0952,5.1722,5.1741,5.2568,5.2953,5.2953,5.2953,5.2953,5.2683,4.926,4.6413,4.4184,4.403,4.2473,4.0578,4.2658,4.3431,4.3703,4.5525,4.6661,4.6745,4.3262,4.0579,3.9239,4.2139,4.0873,0.0,0.0,4.1956,4.258,4.5076,4.6305,4.7113,4.8031,4.8838,4.9389,4.9389,4.759,4.614,0.0,4.7297,4.6673,4.3442,0.0,4.2855,4.1901,4.2066,4.3663,4.7462,4.8159,4.9205,5.1555,5.1885,5.194,5.194,5.194,5.1573,5.0688,4.9166,4.8342,4.8377,4.6758,4.3957,3.9911,3.8955,0.0,0.0,0.0,0.0,0.0,0.0,0.0,0.0,0.0,0.0,0.0,0.0,0.0,0.0,0.0,0.0,0.0,0.0,0.0,0.0,0.0,0.0,0.0,0.0,0.0,0.0,0.0,0.0,3.6622,3.9277,0.0,3.8565,4.0142,4.1508,4.2027,4.3566,4.5028,4.6259,4.6317,4.7124,4.8875,4.9471,5.0029,5.0548,5.1414,5.1856,5.1856,5.2452,5.2741,5.276,5.3068,5.3203,5.3203,5.3203,5.3203,5.3106,5.1875,5.0529,4.9144,4.8625,4.7703,4.6753,4.7264,4.7324,4.7218,4.7525,4.7849,4.7868,4.6599,4.559,4.5094,4.625,4.5792,4.5057,4.592,4.6562,4.7186,4.8049,4.8875,4.9554,4.9848,5.0141,5.0362,5.0362,4.9682,4.915,4.9444,4.8012,4.6397,4.5241,4.6801,4.7205,4.4287,4.6085,4.8086,4.8967,5.0013,5.1022,5.1903,5.2454,5.2766,5.2766,5.2766,5.2254,5.1017,5.0373,4.944,4.8161,4.7085,4.5593,4.36,4.291,3.9279,0.0,0.0,0.0,0.0,0.0,0.0,0.0,0.0,0.0,0.0,0.0,0.0,0.0,0.0,0.0,0.0,0.0,0.0,0.0,0.0,0.0,0.0,0.0,0.0,0.0,0.0,4.0104,3.7853,4.1085,4.2854,4.1143,4.3297,4.5009,4.5547,4.7413,4.8663,4.8952,4.924,4.9779,5.0644,5.1241,5.1798,5.2337,5.3203,5.3645,5.3645,5.3914,5.4049,5.4049,5.4049,5.4049,5.4049,5.4049,5.4049,5.4049,5.4049,5.3703,5.3068,5.1972,5.1369,5.1117,5.0837,5.0525,5.0128,4.9508,4.9249,4.915,4.915,4.915,4.915,4.915,4.915,4.915,4.915,4.9554,4.9994,4.9994,5.06,5.1206,5.1206,5.1408,5.161,5.161,5.161,5.161,5.161,4.9407,4.7553,4.7553,4.937,4.9609,4.6049,4.8545,5.0398,4.9242,5.0802,5.2087,5.238,5.2894,5.3206,5.3206,5.2454,5.1822,5.1411,5.0353,4.9285,4.8214,4.6707,4.5459,4.4509,4.3554,4.051,3.5284,0.0,0.0,0.0,0.0,0.0,0.0,0.0,0.0,0.0,0.0,0.0,0.0,0.0,0.0,0.0,0.0,0.0,0.0,0.0,0.0,0.0,0.0,0.0,3.7238,3.9815,4.1373,3.9758,4.3932,4.6278,4.4624,4.6721,4.8202,4.8221,4.9029,4.9894,5.0721,5.1529,5.2337,5.3222,5.3241,5.326,5.328,5.4126,5.453,5.4549,5.5318,5.5703,5.5703,5.5703,5.5703,5.5703,5.5703,5.5703,5.5703,5.5703,5.5703,5.553,5.3914,5.328,5.3259,5.3259,5.2962,5.2501,5.1634,5.1138,5.0875,5.0875,5.0875,5.0875,5.0875,5.0875,5.0875,5.0875,5.0875,5.0875,5.0875,5.1444,5.2032,5.2068,5.2674,5.3243,5.328,5.328,5.328,5.328,5.2032,5.093,5.0875,5.0912,5.0105,4.77,4.9407,0.0,4.871,5.0582,5.2344,5.3023,5.3096,5.3096,5.3054,5.093,5.03,5.195,4.9136,4.7885,4.8931,4.6118,4.3889,4.2405,4.0916,3.9783,3.9022,0.0,0.0,0.0,0.0,0.0,0.0,0.0,0.0,0.0,0.0,0.0,0.0,0.0,0.0,0.0,0.0,0.0,0.0,0.0,0.0,0.0,0.0,4.1431,4.1354,4.3739,4.5547,4.5663,4.6913,4.7836,4.7971,4.9202,5.0221,5.0818,5.1664,5.226,5.251,5.2722,5.3241,5.4126,5.4145,5.4414,5.5011,5.5241,5.5376,5.5376,5.5588,5.5703,5.5703,5.5703,5.5703,5.5703,5.5703,5.5703,5.5703,5.5703,5.5703,5.5645,5.5184,5.4821,5.4543,5.4239,5.3677,5.2994,5.2758,5.2633,5.2546,5.2546,5.2546,5.2546,5.2546,5.2546,5.2546,5.2546,5.2546,5.2546,5.2546,5.2711,5.3023,5.3592,5.3904,5.4234,5.4803,5.4932,5.4932,5.4932,5.4583,5.3904,5.2747,5.3023,5.3188,5.2509,5.3463,0.0,5.2858,5.3316,5.2931,5.082,5.0582,5.0364,4.9825,4.9166,4.9559,5.1251,5.0524,5.0196,5.0471,4.8678,4.6746,4.479,4.2219,4.0527,0.0,0.0,0.0,0.0,0.0,0.0,0.0,0.0,0.0,0.0,0.0,0.0,0.0,0.0,0.0,0.0,0.0,0.0,0.0,0.0,0.0,0.0,4.172,4.4355,4.5566,4.6701,4.7721,4.8548,4.8971,4.9529,5.0375,5.1241,5.1933,5.2414,5.326,5.3741,5.3741,5.4068,5.4472,5.4991,5.4991,5.5222,5.5703,5.5703,5.5876,5.6242,5.6242,5.6434,5.678,5.678,5.678,0.0,5.678,5.678,5.678,5.6587,5.6496,0.0,0.0,0.0,0.0,0.0,5.3906,5.3422,5.3272,5.3206,5.3206,5.3206,5.3445,5.3702,5.3702,5.394,5.4216,5.4216,5.4216,5.4216,5.4216,5.4216,5.4326,5.4785,5.4895,5.5023,5.5482,5.5592,5.5592,5.5592,0.0,0.0,5.4363,5.4583,5.4546,5.3555,5.4638,5.506,5.3573,5.4271,5.4179,5.2289,5.2087,5.1943,5.1508,5.0254,0.0,0.0,0.0,4.9361,4.8849,4.7738,0.0,0.0,0.0,0.0,0.0,0.0,0.0,0.0,3.7195,3.6231,0.0,0.0,0.0,0.0,0.0,0.0,0.0,0.0,0.0,0.0,0.0,0.0,0.0,0.0,0.0,0.0,4.4893,4.774,4.9317,4.8952,4.8817,4.9586,5.0452,5.126,5.1991,5.2837,5.3356,5.3356,5.4145,5.4645,5.4645,0.0,0.0,0.0,0.0,5.5742,5.5838,5.5838,5.628,5.7146,5.7146,5.755,5.83,5.83,5.83,5.83,5.83,5.83,5.8258,5.7798,5.7539,5.731,5.5808,5.5218,5.5113,5.431,5.3981,0.0,0.0,0.0,0.0,5.3482,5.3959,5.4546,5.4546,5.5023,5.5592,5.5592,5.5592,5.5592,5.5592,5.5592,5.5611,5.5702,5.5739,5.5757,5.5831,5.5868,5.5868,5.5868,5.5868,5.5868,5.5868,5.5794,5.5005,5.2858,5.4436,5.5042,5.2821,5.4399,5.5592,5.5225,0.0,0.0,5.4956,5.2325,5.1383,5.3044,4.9868,4.7427,4.6346,4.5602,4.5162,4.5077,4.4316,4.4874,4.6786,4.6786,4.6786,4.6633,3.9986,3.8311,0.0,0.0,0.0,0.0,0.0,0.0,0.0,0.0,0.0,0.0,0.0,0.0,0.0,0.0,0.0,4.2739,4.6259,4.9279,5.0298,5.0856,5.1241,5.1414,5.2202,5.2779,5.2933,5.3741,5.4241,5.4241,5.5011,5.5472,5.5472,5.5607,0.0,5.5703,5.5703,5.603,5.6742,5.6742,5.7184,5.805,0.0,0.0,5.83,5.83,5.83,5.83,5.83,5.83,5.8258,5.7798,5.715,5.6426,5.6089,5.5977,5.594,5.5406,5.5251,5.5227,5.5159,5.5133,5.5133,5.5133,5.5225,5.5354,5.5354,5.5464,0.0,5.5592,5.5592,5.5592,5.5592,5.5592,5.5757,5.6418,5.6565,5.6748,5.7391,5.7538,5.7538,5.7538,5.7538,5.7538,5.7538,5.7005,5.6418,5.5941,5.6822,5.7134,5.6014,5.629,5.5574,5.2968,5.2692,5.2215,5.103,5.0353,5.0468,5.1566,5.0895,5.0396,5.0168,4.9424,4.8748,4.8156,4.7428,4.6955,4.6786,4.6786,4.6786,4.6752,4.5314,4.4942,0.0,0.0,0.0,0.0,0.0,0.0,0.0,0.0,0.0,0.0,0.0,3.7873,3.9585,0.0,4.4259,4.597,4.8394,5.0337,5.1183,5.2395,5.3049,5.2606,5.3318,5.3857,5.3857,5.4607,5.5107,5.5107,5.5472,5.5703,5.5703,5.5703,5.5895,5.6338,5.6338,5.6761,5.7646,5.7646,5.8069,5.8896,5.8896,5.9127,5.955,5.955,5.955,5.955,5.9306,5.9211,5.9166,5.868,5.8113,5.7444,5.7444,5.68,5.5886,5.5643,5.5592,5.5592,5.5592,5.5592,5.5592,5.5592,5.5868,5.6198,5.6198,5.6473,5.6785,5.6785,5.6785,5.6785,5.6785,5.6785,5.6895,5.7299,5.7409,5.7519,5.7905,5.7997,5.7997,5.7997,5.7997,5.7997,5.7997,5.7666,5.7409,5.7409,5.774,5.785,5.7446,5.7409,5.663,5.4646,5.4436,5.3984,5.2838,5.24,5.2077,5.1773,5.1758,5.1589,5.1234,5.0862,5.049,5.0118,4.9746,4.939,4.9001,4.9001,4.9001,4.9001,4.9001,4.8206,0.0,0.0,0.0,0.0,0.0,0.0,0.0,3.3641,3.4314,3.7526,3.8873,4.0373,4.3297,4.4509,4.6047,4.9144,5.0375,5.1279,5.2279,5.3606,5.4299,5.376,5.4318,5.4722,5.4722,5.5318,5.5703,5.5703,5.5703,5.5761,5.5934,5.5953,5.6338,5.7223,5.7242,5.7665,5.8531,5.8531,5.8934,5.9742,5.9742,6.0127,6.08,6.069,6.0647,6.0647,6.0264,6.0103,6.0055,5.9592,5.9121,5.8694,5.8591,5.7555,5.6051,5.6051,5.6051,5.6051,5.6051,5.6051,5.6051,5.6051,5.6492,5.7042,5.7042,5.7483,5.7997,5.7997,5.7997,5.7997,5.7997,5.7997,5.7997,5.7997,5.7997,5.7997,5.7997,5.7997,5.7997,5.7997,5.7997,5.7997,5.7997,5.7997,5.7997,5.7997,5.7997,5.795,5.7774,5.7792,5.7498,5.6739,5.6668,5.6385,5.5535,5.4818,5.3879,5.2636,5.2536,5.2283,5.1691,5.1522,5.142,5.142,5.1285,5.1217,5.1217,5.1217,5.1217,5.1217,5.1217,4.9932,2.7777,2.9624,3.2183,3.4361,3.5035,3.6344,0.0,4.0623,4.0258,4.2912,4.4143,4.5105,4.6259,4.7124,4.8317,5.024,5.1241,5.2337,5.3972,5.4376,5.4722,5.5338,5.5511,5.5568,5.5568,5.5645,5.5703,5.5703,5.5703,5.603,5.6799,5.6838,5.7242,5.8127,5.8146,5.855,5.9358,5.9377,5.98,6.0646,6.0646,6.0704,6.08,6.0365,6.0161,6.018,6.0132,6.0103,6.0055,5.9592,5.9121,5.8673,5.8238,5.7914,5.7721,5.7721,5.7721,5.7721,5.7721,5.7721,5.7721,5.7721,5.7776,5.7868,5.7868,5.7923,5.7997,5.7997,5.7997,5.7997,5.7997,5.7997,5.7997,5.7997,5.7997,5.7997,5.7997,5.7997,5.7997,5.7997,5.7997,5.7997,5.7997,5.7997,5.7997,5.7997,5.7997,5.7774,5.7134,5.7015,5.6721,5.5893,5.5819,5.5552,5.4818,5.4059,5.3584,5.3382,5.3365,5.3331,5.3264,5.2553,5.2181,5.2181,5.1539,5.1217,5.1217,5.1217,5.1217,5.1217,5.1217,5.1031,3.4226,3.4458,3.4651,3.7275,3.8252,3.9085,4.1139,4.1412,4.197,4.4528,4.574,4.6605,4.7451,4.8702,4.999,5.1202,5.2529,5.3664,5.4395,5.4895,5.5318,5.5665,5.5703,5.5703,5.5703,5.5703,5.5915,5.6415,5.6453,5.6838,5.7703,5.7761,5.8146,5.8973,5.9011,5.9396,6.0242,6.0262,6.0435,6.08,6.08,6.0666,6.0411,6.0482,6.0365,6.0103,6.0103,5.9773,5.9284,5.9354,5.9121,5.8694,5.8484,5.8418,5.8375,5.8097,5.7997,5.7997,5.7997,5.7997,5.7997,5.7997,5.7997,5.7997,5.7997,5.7997,5.7997,5.7997,5.7997,5.7997,5.7997,5.7997,5.7997,5.7997,5.7997,5.7997,5.7997,5.7997,5.7997,5.7997,5.8382,5.8712,5.8712,5.9098,5.923,5.8765,5.7915,5.7065,5.6313,5.6186,5.591,5.5144,5.4668,5.4264,5.3994,5.3668,5.3501,5.3501,5.3501,5.3501,5.3501,5.3179,5.301,5.301,5.2706,5.2553,5.2553,5.2553,5.2553,5.2553,5.2553,5.2553,3.6996,3.7177,3.6909,3.9335,4.0842,4.1709,4.1582,4.2047,4.3008,4.4855,4.5932,4.6797,4.7625,4.9183,5.0683,5.1741,5.3356,5.4587,5.4799,5.5318,5.5703,5.5703,5.5915,5.6049,5.6049,5.6049,5.6319,5.6934,5.7223,5.7723,5.8588,5.8627,5.9011,5.9838,5.9858,6.0165,6.0781,6.08,6.08,6.08,6.08,6.0622,6.0311,6.0508,6.0338,5.9916,5.9916,5.9526,5.8913,5.9121,5.9009,5.8732,5.8809,5.8818,5.8813,5.8731,5.8382,5.7997,5.7997,5.7997,5.7997,5.7997,5.7997,5.7997,5.7997,5.7997,5.7997,5.7997,5.7997,5.8052,5.8272,5.8327,5.84,5.8602,5.8657,5.8657,5.8657,5.8657,5.8657,5.8657,5.9134,5.9538,5.9538,6.0015,6.0121,5.9347,5.8106,5.692,5.6129,5.5852,5.5506,5.493,5.4446,5.4126,5.4126,5.4126,5.4126,5.4126,5.4126,5.4025,5.3805,5.3805,5.3704,5.3501,5.3501,5.3501,5.3501,5.3501,5.3501,5.3501,5.3501,5.3501,3.2914,3.5753,3.8638,4.0342,4.2588,4.4352,4.422,4.4201,4.4239,4.4316,4.5028,4.5913,4.6778,4.8317,4.9971,5.1645,5.3356,5.4761,5.5549,5.5684,5.5703,5.5703,5.6434,5.6953,0.0,5.6953,5.6953,5.6992,5.778,5.8607,5.9415,5.9454,5.9858,6.0723,6.0762,6.0762,6.08,6.08,6.08,6.08,6.08,6.08,6.0757,6.0338,5.9855,5.9424,5.9424,5.9408,5.9319,5.8913,5.8694,5.8747,5.9052,5.9171,5.9263,6.0034,5.9336,5.7997,5.7997,5.7997,5.7997,5.7997,5.7997,5.7997,5.7997,5.7997,5.7997,5.7997,5.7997,5.818,5.8969,5.9171,5.9373,6.0144,6.0327,6.0327,6.0327,6.0327,6.0327,6.0327,6.0346,6.0364,6.0364,6.0382,6.017,5.9417,5.8563,5.7786,5.69,5.6166,5.5702,5.5649,5.5649,5.5649,5.5649,5.5649,5.5649,5.5649,5.5649,5.5327,5.4583,5.4566,5.4228,5.3518,5.3501,5.3501,5.3501,5.3501,5.3501,5.3501,5.3501,5.3501,3.6064,3.8345,4.0597,4.2938,4.4008,4.4487,4.4429,4.4814,4.5163,4.5163,4.4509,4.4182,4.5028,4.6586,4.8298,4.9971,5.2645,5.478,5.5588,5.5703,5.5915,5.6492,5.6819,5.7223,0.0,0.0,0.0,5.8627,5.8934,5.9473,6.0319,6.0358,6.0492,6.0781,6.08,6.08,6.08,6.08,6.08,6.08,6.0482,6.0338,6.0311,5.9855,5.9545,5.9427,5.9939,6.0003,5.9773,6.0133,6.0098,5.9835,5.9963,6.0015,6.0034,6.0309,6.007,5.9593,5.9593,5.9593,5.9593,5.9593,5.9593,5.9593,5.9593,5.9593,5.9593,5.9593,5.9593,5.9648,5.9942,6.0015,6.007,6.0346,6.0401,6.0401,6.0401,6.0401,6.0401,6.0401,6.0823,6.119,6.119,6.1649,6.1711,6.0919,5.8834,5.7005,5.6167,5.5822,5.5716,5.5716,5.5716,5.5716,5.5716,5.5716,5.5716,5.5716,5.5716,5.5598,5.5344,5.5344,5.5226,5.4972,5.4972,5.4735,5.4228,5.4228,5.3974,5.3501,5.3501,5.3501,3.8052,3.9937,4.1563,4.4182,4.4911,4.4963,4.4889,4.5257,4.5586,4.5586,4.4259,4.3258,4.3778,4.5528,4.7048,4.749,5.0702,5.3414,5.4222,5.4607,5.5338,5.6819,5.753,5.8107,5.8665,5.9011,0.0,5.9473,5.9781,6.0204,6.0762,6.08,6.08,6.08,6.0647,6.0553,6.0553,6.0553,6.0622,6.0781,6.0338,6.0103,6.0103,5.9914,5.9736,5.9609,6.0435,6.0497,6.0104,6.0622,6.0656,6.0438,6.0731,6.0823,6.086,6.1153,6.1263,6.119,6.0603,6.0401,6.0401,6.0401,6.0401,6.0401,6.0401,6.0401,6.0401,6.0401,6.0401,6.0474,6.075,6.0823,6.0896,6.119,6.1263,6.1263,6.1263,6.1263,6.1263,6.1263,6.1686,6.2034,6.2034,6.2475,6.2446,6.1361,5.9469,5.7868,5.7038,5.6673,5.6494,5.6494,5.6494,5.6494,5.6494,5.6494,5.6494,5.6494,5.6494,5.6376,5.6105,5.6105,5.5987,5.5733,5.5716,5.548,5.4989,5.4989,5.4752,5.4296,5.4296,5.4296,3.8756,4.0557,4.1831,4.4199,4.5287,4.577,4.5635,4.5586,4.5547,4.5432,4.4066,4.2874,4.2797,4.4893,4.6124,4.4547,4.7971,5.1106,5.1933,5.2818,5.4318,5.6761,5.8511,5.9511,5.9569,6.03,6.0454,5.9627,0.0,6.08,6.08,6.08,6.0777,6.08,6.0311,6.0103,6.0132,6.0103,6.0338,6.0757,6.0321,6.0112,6.0121,6.0471,6.0379,5.9971,6.0771,6.0855,6.0456,6.0511,6.0529,6.0603,6.1355,6.1649,6.1741,6.253,6.2805,6.2585,6.1062,6.0529,6.0529,6.0529,6.0529,6.0529,6.0529,6.0529,6.0529,6.0529,6.0529,6.0694,6.1465,6.1649,6.1851,6.2622,6.2805,6.2805,6.2805,6.2805,6.2805,6.2805,6.2805,6.2805,6.2805,6.2755,6.2219,6.0718,6.0414,6.0023,5.9111,5.8388,5.7881,5.7881,5.7881,5.7881,5.7881,5.7881,5.7881,5.7881,5.7881,5.7577,5.6884,5.6867,5.6528,5.5852,5.5818,5.5801,5.5784,5.5784,5.575,5.5716,5.5716,5.5716,4.0511,4.2845,4.5085,4.5609,4.5812,4.5841,4.5774,4.568,4.5047,4.3162,4.1431,3.9873,3.8565,4.095,4.3355,4.4162,4.8952,5.2856,5.3722,5.5088,5.6511,5.7819,5.8877,5.9762,6.0416,6.0666,6.0704,0.0,6.0666,6.08,6.08,6.0482,6.0437,6.08,5.9996,5.9916,6.0622,6.0264,6.0161,6.0283,6.0418,6.0297,5.9965,6.0671,6.0728,6.0324,6.1134,6.139,6.1337,6.1942,6.2199,6.2218,6.242,6.2493,6.253,6.2732,6.2805,6.275,6.2346,6.2199,6.2199,6.2199,6.2199,6.2199,6.2199,6.2199,6.2199,6.2199,6.2199,6.2254,6.2456,6.2493,6.2567,6.2768,6.2805,6.2805,6.2805,6.2805,6.2805,6.2805,6.2805,6.2805,6.2805,6.2324,6.1788,6.1361,6.0238,5.9128,5.8317,5.801,5.7881,5.7881,5.7881,5.7881,5.7881,5.7881,5.7881,5.7881,5.7881,5.7814,5.7628,5.7611,5.7526,5.734,5.734,5.707,5.6528,5.6528,5.6241,5.5716,5.5716,5.5716,4.2438,4.4224,4.569,4.5949,4.5924,4.5545,4.4331,4.4003,4.3217,4.0649,3.88,3.7334,3.6353,3.9258,4.1873,4.2066,4.7413,5.1837,5.2702,5.4587,5.6492,5.8107,5.9358,6.0262,6.0742,6.08,6.08,6.08,6.08,6.08,6.08,6.0338,6.0236,6.0482,5.9773,5.9644,6.0161,5.9709,5.9767,6.0342,6.0301,6.0334,6.046,6.1037,6.1191,6.097,0.0,6.2126,6.2163,6.2622,6.2805,6.2805,6.2805,6.2805,6.2805,6.2805,6.2805,6.2805,6.2805,6.2805,6.2805,6.2805,6.2805,6.2805,6.2805,6.2805,6.2805,6.2805,6.2805,6.2805,6.2805,6.2805,6.2805,6.2805,6.2805,6.2805,6.2805,6.2805,6.2805,6.2805,6.2515,6.2271,6.2271,6.1604,6.092,6.0544,5.9733,5.8806,5.801,5.7881,5.7881,5.7881,5.7881,5.7881,5.7881,5.7881,5.7881,5.7881,5.7881,5.7881,5.7881,5.7881,5.7881,5.7881,5.7881,5.7695,5.7273,5.7273,5.707,5.6681,5.6681,5.6681,4.418,4.4966,4.5105,4.5738,4.5765,4.4968,4.239,4.1713,4.0847,3.8063,3.633,3.5262,3.5045,3.8277,4.0681,3.9777,4.4932,4.9529,5.0837,5.3126,5.5568,5.8011,5.9685,6.0666,6.0781,6.08,6.08,6.08,6.0757,6.069,6.069,6.0264,5.9946,5.9823,5.9545,5.9354,5.9284,5.8894,5.9324,6.049,6.014,6.0412,6.1168,6.1577,6.1759,6.1796,0.0,0.0,6.2805,6.2805,6.2805,6.2805,6.2805,6.2805,6.2805,6.2805,6.2805,6.2805,6.2805,6.2805,6.2805,6.2805,6.2805,6.2805,6.2805,6.2805,6.2805,6.2805,6.2805,6.2805,6.2805,6.2805,6.2805,6.2805,6.2705,6.2636,6.2636,6.2567,6.2464,6.2464,6.1915,6.1418,6.1418,6.076,5.996,5.9245,5.8993,5.8686,5.8027,5.7881,5.7881,5.7881,5.7881,5.7881,5.7881,5.7881,5.7881,5.7881,5.7881,5.7881,5.7881,5.7881,5.7881,5.7881,5.7881,5.7881,5.7881,5.7881,5.7881,5.7881,5.7881,5.7881,4.4707,4.5346,4.5865,4.5835,4.5279,4.4205,4.2249,4.1239,3.9595,3.5671,3.463,3.3999,3.2596,3.4693,3.7642,4.0854,4.472,4.8606,5.226,5.4337,5.6184,5.8088,5.9146,6.0012,6.0723,6.08,6.08,0.0,6.0437,6.0236,6.0236,5.9773,5.9158,5.8375,5.9047,5.9212,5.8835,5.8735,5.9145,6.0006,6.0211,6.0727,6.1518,6.2267,6.2603,6.2603,0.0,0.0,6.2805,6.2805,6.2805,6.2805,6.2805,6.2805,6.2805,6.2805,6.2805,6.2805,6.2805,6.2805,6.2805,6.2805,6.2805,6.2805,6.2805,6.2805,6.2805,6.2805,6.2805,6.2805,6.2805,6.2805,6.2805,6.2805,6.2271,6.1842,6.1842,6.1304,6.0838,6.0838,6.07,6.0598,6.0598,5.9879,5.9245,5.9111,5.8494,5.8082,5.7881,5.7881,5.7881,5.7881,5.7881,5.7881,5.7881,5.7881,5.7881,5.7881,5.7881,5.7881,5.7881,5.7881,5.7881,5.7881,5.7881,5.7881,5.7881,5.7881,5.7881,5.7881,5.7881,5.7881,4.5391,4.5738,4.5958,4.5838,4.5432,4.4165,4.0619,3.9499,3.7868,3.3192,3.2218,3.1994,3.1172,3.348,3.6157,3.818,4.3239,4.7759,5.0202,5.351,5.6184,5.7473,5.8723,5.9665,6.0089,6.0309,6.0437,6.0437,0.0,5.9855,6.0103,5.9424,5.8835,5.8375,5.8549,5.8694,5.8694,5.8868,5.9342,6.0174,6.0764,6.1447,6.2236,6.264,6.2805,6.2805,6.2805,0.0,6.2805,6.2805,6.2805,6.2805,6.2805,6.2805,6.2805,6.2805,6.2805,6.2805,6.2805,6.2805,6.2805,6.2805,6.2805,6.2805,6.2805,6.2805,6.2805,6.2805,6.2805,6.2805,6.2805,6.2805,6.2686,6.2271,6.1548,6.1015,6.1015,6.064,6.0414,6.0414,6.0023,5.9704,5.9704,5.9011,5.8511,5.8511,5.8137,5.7881,5.7881,5.7881,5.7881,5.7881,5.7881,5.7881,5.7881,5.7881,5.7881,5.7881,5.7881,5.7881,5.7881,5.7881,5.7881,5.7881,5.7881,5.7881,5.7881,5.7881,5.7628,5.7039,5.7039,5.6718,4.5508,4.583,4.5815,4.5547,4.5393,4.3991,3.8876,3.7718,3.6335,3.1415,3.0398,3.0398,3.0398,3.2605,3.4622,3.5287,4.0646,4.5433,4.7473,5.1567,5.4934,5.653,5.8204,5.9319,5.9473,5.9867,6.0103,6.0103,0.0,0.0,5.9773,5.9009,5.8568,5.8568,5.8213,5.826,5.8786,5.9071,5.9703,6.0658,6.13,6.2016,6.2805,6.2805,6.2805,6.2805,6.2805,0.0,0.0,6.2805,6.2805,6.2805,6.2805,6.2805,6.2805,6.2805,6.2805,6.2805,6.2805,6.2805,6.2805,6.2805,6.2805,6.2805,6.2805,6.2805,6.2805,6.2805,6.2805,6.2755,6.2585,6.2567,6.2271,6.1286,6.0562,6.0086,5.9914,5.985,5.985,5.985,5.9328,5.8875,5.8875,5.8317,5.7881,5.7881,5.7881,5.7881,5.7881,5.7881,5.7881,5.7881,5.7881,5.7881,5.7881,5.7881,5.7881,5.7881,5.7881,5.7881,5.7881,5.7881,5.7881,5.7881,5.7881,5.7881,5.7881,5.7881,5.7463,5.6531,5.6531,5.5968,4.4258,4.5218,4.5586,4.4664,4.4416,4.3075,3.7995,3.682,3.5608,3.1299,3.0398,3.0398,3.0398,3.066,3.1808,3.4668,3.6531,3.9753,4.5801,4.8567,5.1433,5.5338,5.7357,5.8704,5.9435,5.9867,6.0103,6.0103,0.0,0.0,5.8835,5.8351,5.807,5.807,5.8042,5.8391,5.9126,5.9171,5.9979,6.1484,6.1557,6.2016,6.2805,6.2805,6.2805,6.2805,6.2805,0.0,0.0,6.2805,6.2805,6.2805,6.2805,6.2805,6.2805,6.2805,6.2805,6.2805,6.2805,6.2805,6.2805,6.2805,6.2805,6.2805,6.2805,6.2805,6.2805,6.2805,6.2805,6.2636,6.1897,6.1715,6.1286,5.9733,5.9294,5.8993,5.8263,5.8137,5.8137,5.8137,5.8082,5.801,5.801,5.7954,5.7881,5.7881,5.7881,5.7881,5.7881,5.7881,5.7881,5.7881,5.7881,5.7881,5.7881,5.7881,5.7881,5.7881,5.7881,5.7881,5.7881,5.7881,5.7881,5.7881,5.7881,5.7881,5.7881,5.7881,5.7881,5.7718,5.7718,5.7131,4.3315,4.3974,4.4243,4.4282,4.3145,4.1229,3.8167,3.6291,3.4125,3.0379,2.9625,2.9625,2.9625,2.9625,3.0145,3.1766,3.4659,3.7755,4.0786,4.5918,5.0221,5.2433,5.6011,5.8327,5.8336,5.9166,5.9424,0.0,0.0,0.0,5.8282,5.8097,5.7997,5.7997,5.8474,5.8896,5.9208,6.0162,6.097,6.1594,6.2089,6.2493,6.2805,6.2805,6.2805,6.2805,6.2805,0.0,0.0,6.2805,6.2805,6.2805,6.2805,6.2805,6.2805,6.2805,6.2805,6.2805,6.2805,6.2497,6.2076,6.2076,6.1733,6.1548,6.2515,6.2446,6.2076,6.2076,6.1733,6.1247,6.0956,6.0501,5.9925,5.9227,5.8755,5.8317,5.7954,5.7881,5.7881,5.7881,5.7881,5.7881,5.7881,5.7881,5.7881,5.7881,5.7881,5.7881,5.7881,5.7881,5.7881,5.7881,5.7881,5.7881,5.7881,5.7881,5.7881,5.7881,5.7881,5.7881,5.7881,5.7881,5.7881,5.7881,5.7881,5.7881,5.7881,5.7881,5.7222,5.5906,5.5906,5.4986,4.169,4.2956,4.3912,4.3932,4.2396,4.0307,3.8127,3.5834,3.3234,2.9809,2.9098,2.9091,2.9094,2.9047,2.9235,2.9889,3.2881,3.5622,3.7118,4.2771,4.7375,4.899,5.3241,5.6145,5.6442,5.8113,0.0,0.0,0.0,0.0,0.0,5.7997,5.7997,5.7997,5.8786,5.9318,5.9557,6.0915,6.1722,6.1961,6.2548,6.2805,6.2805,6.2805,6.2805,6.2805,0.0,0.0,0.0,6.2805,6.2805,6.2805,6.2805,6.2805,6.2805,6.2805,6.2805,6.2755,6.2515,6.2076,6.153,6.1304,6.0879,6.0598,6.1733,6.1659,6.1304,6.153,6.0802,6.0023,6.0023,5.9377,5.8755,5.8755,5.8317,5.7881,5.7881,5.7881,5.7881,5.7881,5.7881,5.7881,5.7881,5.7881,5.7881,5.7881,5.7881,5.7881,5.7881,5.7881,5.7881,5.7881,5.7881,5.7881,5.7881,5.7881,5.7881,5.7881,5.7881,5.7881,5.7881,5.7881,5.7881,5.7881,5.7881,5.7718,5.7389,5.7389,5.6393,5.4589,5.4589,5.3585,3.9131,4.2399,4.5179,4.3528,4.2434,4.0886,3.7475,3.5403,3.3234,2.9809,2.9096,2.91,2.9098,2.8935,2.9072,2.9874,3.0765,3.2527,3.5938,3.8837,4.1835,4.524,4.8682,5.1579,5.3632,5.6788,0.0,0.0,0.0,0.0,0.0,5.7997,5.7997,5.7997,5.8786,5.9593,6.0382,6.119,6.1998,6.2805,6.2805,6.2805,6.2805,6.2805,6.2805,0.0,0.0,0.0,0.0,6.2805,6.2805,6.2805,6.2805,6.2805,6.2805,6.2805,6.2805,6.2705,6.1897,6.1604,6.1474,6.064,6.0414,6.0414,6.0414,6.0414,6.0598,6.1361,6.0423,5.9111,5.9111,5.8511,5.7881,5.7881,5.7898,5.7881,5.7881,5.7881,5.7881,5.7881,5.7881,5.7881,5.7881,5.7881,5.7881,5.7881,5.7881,5.7881,5.7881,5.7881,5.7881,5.7881,5.7881,5.7881,5.7881,5.7881,5.7881,5.7881,5.7881,5.7881,5.7881,5.7881,5.7881,5.7881,5.7881,5.7372,5.6204,5.6204,5.5634,5.4589,5.4589,5.3999,3.6307,3.7677,3.8696,3.8712,3.7213,3.5439,3.4353,3.2343,3.009,2.7838,2.7399,2.7518,2.7941,2.7948,2.8289,2.9415,3.0556,3.1823,3.3311,3.9042,4.372,4.5393,5.1127,5.5529,5.7,0.0,0.0,0.0,0.0,0.0,0.0,5.8529,5.8822,5.8822,5.9612,6.0419,6.1208,6.2016,6.2567,6.2805,6.2805,6.2805,6.2805,6.2805,0.0,0.0,0.0,0.0,0.0,6.2805,6.2805,6.2805,6.2805,6.2805,6.2755,6.22,6.1969,6.1842,6.1073,6.0379,5.9861,5.9621,5.9145,5.8772,5.9311,5.9509,5.9443,5.9128,5.8686,5.8263,5.8263,5.8065,5.7881,5.7881,5.7881,5.7881,5.7881,5.7881,5.7881,5.7881,5.7881,5.7881,5.7881,5.7881,5.7881,5.7881,5.7881,5.7881,5.7881,5.7881,5.7881,5.7881,5.7881,5.7881,5.7881,5.7881,5.7881,5.7881,5.7881,5.7881,5.7881,5.7881,5.7537,5.6778,5.6701,5.6204,5.5068,5.5068,5.4573,5.3412,5.2649,5.2063,3.3504,3.5234,3.6402,3.6285,3.4565,3.2809,3.2519,3.0471,2.8264,2.6875,2.6553,2.6697,2.7362,2.7386,2.7759,2.927,3.0446,3.1813,3.3557,3.904,4.3974,4.6895,5.2106,5.593,0.0,0.0,0.0,0.0,0.0,0.0,0.0,5.8951,5.9501,6.0107,6.0584,6.108,6.1594,6.2401,6.2805,6.2805,6.2805,6.2805,6.2805,6.2805,0.0,0.0,0.0,0.0,0.0,6.2805,6.2805,6.2755,6.2446,6.2324,6.2271,6.1418,6.1131,6.1055,6.0211,5.9556,5.9061,5.8755,5.8317,5.801,5.8511,5.8875,5.8925,5.8137,5.7881,5.7881,5.7881,5.7881,5.7881,5.7881,5.7881,5.7881,5.7881,5.7881,5.7881,5.7881,5.7881,5.7881,5.7881,5.7881,5.7881,5.7881,5.7881,5.7881,5.7881,5.7881,5.7881,5.7881,5.7881,5.7881,5.7881,5.7881,5.7881,5.7881,5.7463,5.7297,5.7297,5.6887,5.6315,5.5634,5.5634,5.5068,5.3999,5.3498,5.2989,5.223,5.1557,5.1214,0.0,3.4253,3.6907,3.5357,3.374,3.2336,3.1523,2.9522,0.0,2.6689,2.64,2.6535,2.733,2.7206,2.7563,2.9363,3.0413,3.2256,3.5848,3.9109,4.3386,4.9504,5.2084,5.3759,5.478,0.0,0.0,0.0,0.0,0.0,0.0,5.9263,6.0015,6.1539,6.1649,6.1686,6.1686,6.2438,6.2805,6.2805,6.2805,6.2805,6.2805,6.2805,0.0,0.0,0.0,0.0,0.0,6.2805,6.2805,6.2705,6.1897,6.1586,6.1474,6.064,6.0291,6.0149,5.9311,5.8976,5.8857,5.8137,5.7881,5.7881,5.7881,5.8441,5.8875,5.8137,5.7881,5.7881,5.7881,5.7881,5.7881,5.7881,5.7881,5.7881,5.7881,5.7881,5.7881,5.7881,5.7881,5.7881,5.7881,5.7881,5.7881,5.7881,5.7881,5.7881,5.7881,5.7808,5.7808,5.7881,5.7808,5.7792,5.7792,5.7792,5.7792,5.7792,5.6701,5.6126,5.6126,5.515,5.4589,5.4505,5.4421,5.3828,5.2827,5.1727,5.1214,5.1214,5.1214,5.1214,2.7459,0.0,3.0186,2.979,2.9374,2.8858,0.0,2.7354,2.6651,2.5784,2.5938,2.6443,2.7153,2.7585,2.8123,2.9027,3.0186,3.2184,3.5628,4.2565,4.8579,5.1962,5.4528,5.5723,0.0,0.0,0.0,0.0,0.0,0.0,0.0,5.9795,6.0566,6.1557,6.2199,6.253,6.253,6.2713,6.2805,6.2805,6.2805,6.2805,6.2805,6.2805,0.0,0.0,0.0,0.0,6.2805,6.2805,6.2805,6.2705,6.1897,6.1586,6.14,5.9925,5.9377,5.9311,5.8441,5.8192,5.8137,5.7954,5.7881,5.7881,5.7881,5.801,5.8137,5.7954,5.7881,5.7881,5.7881,5.7881,5.7881,5.7881,5.7881,5.7881,5.7881,5.7881,5.7881,5.7881,5.7881,5.7881,5.7881,5.7881,5.7881,5.7881,5.7881,5.7881,5.7881,5.7131,5.6946,5.7808,5.7131,5.6624,5.6624,5.6624,5.6624,5.6624,5.5571,5.4986,5.4986,5.4739,5.4168,5.3324,5.2485,5.1896,5.165,5.1293,5.1214,5.1214,5.1214,5.1214,2.5226,2.6649,2.7802,2.7396,2.7304,2.719,2.6708,2.6593,2.6535,2.6352,2.6497,2.6878,2.7621,2.8891,2.9871,2.9913,3.2891,3.6425,3.991,4.5246,4.9857,5.2755,5.4632,5.5878,0.0,0.0,0.0,0.0,0.0,0.0,0.0,6.0511,6.1318,6.2126,6.2585,6.2805,6.2805,6.2805,6.2805,6.2805,6.2805,6.2805,6.2805,6.2805,6.2805,0.0,0.0,0.0,6.2805,6.2805,6.2567,6.2148,6.1361,6.0802,6.03,5.8993,5.8564,5.8511,5.8082,5.7881,5.7881,5.7881,5.7881,5.7881,5.7881,5.7881,5.7881,5.7881,5.7881,5.7881,5.7881,5.7881,5.7881,5.7881,5.7881,5.7881,5.7881,5.7881,5.7881,5.7881,5.7881,5.7881,5.7881,5.7881,5.7881,5.7881,5.7881,5.7718,5.7206,5.6608,5.6204,5.6393,5.581,5.5474,5.5474,5.497,5.4888,5.5393,5.4405,5.3828,5.3828,5.3324,5.2738,5.2139,5.1464,5.1214,5.1214,5.1214,5.1214,5.1214,5.1214,5.1214,2.3823,2.6054,2.7798,2.667,2.6497,2.6593,2.6593,2.6698,2.6949,2.7459,2.7511,2.7766,2.8841,3.0423,3.1565,3.1579,3.6627,4.1888,4.5649,4.7895,5.0092,5.2717,5.4048,0.0,0.0,0.0,0.0,0.0,0.0,0.0,0.0,6.1153,6.1961,6.2787,6.2805,6.2805,6.2805,6.2805,6.2805,6.2805,6.2805,6.2805,6.2805,6.2805,6.2805,0.0,0.0,0.0,6.2805,6.2686,6.2219,6.153,6.058,5.9768,5.8993,5.8192,5.7881,5.7881,5.7881,5.7881,5.7881,5.7881,5.7881,5.7881,5.7881,5.7881,5.7881,5.7881,5.7881,5.7881,5.7881,5.7881,5.7881,5.7881,5.7881,5.7881,5.7881,5.7881,5.7881,5.7881,5.7881,5.7881,5.7881,5.7881,5.7881,5.7881,5.7718,5.7297,5.636,5.5873,5.5377,5.4672,5.4421,5.4337,5.4337,5.3498,5.3237,5.3999,5.3149,5.2649,5.2649,5.1727,5.1214,5.1214,5.1214,5.1214,5.1214,5.1214,5.1214,5.1214,5.1214,5.1214,2.365,2.6457,2.8377,2.6083,2.6063,2.6593,2.6593,2.7176,2.7727,2.7823,2.8207,2.924,3.1544,3.089,3.0939,3.3768,3.8766,4.3852,4.8199,5.1787,5.3623,5.2711,0.0,0.0,0.0,0.0,0.0,0.0,0.0,0.0,0.0,0.0,6.1961,6.2787,6.2805,6.2805,6.2805,6.2805,6.2805,6.2805,6.2805,6.2805,6.2805,6.2805,6.2805,0.0,0.0,6.2805,6.2755,6.2076,6.1715,6.1474,5.9925,5.9245,5.8993,5.8192,5.7881,5.7881,5.7881,5.7881,5.7881,5.7881,5.7881,5.7881,5.7881,5.7881,5.7881,5.7881,5.7881,5.7881,5.7881,5.7881,5.7881,5.7881,5.7881,5.7881,5.7881,5.7881,5.7881,5.7881,5.7881,5.7881,5.7881,5.7881,5.7881,5.7881,5.7039,5.6376,5.6204,5.4557,5.3742,5.4505,5.3742,5.3149,5.3149,5.2989,5.2575,5.1804,5.1557,5.1464,5.1464,5.1308,5.1214,5.1214,5.1214,5.1214,5.1214,5.1214,5.1214,5.1214,5.1214,5.1214,2.2925,2.4512,2.609,2.7662,2.974,3.1526,3.1967,3.2378,3.2362,3.1299,3.1312,3.2007,3.3657,3.4363,3.6594,4.2431,4.3886,4.5783,5.0135,5.1624,5.2608,0.0,0.0,0.0,0.0,0.0,0.0,0.0,0.0,0.0,0.0,0.0,6.242,6.2805,6.2805,6.2805,6.2805,6.2805,6.2805,6.2805,6.2805,6.2805,6.2805,6.2805,6.2805,6.2805,0.0,6.2805,6.2755,6.1951,6.1361,6.082,5.9556,5.8806,5.837,5.801,5.7881,5.7881,5.7881,5.7881,5.7881,5.7881,5.7881,5.7881,5.7881,5.7881,5.7881,5.7881,5.7881,5.7881,5.7881,5.7881,5.7881,5.7881,5.7881,5.7881,5.7881,5.7881,5.7881,5.7881,5.7881,5.7881,5.7881,5.7881,5.7718,5.7039,5.6547,5.5794,5.4557,5.3569,5.29,5.2738,5.232,5.1972,5.1972,5.1972,5.1727,5.1214,5.1214,5.1214,5.1214,5.1214,5.1214,5.1214,5.1214,5.1214,5.1214,5.1214,5.1214,5.1214,5.1214,5.1214,2.2408,2.3666,2.5568,2.9679,3.221,3.4241,3.6241,3.6402,3.5868,3.4976,3.4962,3.5283,3.5944,3.8172,4.1933,4.8183,4.7837,4.8241,5.2368,5.2177,5.2485,0.0,0.0,0.0,0.0,0.0,0.0,0.0,0.0,0.0,0.0,0.0,6.2805,6.2805,6.2805,6.2805,6.2805,6.2805,6.2805,6.2805,6.2805,6.2805,6.2805,6.2805,6.2805,6.2805,6.2567,6.2515,6.2446,6.14,6.0622,6.0023,5.9128,5.8441,5.7881,5.7881,5.7881,5.7881,5.7881,5.7881,5.7881,5.7881,5.7881,5.7881,5.7881,5.7881,5.7881,5.7881,5.7881,5.7881,5.7881,5.7881,5.7881,5.7881,5.7881,5.7881,5.7881,5.7881,5.7881,5.7881,5.7881,5.7881,5.7881,5.7718,5.7206,5.636,5.5777,5.4806,5.3149,5.2649,5.2139,5.1308,5.1214,5.1214,5.1214,5.1214,5.1214,5.1214,5.1214,5.1214,5.1214,5.1214,5.1214,5.1214,5.1214,5.1214,5.1214,5.1214,5.1214,5.1214,5.1214,5.1214,2.2543,2.6253,3.0143,3.1312,3.0021,2.9914,3.5446,3.5503,3.5011,3.7233,3.8344,3.8932,3.8998,4.1074,4.3222,4.4547,4.7894,5.1678,5.5536,0.0,0.0,0.0,0.0,0.0,0.0,0.0,0.0,0.0,0.0,0.0,0.0,0.0,0.0,6.2805,6.2805,6.2805,6.2805,6.2805,6.2805,6.2805,6.2805,6.2805,6.2805,6.2805,6.2805,6.2755,6.2023,6.1715,6.153,5.9925,5.9245,5.9111,5.8317,5.7954,5.7881,5.7881,5.7881,5.7881,5.7881,5.7881,5.7881,5.7881,5.7881,5.7881,5.7881,5.7881,5.7881,5.7881,5.7881,5.7881,5.7881,5.7881,5.7881,5.7881,5.7881,5.7881,5.7881,5.7881,5.7881,5.7881,5.7881,5.7881,5.7881,5.7039,5.6282,5.6204,5.4473,5.3061,5.29,5.1972,5.1308,5.1214,5.1214,5.1214,5.1214,5.1214,5.1214,5.1214,5.1214,5.1214,5.1214,5.1214,5.1214,5.1214,5.1214,5.1214,5.1214,5.1214,5.1214,5.1214,5.1214,5.1214,2.3225,2.6545,3.0047,3.1956,3.1712,3.256,3.8521,3.9804,3.9559,3.8931,4.0326,4.1489,4.0958,4.4677,4.7932,4.8221,5.1395,5.4679,0.0,0.0,0.0,0.0,0.0,0.0,0.0,0.0,0.0,0.0,0.0,0.0,0.0,0.0,0.0,6.2805,6.2805,6.2805,6.2805,6.2805,6.2805,6.2805,6.2805,6.2805,6.2805,6.2805,6.2805,6.2755,6.1951,6.1586,6.1474,5.9797,5.9111,5.8993,5.8192,5.7881,5.7881,5.7881,5.7881,5.7881,5.7881,5.7881,5.7881,5.7881,5.7881,5.7881,5.7881,5.7881,5.7881,5.7881,5.7881,5.7881,5.7881,5.7881,5.7881,5.7881,5.7881,5.7881,5.7881,5.7881,5.7881,5.7881,5.7881,5.7881,5.7881,5.6946,5.5952,5.5312,5.3897,5.2649,5.188,5.1464,5.1214,5.1214,5.1214,5.1214,5.1214,5.084,5.0616,5.0616,5.099,5.1214,5.1214,5.1214,5.1214,5.1214,5.1214,5.1214,5.1214,5.1214,5.1214,5.1214,5.1214,5.1214,2.5293,2.7942,3.0979,3.3814,3.4122,3.521,4.0916,4.1846,4.1451,4.1319,4.2678,4.3787,4.3475,4.7413,5.0606,5.0317,5.3549,5.6607,0.0,0.0,0.0,0.0,0.0,0.0,0.0,0.0,0.0,0.0,0.0,0.0,0.0,0.0,0.0,0.0,6.2805,6.2805,6.2805,6.2805,6.2805,6.2805,6.2805,6.2805,6.2805,6.2805,6.2805,6.2755,6.1659,6.1229,6.1113,5.9426,5.8755,5.8686,5.8137,5.7881,5.7881,5.7881,5.7881,5.7881,5.7881,5.7881,5.7881,5.7881,5.7881,5.7881,5.7881,5.7881,5.7881,5.7881,5.7881,5.7881,5.7881,5.7881,5.7881,5.7881,5.7881,5.7881,5.7881,5.7881,5.7881,5.7881,5.7628,5.7372,5.7372,5.6126,5.4888,5.4153,5.3077,5.2063,5.1308,5.1214,5.1214,5.1214,5.1214,5.1124,5.093,5.0496,5.0152,4.9942,5.0361,5.069,5.09,5.0915,5.0915,5.0915,5.0705,5.0601,5.0601,5.0601,5.0705,5.0915,5.0915,5.0915,2.885,3.0951,3.3731,3.7111,3.6752,3.6887,4.1935,4.0492,3.9524,4.4595,4.563,4.588,4.6743,4.899,5.0414,4.9548,5.3683,0.0,0.0,0.0,0.0,0.0,0.0,0.0,0.0,0.0,0.0,0.0,0.0,0.0,0.0,0.0,0.0,0.0,6.2805,6.2805,6.2805,6.2805,6.2805,6.2805,6.2805,6.2805,6.2805,6.2805,6.2823,6.2705,6.1073,6.0414,6.0291,5.8581,5.7881,5.7881,5.7881,5.7881,5.7881,5.7881,5.7881,5.7881,5.7881,5.7881,5.7881,5.7881,5.7881,5.7881,5.7881,5.7881,5.7881,5.7881,5.7881,5.7881,5.7881,5.7881,5.7881,5.7881,5.7881,5.7881,5.7881,5.7881,5.7881,5.7881,5.6963,5.6204,5.6204,5.4389,5.29,5.29,5.1896,5.1214,5.1214,5.1214,5.1214,5.1214,5.1214,5.0945,5.0301,5.0242,4.9957,4.9314,4.9254,4.9553,5.0212,5.0227,5.0227,5.0227,4.9583,4.9269,4.9269,4.9269,4.9598,5.0227,5.0227,5.0227,2.6792,3.0956,3.4833,3.5235,3.8104,4.1088,4.198,4.2787,4.4282,4.7603,4.6858,4.586,4.6724,4.8971,5.0625,5.0356,0.0,0.0,0.0,0.0,0.0,0.0,0.0,0.0,0.0,0.0,0.0,0.0,0.0,0.0,0.0,0.0,0.0,0.0,0.0,0.0,6.2805,6.2805,6.2805,6.2805,6.2805,6.2805,6.2805,6.2805,6.2515,6.1897,6.082,6.0023,5.9377,5.8317,5.7881,5.7881,5.7881,5.7881,5.7881,5.7881,5.7881,5.7881,5.7881,5.7881,5.7881,5.7881,5.7881,5.7881,5.7881,5.7881,5.7881,5.7881,5.7881,5.7881,5.7881,5.7881,5.7881,5.7881,5.7881,5.7881,5.7881,5.7881,5.7628,5.687,5.6454,5.5952,5.5231,5.3913,5.29,5.29,5.1896,5.1214,5.1214,5.1214,5.1214,5.1214,5.1214,5.1139,5.0945,5.0077,4.9479,4.9284,4.8835,4.888,4.9523,4.9553,4.9553,4.9553,4.9359,4.9269,4.9269,4.9269,4.9359,4.9553,4.9553,4.9553,3.1634,3.4546,3.6648,3.9528,4.1925,4.3881,4.5073,4.5725,4.6837,4.9392,4.8683,4.7799,4.8298,5.0491,0.0,0.0,0.0,0.0,0.0,0.0,0.0,0.0,0.0,0.0,0.0,0.0,0.0,0.0,0.0,0.0,0.0,0.0,0.0,0.0,0.0,0.0,6.2805,6.2805,6.2805,6.2805,6.2805,6.2805,6.2805,6.2805,6.2376,6.153,6.0379,5.9377,5.8564,5.8065,5.7881,5.7881,5.7881,5.7881,5.7881,5.7881,5.7881,5.7881,5.7881,5.7881,5.7881,5.7881,5.7881,5.7881,5.7881,5.7881,5.7881,5.7881,5.7881,5.7881,5.7881,5.7881,5.7881,5.7881,5.7881,5.7881,5.7881,5.7537,5.7039,5.636,5.5458,5.4723,5.4084,5.2989,5.223,5.223,5.1635,5.1214,5.1214,5.1214,5.1124,5.0855,5.0825,5.0616,5.0092,4.9329,4.876,4.8506,4.8117,4.8072,4.8476,4.8745,4.888,4.888,4.8626,4.8491,4.8491,4.8491,4.8626,4.888,4.888,4.888,3.9481,3.9611,3.8942,4.6844,4.6775,4.5855,4.9986,4.9067,4.7991,5.024,5.0837,5.0914,5.0818,5.278,0.0,0.0,0.0,0.0,0.0,0.0,0.0,0.0,0.0,0.0,0.0,0.0,0.0,0.0,0.0,0.0,0.0,0.0,0.0,0.0,0.0,0.0,6.2805,6.2805,6.2805,0.0,6.2805,6.2805,6.2805,6.2805,6.2324,6.1418,5.9733,5.8564,5.7881,5.7881,5.7881,5.7881,5.7881,5.7881,5.7881,5.7881,5.7881,5.7881,5.7881,5.7881,5.7881,5.7881,5.7881,5.7881,5.7881,5.7881,5.7881,5.7881,5.7881,5.7881,5.7881,5.7881,5.7881,5.7881,5.7881,5.7881,5.7792,5.6946,5.6126,5.5952,5.4305,5.2916,5.2723,5.1896,5.1199,5.1139,5.1124,5.1109,5.105,5.105,5.081,5.0212,5.0152,4.9673,4.8476,4.8327,4.8027,4.7429,4.7339,4.7309,4.7309,4.7878,4.8192,4.8192,4.7608,4.7309,4.7309,4.7309,4.7608,4.8192,4.8192,4.8192,3.2998,3.6856,4.044,4.3669,4.6377,4.9067,5.2009,5.1722,5.0818,5.0721,5.1742,5.2454,5.1778,0.0,0.0,0.0,0.0,0.0,0.0,0.0,0.0,0.0,0.0,0.0,0.0,0.0,0.0,0.0,0.0,0.0,0.0,0.0,0.0,0.0,0.0,6.2805,6.2805,6.2805,6.2805,0.0,6.2805,6.2805,6.2805,6.2805,6.2041,6.058,5.8892,5.8082,5.7881,5.7881,5.7881,5.7881,5.7881,5.7881,5.7881,5.7881,5.7881,5.7881,5.7881,5.7881,5.7881,5.7881,5.7881,5.7881,5.7881,5.7881,5.7881,5.7881,5.7881,5.7881,5.7881,5.7881,5.7881,5.7881,5.7881,5.7628,5.6778,5.636,5.5714,5.3983,5.3237,5.2649,5.1727,5.1386,5.105,5.0526,5.0451,5.0257,4.9748,4.9688,4.9628,4.9494,4.9479,4.9359,4.9075,4.8581,4.8222,4.8087,4.7593,4.7309,4.7309,4.7444,4.7519,4.7519,4.7369,4.7309,4.7309,4.7309,4.7369,4.7519,4.7519,4.7519,3.5032,3.7616,3.9299,4.4268,4.8375,5.1452,5.237,5.3161,5.3377,5.2144,5.2588,5.307,0.0,0.0,0.0,0.0,0.0,0.0,0.0,0.0,0.0,0.0,0.0,0.0,0.0,0.0,0.0,0.0,0.0,0.0,0.0,0.0,0.0,0.0,6.2805,6.2805,6.2805,6.2805,6.2805,6.2805,6.2805,6.2585,6.22,6.1842,6.0997,5.9704,5.8458,5.7881,5.7881,5.7881,5.7881,5.7881,5.7881,5.7881,5.7881,5.7881,5.7881,5.7881,5.7881,5.7881,5.7881,5.7881,5.7881,5.7881,5.7881,5.7881,5.7881,5.7881,5.7881,5.7881,5.7881,5.7881,5.7792,5.7222,5.7463,5.7554,5.6454,5.5794,5.4888,5.3237,5.2485,5.1896,5.1308,5.1214,5.1109,5.0765,5.0705,5.0586,5.0242,4.9927,4.9613,4.9299,4.8985,4.8671,4.8356,4.8012,4.7818,4.7818,4.7489,4.7309,4.7309,4.7309,4.7309,4.7309,4.7309,4.7309,4.7309,4.7309,4.7309,4.7309,4.7309,4.7309,3.7766,3.8903,3.8628,4.6206,5.0548,5.282,5.2254,5.3988,5.5318,5.393,5.3626,0.0,0.0,0.0,0.0,0.0,0.0,0.0,0.0,0.0,0.0,0.0,0.0,0.0,0.0,0.0,0.0,0.0,0.0,0.0,0.0,0.0,6.1832,6.2787,6.2805,6.2805,6.2805,6.2805,6.2805,6.2805,6.2805,6.2324,6.1361,6.07,5.9896,5.9061,5.8263,5.7881,5.7881,5.7881,5.7881,5.7881,5.7881,5.7881,5.7881,5.7881,5.7881,5.7881,5.7881,5.7881,5.7881,5.7881,5.7881,5.7881,5.7881,5.7881,5.7881,5.7881,5.7881,5.7881,5.7628,5.7628,5.7297,5.6204,5.6624,5.7055,5.5873,5.4888,5.3999,5.2827,5.1713,5.1005,5.09,5.0885,5.084,5.0735,5.072,5.0676,5.0556,5.0062,4.9523,4.8985,4.8446,4.7893,4.7354,4.7309,4.7309,4.7309,4.7309,4.7309,4.7309,4.7309,4.7309,4.7309,4.7309,4.7309,4.7309,4.7309,4.7309,4.7309,4.7309,4.7309,3.1205,3.6983,4.304,4.7089,5.0086,5.2242,5.2871,5.441,5.5645,0.0,0.0,0.0,0.0,0.0,0.0,0.0,0.0,0.0,0.0,0.0,0.0,0.0,0.0,0.0,0.0,0.0,0.0,0.0,0.0,0.0,0.0,6.0511,6.1263,6.2768,6.2805,6.2805,6.2805,6.2805,6.2805,6.2805,6.2805,6.2023,6.0537,6.0476,5.9896,5.9061,5.8263,5.7881,5.7881,5.7881,5.7881,5.7881,5.7881,5.7881,5.7881,5.7881,5.7881,5.7881,5.7881,5.7881,5.7881,5.7881,5.7881,5.7881,5.7881,5.7881,5.7881,5.7881,5.7881,5.7628,5.6701,5.6454,5.6126,5.5068,5.492,5.4739,5.3569,5.3237,5.2827,5.1635,5.0843,5.0197,4.9628,4.9523,4.9329,4.876,4.8671,4.8476,4.7908,4.7743,4.7668,4.7578,4.7489,4.7399,4.7309,4.7309,4.7309,4.7309,4.7309,4.7309,4.7309,4.7309,4.7309,4.7309,4.7309,4.7309,4.7309,4.7309,4.7309,4.7309,4.7309,4.7309,3.1514,3.807,4.4014,4.7874,5.0048,5.1568,5.289,5.3755,5.4586,5.5511,0.0,0.0,0.0,0.0,0.0,0.0,0.0,0.0,0.0,0.0,0.0,0.0,0.0,0.0,0.0,0.0,0.0,0.0,0.0,0.0,5.9685,6.0162,6.0933,6.2089,6.2567,6.2805,6.2805,6.2805,6.2805,6.2805,6.2324,6.1548,6.0414,5.9896,5.9195,5.837,5.8082,5.7881,5.7881,5.7881,5.7881,5.7881,5.7881,5.7881,5.7881,5.7881,5.7881,5.7881,5.7881,5.7881,5.7881,5.7881,5.7881,5.7881,5.7881,5.7463,5.6963,5.6963,5.6963,5.687,5.636,5.6204,5.5952,5.4838,5.4084,5.3324,5.223,5.2485,5.2452,5.0906,5.0137,4.9598,4.9314,4.9269,4.9164,4.888,4.8835,4.873,4.8446,4.8072,4.7863,4.7863,4.7519,4.7309,4.7309,4.7309,4.7309,4.7309,4.7309,4.7309,4.7309,4.7309,4.7309,4.7309,4.7309,4.7309,4.7309,4.7309,4.7309,4.7309,4.7309,4.7309,3.1455,3.6959,4.1358,4.6238,4.8451,4.9951,5.2085,5.3063,5.3891,0.0,0.0,0.0,0.0,0.0,0.0,0.0,0.0,0.0,0.0,0.0,0.0,0.0,0.0,0.0,0.0,0.0,0.0,0.0,0.0,0.0,5.9171,5.9777,6.0566,6.1557,6.2181,6.2603,6.2805,6.2805,6.2805,6.2805,6.22,6.1361,6.0353,5.9704,5.8875,5.7881,5.7881,5.7881,5.7881,5.7881,5.7881,5.7881,5.7881,5.7881,5.7881,5.7881,5.7881,5.7881,5.7881,5.7881,5.7881,5.7881,5.7881,5.7881,5.7881,5.7114,5.6204,5.6204,5.6031,5.5714,5.5458,5.5377,5.5052,5.3999,5.2937,5.197,5.1131,5.1638,5.1725,5.0065,4.9344,4.8955,4.879,4.876,4.876,4.876,4.876,4.876,4.876,4.8341,4.8042,4.8042,4.7593,4.7309,4.7309,4.7309,4.7309,4.7309,4.7309,4.7309,4.7309,4.7309,4.7309,4.7309,4.7309,4.7309,4.7309,4.7309,4.7309,4.7309,4.7309,4.7309,2.7981,3.0839,3.3904,4.0535,4.4057,4.6743,5.0067,5.2701,5.4472,0.0,0.0,0.0,0.0,0.0,0.0,0.0,0.0,0.0,0.0,0.0,0.0,0.0,0.0,0.0,0.0,0.0,0.0,0.0,0.0,0.0,5.9171,5.9263,5.9997,6.1539,6.163,6.2034,6.2805,6.2805,6.2805,6.2805,6.2755,6.1915,6.0414,6.0353,5.946,5.7881,5.7881,5.7881,5.7881,5.7881,5.7881,5.7881,5.7881,5.7881,5.7881,5.7881,5.7881,5.7881,5.7881,5.7881,5.7881,5.7881,5.7881,5.7881,5.7881,5.7114,5.6204,5.6204,5.5474,5.4405,5.3309,5.3061,5.2827,5.1635,5.0828,5.0272,5.0287,5.0287,5.0004,4.8641,4.8356,4.8132,4.7519,4.7399,4.7399,4.7399,4.7399,4.7399,4.7399,4.7369,4.7354,4.7354,4.7324,4.7309,4.7309,4.7309,4.7309,4.7309,4.7309,4.7309,4.7309,4.7309,4.7309,4.7309,4.7309,4.7309,4.7309,4.7309,4.7309,4.7309,4.7309,4.7309,2.6953,2.9173,3.1667,3.8497,4.1681,4.4057,4.7473,4.9797,5.1855,0.0,0.0,0.0,0.0,0.0,0.0,0.0,0.0,0.0,0.0,0.0,0.0,0.0,0.0,0.0,0.0,0.0,0.0,0.0,0.0,0.0,5.8419,5.8933,5.9483,6.0052,6.0566,6.097,6.1263,6.1263,6.152,6.2034,6.1506,6.095,6.0353,5.9832,5.8943,5.7881,5.7881,5.7881,5.7881,5.7881,5.7881,5.7881,5.7881,5.7881,5.7881,5.7881,5.7881,5.7881,5.7881,5.7881,5.7881,5.7881,5.7881,5.7881,5.7881,5.6641,5.515,5.515,5.4086,5.2848,5.2865,5.2575,5.2109,5.1374,5.072,5.0122,4.9703,4.9613,4.9344,4.8461,4.7938,4.7578,4.7339,4.7309,4.7309,4.7309,4.7309,4.7309,4.7309,4.7309,4.7309,4.7309,4.7309,4.7309,4.7309,4.7309,4.7309,4.7309,4.7309,4.7309,4.7309,4.7309,4.7309,4.7309,4.7309,4.7309,4.7309,4.7309,4.7309,4.7309,4.7309,4.7309,2.4691,2.6571,2.8859,3.4823,3.7783,4.0364,4.4651,4.7146,4.9451,0.0,0.0,0.0,0.0,0.0,0.0,0.0,0.0,0.0,0.0,0.0,0.0,0.0,0.0,0.0,0.0,0.0,0.0,0.0,0.0,0.0,5.7997,5.851,5.8933,5.9208,5.9722,6.0144,6.0401,6.0401,6.0805,6.1594,6.1069,6.0662,6.0353,5.9832,5.8943,5.7881,5.7881,5.7881,5.7881,5.7881,5.7881,5.7881,5.7881,5.7881,5.7881,5.7881,5.7881,5.7881,5.7881,5.7881,5.7881,5.7881,5.7881,5.7808,5.7463,5.6064,5.4457,5.3883,5.2566,5.1356,5.1585,5.1478,5.1254,5.0951,5.0556,5.0002,4.9119,4.894,4.8745,4.8087,4.7593,4.7309,4.7309,4.7309,4.7309,4.7309,4.7309,4.7309,4.7309,4.7309,4.7309,4.7309,4.7309,4.7309,4.7309,4.7309,4.7309,4.7309,4.7309,4.7309,4.7309,4.7309,4.7309,4.7309,4.7309,4.7309,4.7309,4.7309,4.7309,4.7309,4.7309,4.7309,0.0,0.0,0.0,2.9207,3.2199,3.5663,4.1514,4.49,4.753,0.0,0.0,0.0,0.0,0.0,0.0,0.0,0.0,0.0,0.0,0.0,0.0,0.0,0.0,0.0,0.0,0.0,0.0,0.0,0.0,5.7923,5.7923,5.7941,5.8327,5.9116,5.9189,5.9575,6.0364,6.0401,6.0805,6.1575,6.1575,6.1135,6.0353,6.0353,5.946,5.7881,5.7881,5.7881,5.7881,5.7881,5.7881,5.7881,5.7881,5.7881,5.7881,5.7881,5.7881,5.7881,5.7881,5.7881,5.7881,5.7881,5.7881,5.7628,5.6547,5.5377,5.4162,5.241,5.1027,5.0032,4.9404,4.9718,5.0212,5.0212,5.0197,4.9838,4.8566,4.8267,4.8072,4.7429,4.7309,4.7309,4.7309,4.7309,4.7309,4.7309,4.7309,4.7309,4.7309,4.7309,4.7309,4.7309,4.7309,4.7309,4.7309,4.7309,4.7309,4.7309,4.7309,4.7309,4.7309,4.7309,4.7309,4.7309,4.7309,4.7309,4.7309,4.7309,4.7309,4.7309,4.7309,4.7309,2.0339,0.0,0.0,0.0,0.0,0.0,0.0,0.0,0.0,0.0,0.0,0.0,0.0,0.0,0.0,0.0,0.0,0.0,0.0,0.0,0.0,0.0,0.0,0.0,0.0,0.0,0.0,0.0,5.6583,5.6253,5.6253,5.6822,5.7244,5.7464,5.8602,5.9318,5.9538,6.0126,6.0523,6.0719,6.0719,6.0286,5.9443,5.9443,5.8875,5.7881,5.7881,5.7881,5.7881,5.7881,5.7881,5.7881,5.7881,5.7881,5.7881,5.7881,5.7881,5.7881,5.7881,5.7881,5.7881,5.7881,5.7372,5.6624,5.6282,5.4534,5.2543,5.2027,5.0461,4.879,4.8596,4.9045,4.9538,4.9538,4.9164,4.873,4.8371,4.7923,4.7519,4.7339,4.7309,4.7309,4.7309,4.7309,4.7309,4.7309,4.7309,4.7309,4.7309,4.7309,4.7309,4.7309,4.7309,4.7309,4.7309,4.7309,4.7309,4.7309,4.7309,4.7309,4.7309,4.7309,4.7309,4.7309,4.7309,4.7309,4.7309,4.7309,4.7309,4.7309,4.7309,4.7309,2.0169,2.1259,2.2662,2.4361,0.0,0.0,3.4747,3.9119,0.0,0.0,0.0,0.0,0.0,0.0,0.0,0.0,0.0,0.0,0.0,0.0,0.0,0.0,0.0,0.0,0.0,0.0,0.0,0.0,5.5849,5.5592,5.5592,5.5721,5.5959,5.629,5.7207,5.8033,5.8694,5.9158,5.9735,6.0376,6.008,5.9618,5.9111,5.9111,5.8686,5.7881,5.7881,5.7881,5.7881,5.7881,5.7881,5.7881,5.7881,5.7881,5.7881,5.7881,5.7881,5.7881,5.7881,5.7881,5.7881,5.7881,5.7131,5.6126,5.5634,5.4035,5.2116,5.1138,4.9367,4.7938,4.8222,4.8566,4.8925,4.9194,4.876,4.8282,4.8282,4.7773,4.7309,4.7309,4.7309,4.7309,4.7309,4.7309,4.7309,4.7309,4.7309,4.7309,4.7309,4.7309,4.7309,4.7309,4.7309,4.7309,4.7309,4.7309,4.7309,4.7309,4.7309,4.7309,4.7309,4.7309,4.7309,4.7309,4.7309,4.7309,4.7309,4.7309,4.7309,4.7309,4.7309,4.7309,2.057,2.0962,2.1875,2.3419,2.4563,0.0,3.4847,3.7641,4.0298,0.0,0.0,0.0,0.0,0.0,0.0,0.0,0.0,0.0,0.0,0.0,0.0,0.0,0.0,0.0,0.0,0.0,5.5354,5.5445,5.5372,5.5317,5.5317,5.473,5.4766,5.5556,5.5757,5.6602,5.8125,5.8232,5.8916,6.0248,5.9467,5.9015,5.8993,5.8907,5.8478,5.7881,5.7881,5.7881,5.7881,5.7881,5.7881,5.7881,5.7881,5.7881,5.7881,5.7881,5.7881,5.7881,5.7881,5.7831,5.7763,5.7673,5.6779,5.5548,5.4498,5.3373,5.1975,4.9718,4.8207,4.7444,4.8027,4.8177,4.8327,4.891,4.8596,4.8177,4.8177,4.7713,4.7309,4.7309,4.7309,4.7309,4.7309,4.7309,4.7309,4.7309,4.7309,4.7309,4.7309,4.7309,4.7309,4.7309,4.7309,4.7309,4.7309,4.7309,4.7309,4.7309,4.7309,4.7309,4.7309,4.7309,4.7309,4.7309,4.7309,4.7309,4.7309,4.7309,4.7309,4.7309,4.7309,4.7309,2.2227,2.1382,2.1575,2.1925,2.3667,0.0,2.7402,3.1078,3.4508,0.0,0.0,0.0,0.0,0.0,0.0,0.0,0.0,0.0,0.0,0.0,0.0,0.0,0.0,0.0,0.0,0.0,5.394,5.4583,5.4032,5.3683,5.3683,5.4124,5.4766,5.5556,5.6859,5.7997,5.8969,5.9611,5.9757,5.9408,5.8612,5.8218,5.8103,5.7525,5.7522,5.7881,5.7881,5.7881,5.7881,5.7881,5.7881,5.7881,5.7881,5.7881,5.7881,5.7881,5.7881,5.7881,5.7881,5.7509,5.6858,5.6038,5.4645,5.3022,5.1973,5.0472,4.9025,4.7995,4.7504,4.7339,4.7459,4.7504,4.7534,4.7653,4.7593,4.7504,4.7504,4.7399,4.7309,4.7309,4.7309,4.7309,4.7309,4.7309,4.7309,4.7309,4.7309,4.7309,4.7309,4.7309,4.7309,4.7309,4.7309,4.7309,4.7309,4.7309,4.7309,4.7309,4.7309,4.7309,4.7309,4.7309,4.7309,4.7309,4.7309,4.7309,4.7309,4.7309,4.7309,4.7309,4.7309,4.7309,2.3342,2.1833,2.1594,2.2034,2.3105,0.0,0.0,3.0157,3.29,3.5004,0.0,0.0,0.0,0.0,0.0,0.0,0.0,0.0,0.0,0.0,0.0,0.0,0.0,0.0,0.0,0.0,5.2766,5.317,5.2839,5.2601,5.2601,5.3371,5.4179,5.4968,5.5776,5.6987,5.8602,5.8195,5.8427,5.9186,5.7953,5.7547,5.7881,5.7509,5.7543,5.7881,5.7881,5.7881,5.7881,5.7881,5.7881,5.7881,5.7881,5.7881,5.7881,5.7881,5.7881,5.7831,5.7476,5.7103,5.6571,5.5148,5.373,5.2316,5.1246,4.9652,4.8222,4.7878,4.7563,4.7309,4.7309,4.7309,4.7309,4.7309,4.7309,4.7309,4.7309,4.7309,4.7309,4.7309,4.7309,4.7309,4.7309,4.7309,4.7309,4.7309,4.7309,4.7309,4.7309,4.7309,4.7309,4.7309,4.7309,4.7309,4.7309,4.7309,4.7309,4.7309,4.7309,4.7309,4.7309,4.7309,4.7309,4.7309,4.7309,4.7309,4.7309,4.7309,4.7309,4.7309,4.7309,4.7309,2.4711,2.2654,2.2125,2.2659,2.2925,2.4122,0.0,0.0,0.0,0.0,0.0,0.0,0.0,0.0,0.0,0.0,0.0,0.0,0.0,0.0,0.0,0.0,0.0,0.0,0.0,0.0,5.1353,5.1518,5.1371,5.1499,5.1958,5.2619,5.3408,5.4363,5.4546,5.5647,5.7758,5.6474,5.6834,5.8726,5.7243,5.6968,5.7679,5.7679,5.7763,5.7881,5.7881,5.7881,5.7881,5.7881,5.7881,5.7881,5.7881,5.7881,5.7881,5.7881,5.7881,5.778,5.7053,5.6714,5.6229,5.4262,5.2663,5.1351,5.0452,4.9205,4.8102,4.8102,4.7713,4.7309,4.7309,4.7309,4.7309,4.7309,4.7309,4.7309,4.7309,4.7309,4.7309,4.7309,4.7309,4.7309,4.7309,4.7309,4.7309,4.7309,4.7309,4.7309,4.7309,4.7309,4.7309,4.7309,4.7309,4.7309,4.7309,4.7309,4.7309,4.7309,4.7309,4.7309,4.7309,4.7309,4.7309,4.7309,4.7309,4.7309,4.7309,4.7309,4.7309,4.7309,4.7309,4.7309,2.7345,2.4466,2.364,2.2978,2.3377,2.4102,2.4678,0.0,2.5509,2.748,0.0,0.0,0.0,0.0,0.0,0.0,0.0,0.0,0.0,0.0,0.0,0.0,0.0,0.0,0.0,0.0,0.0,4.9793,4.915,4.9682,5.1867,5.2087,5.2821,5.4344,5.5078,5.5941,5.6932,5.6833,5.6869,5.7135,5.623,5.6224,5.6917,5.6917,5.7273,5.7881,5.7881,5.7881,5.7881,5.7881,5.7881,5.7881,5.7881,5.7881,5.7881,5.7881,5.7881,5.778,5.7053,5.6376,5.54,5.2644,5.0031,4.7835,4.7763,4.7546,4.7414,4.7414,4.7369,4.7309,4.7309,4.7309,4.7309,4.7309,4.7309,4.7309,4.7309,4.7309,4.7309,4.7309,4.7309,4.7309,4.7309,4.7309,4.7309,4.7309,4.7309,4.7309,4.7309,4.7309,4.7309,4.7309,4.7309,4.7309,4.7309,4.7309,4.7309,4.7309,4.7309,4.7309,4.7309,4.7309,4.7309,4.7309,4.7309,4.7309,4.7309,4.7309,4.7309,4.7309,4.7309,4.7309,2.8743,2.8056,2.8464,2.5081,2.6399,2.773,2.4764,2.4091,2.4301,2.4992,0.0,0.0,0.0,0.0,0.0,0.0,2.9467,0.0,0.0,0.0,0.0,0.0,0.0,0.0,0.0,0.0,0.0,0.0,0.0,5.0894,5.194,5.1995,5.2729,5.4344,5.473,5.55,5.6804,5.5954,5.572,5.618,5.5836,5.5869,5.6207,5.7053,5.7594,5.7881,5.7881,5.7881,5.7881,5.7881,5.7881,5.7848,5.7425,5.7509,5.7831,5.7408,5.7256,5.7103,5.5919,5.5327,5.4626,5.1761,4.9237,4.7309,4.7309,4.7309,4.7309,4.7309,4.7309,4.7309,4.7309,4.7309,4.7309,4.7309,4.7309,4.7309,4.7309,4.7309,4.7309,4.7309,4.7309,4.7309,4.7309,4.7309,4.7309,4.7309,4.7309,4.7309,4.7309,4.7309,4.7309,4.7309,4.7309,4.7309,4.7309,4.7309,4.7309,4.7309,4.7309,4.7309,4.7309,4.7309,4.7309,4.7309,4.7309,4.7309,4.7309,4.7309,4.7309,4.7309,4.7309,4.7309,3.1397,3.1516,3.2141,2.7236,2.8357,2.9622,2.5678,2.4591,2.4428,2.4428,2.3752,0.0,0.0,0.0,2.4418,2.5408,0.0,2.8606,0.0,0.0,0.0,0.0,0.0,0.0,0.0,0.0,0.0,0.0,0.0,0.0,5.1334,5.1756,5.2527,5.3702,5.4161,5.5078,5.6455,5.5183,5.4783,5.5405,5.5372,5.5412,5.5463,5.6934,5.7695,5.7881,5.7881,5.7881,5.7881,5.7881,5.7763,5.7543,5.7002,5.7002,5.7222,5.6697,5.6511,5.6325,5.504,5.4068,5.3097,5.1032,4.9019,4.7309,4.7309,4.7309,4.7309,4.7309,4.7309,4.7309,4.7309,4.7309,4.7309,4.7309,4.7309,4.7309,4.7309,4.7309,4.7309,4.7309,4.7309,4.7309,4.7309,4.7309,4.7309,4.7309,4.7309,4.7309,4.7309,4.7309,4.7309,4.7309,4.7309,4.7309,4.7309,4.7309,4.7309,4.7309,4.7309,4.7309,4.7309,4.7309,4.7309,4.7309,4.7309,4.7309,4.7309,4.7309,4.7309,4.7309,4.7309,4.7309,0.0,0.0,0.0,2.8894,0.0,0.0,2.6757,2.5861,2.5255,2.5255,2.4617,2.4295,2.5111,2.4636,2.3848,2.3052,2.3015,0.0,0.0,0.0,0.0,0.0,0.0,0.0,0.0,0.0,0.0,0.0,0.0,0.0,4.9664,5.1132,5.2013,5.2068,5.3592,5.4803,5.5611,5.4862,5.4517,5.4646,5.4647,5.4634,5.4685,5.6156,5.7222,5.7881,5.7881,5.7881,5.7881,5.7881,5.7476,5.6833,5.6816,5.6393,5.5784,5.575,5.575,5.5649,5.4854,5.2798,5.0506,5.0413,4.9019,4.7309,4.7309,4.7309,4.7309,4.7309,4.7309,4.7309,4.7309,4.7309,4.7309,4.7309,4.7309,4.7309,4.7309,4.7309,4.7309,4.7309,4.7309,4.7309,4.7309,4.7309,4.7309,4.7309,4.7309,4.7309,4.7309,4.7309,4.7309,4.7309,4.7309,4.7309,4.7309,4.7309,4.7309,4.7309,4.7309,4.7309,4.7309,4.7309,4.7309,4.7309,4.7309,4.7309,4.7309,4.7309,4.7309,4.7309,4.7309,4.7309,0.0,0.0,4.0365,3.3825,0.0,0.0,0.0,0.0,2.616,2.616,2.5062,2.4168,2.4455,2.3812,2.3139,2.2852,2.2797,2.2791,0.0,0.0,0.0,0.0,0.0,0.0,0.0,0.0,0.0,0.0,0.0,0.0,0.0,5.1408,5.1995,5.1995,5.3555,5.4528,5.4803,5.4627,5.4042,5.3051,5.365,5.3585,5.3145,5.5158,5.6478,5.7205,5.7679,5.7881,5.7848,5.7357,5.7019,5.6697,5.5716,5.5192,5.4972,5.4972,5.4972,5.4871,5.4126,5.2757,5.1303,5.0627,4.9472,4.8141,4.7538,4.7309,4.7309,4.7309,4.7309,4.7309,4.7309,4.7309,4.7309,4.7309,4.7309,4.7309,4.7309,4.7309,4.7309,4.7309,4.7309,4.7309,4.7309,4.7309,4.7309,4.7309,4.7309,4.7309,4.7309,4.7309,4.7309,4.7309,4.7309,4.7309,4.7309,4.7309,4.7309,4.7309,4.7309,4.7309,4.7309,4.7309,4.7309,4.7309,4.7309,4.7309,4.7309,4.7309,4.7309,4.7309,4.7309,4.7309,4.4715,4.521,0.0,3.826,3.799,0.0,3.153,0.0,2.8846,2.8844,2.7031,2.6283,2.9004,2.6323,2.4197,2.5732,2.3929,2.2246,0.0,2.2485,0.0,0.0,0.0,0.0,0.0,0.0,0.0,0.0,0.0,0.0,0.0,0.0,5.172,5.1977,5.2999,5.3701,5.3999,5.3774,5.3082,5.1929,5.2432,5.2706,5.279,5.4262,5.575,5.7205,5.7391,5.7509,5.7487,5.7014,5.6491,5.5953,5.4989,5.4448,5.4211,5.4211,5.4211,5.4143,5.367,5.28,5.176,5.1155,5.0227,4.915,4.8157,4.7834,4.781,4.7665,4.7489,4.7354,4.7593,4.7474,4.7309,4.7309,4.7309,4.7309,4.7309,4.7309,4.7309,4.7309,4.7309,4.7309,4.7309,4.7309,4.7309,4.7309,4.7309,4.7309,4.7309,4.7309,4.7309,4.7309,4.7309,4.7309,4.7309,4.7309,4.7309,4.7309,4.7309,4.7309,4.7309,4.7309,4.7369,4.7677,4.7456,4.7456,4.7692,4.7456,4.7309,4.7309,4.7309,4.7309]},{"header":{"parameterUnit":"m.s-1","parameterCategory":1,"la1":30.6,"la2":29.2853,"lo1":-89.7004,"lo2":-87.6739,"dx":0.0162,"dy":0.0183,"nx":112,"ny":82,"refTime":"2022-11-24T18:00:00:Z","depth":0,"parameterNumber":3,"parameterNumberName":"V-component_of_WINDS"},"data":[0.0,0.0,0.0,0.0,0.0,0.0,0.0,0.0,0.0,0.0,0.0,0.0,0.0,0.0,0.0,0.0,0.0,0.0,0.0,0.0,0.0,0.0,0.0,0.0,0.0,0.0,0.0,0.0,0.0,0.0,0.0,0.0,0.0,0.0,0.0,0.0,0.0,0.0,0.0,0.0,0.0,0.0,0.0,0.0,0.0,0.0,0.0,0.0,0.0,0.0,0.0,0.0,0.0,0.0,0.0,0.0,0.0,0.0,0.0,0.0,0.0,0.0,0.0,0.0,0.0,0.0,0.0,0.0,0.0,0.0,0.0,0.0,0.0,0.0,0.0,0.0,0.0,0.0,0.0,0.0,0.0,0.0,0.0,0.0,0.0,0.0,0.0,0.0,0.0,0.0,-1.2044,-1.2728,-1.4609,-1.5631,-1.5137,-1.5017,-1.3848,-1.1223,0.0,0.0,0.0,0.0,0.0,0.0,0.0,0.0,0.0,0.0,0.0,0.0,0.0,0.0,0.0,0.0,0.0,0.0,0.0,0.0,0.0,0.0,0.0,0.0,0.0,0.0,0.0,0.0,0.0,0.0,0.0,0.0,0.0,0.0,0.0,0.0,0.0,0.0,0.0,0.0,0.0,0.0,0.0,0.0,0.0,0.0,0.0,0.0,0.0,0.0,0.0,0.0,0.0,0.0,0.0,0.0,0.0,0.0,0.0,0.0,0.0,0.0,0.0,0.0,0.0,0.0,0.0,0.0,0.0,0.0,0.0,0.0,0.0,0.0,0.0,0.0,0.0,0.0,0.0,0.0,0.0,0.0,0.0,0.0,0.0,0.0,0.0,0.0,0.0,0.0,0.0,0.0,0.0,0.0,0.0,0.0,0.0,0.0,0.0,0.0,0.0,0.0,0.0,0.0,-1.2621,-1.473,-1.5464,-1.5792,-1.5705,-1.5244,-1.3935,-1.151,0.0,0.0,0.0,0.0,0.0,0.0,0.0,0.0,0.0,0.0,0.0,0.0,0.0,0.0,0.0,0.0,0.0,0.0,0.0,0.0,0.0,0.0,0.0,0.0,0.0,0.0,0.0,0.0,0.0,0.0,0.0,0.0,0.0,0.0,0.0,0.0,0.0,0.0,0.0,0.0,0.0,0.0,0.0,0.0,0.0,0.0,0.0,0.0,0.0,0.0,0.0,0.0,0.0,0.0,0.0,0.0,0.0,0.0,0.0,0.0,0.0,0.0,0.0,0.0,0.0,0.0,0.0,0.0,0.0,0.0,0.0,0.0,0.0,0.0,0.0,0.0,0.0,0.0,0.0,0.0,0.0,0.0,0.0,0.0,0.0,0.0,0.0,0.0,0.0,0.0,0.0,0.0,0.0,0.0,0.0,0.0,0.0,0.0,0.0,0.0,0.0,0.0,0.0,-1.1794,-1.2941,-1.513,-1.5658,-1.5765,-1.5611,-1.5204,-1.3948,-1.1577,-1.1381,0.0,0.0,0.0,0.0,0.0,0.0,0.0,0.0,0.0,0.0,0.0,0.0,0.0,0.0,0.0,0.0,0.0,0.0,0.0,0.0,0.0,0.0,0.0,0.0,0.0,0.0,0.0,0.0,0.0,0.0,0.0,0.0,0.0,0.0,0.0,0.0,0.0,0.0,0.0,0.0,0.0,0.0,0.0,0.0,0.0,0.0,0.0,0.0,0.0,0.0,0.0,0.0,0.0,0.0,0.0,0.0,0.0,0.0,0.0,0.0,0.0,0.0,0.0,0.0,0.0,0.0,0.0,0.0,0.0,0.0,0.0,0.0,0.0,0.0,0.0,0.0,0.0,0.0,0.0,0.0,0.0,0.0,0.0,0.0,0.0,0.0,0.0,0.0,0.0,0.0,0.0,0.0,0.0,0.0,0.0,0.0,0.0,0.0,0.0,0.0,0.0,0.0,-1.2492,-1.3587,-1.5317,-1.5698,-1.5738,-1.5518,-1.5237,-1.4028,-1.1577,-1.1451,0.0,0.0,0.0,0.0,0.0,0.0,0.0,0.0,0.0,0.0,0.0,0.0,0.0,0.0,0.0,0.0,0.0,0.0,0.0,0.0,0.0,0.0,0.0,0.0,0.0,0.0,0.0,0.0,0.0,0.0,0.0,0.0,0.0,0.0,0.0,0.0,0.0,0.0,0.0,0.0,0.0,0.0,0.0,0.0,0.0,0.0,0.0,0.0,0.0,0.0,0.0,0.0,0.0,0.0,0.0,0.0,0.0,0.0,0.0,0.0,0.0,0.0,0.0,0.0,0.0,0.0,0.0,0.0,0.0,0.0,0.0,0.0,0.0,0.0,0.0,0.0,0.0,0.0,0.0,0.0,0.0,0.0,0.0,0.0,0.0,0.0,0.0,0.0,0.0,0.0,0.0,0.0,0.0,0.0,0.0,0.0,0.0,0.0,0.0,0.0,0.0,0.0,-1.3567,-1.5037,-1.5725,-1.5818,-1.5818,-1.5798,-1.5531,-1.4242,-1.159,-1.1647,0.0,0.0,0.0,0.0,0.0,0.0,0.0,0.0,0.0,0.0,0.0,0.0,0.0,0.0,0.0,0.0,0.0,0.0,0.0,0.0,0.0,0.0,0.0,0.0,0.0,0.0,0.0,0.0,0.0,0.0,0.0,0.0,0.0,0.0,0.0,0.0,0.0,0.0,0.0,0.0,0.0,0.0,0.0,0.0,0.0,0.0,0.0,0.0,0.0,0.0,0.0,0.0,0.0,0.0,0.0,0.0,0.0,0.0,0.0,0.0,0.0,0.0,0.0,0.0,0.0,0.0,0.0,0.0,0.0,0.0,0.0,0.0,0.0,0.0,0.0,0.0,0.0,0.0,0.0,0.0,0.0,0.0,0.0,0.0,0.0,0.0,0.0,0.0,0.0,0.0,0.0,0.0,0.0,0.0,0.0,0.0,0.0,0.0,0.0,0.0,0.0,0.0,-1.3313,-1.4576,0.0,-1.5832,-1.5832,-1.5832,-1.5565,-1.4342,-1.1857,0.0,0.0,0.0,0.0,0.0,0.0,0.0,0.0,0.0,0.0,0.0,0.0,0.0,0.0,0.0,0.0,0.0,0.0,0.0,0.0,0.0,0.0,0.0,0.0,0.0,0.0,0.0,0.0,0.0,0.0,0.0,0.0,0.0,0.0,0.0,0.0,0.0,0.0,0.0,0.0,0.0,0.0,0.0,0.0,0.0,0.0,0.0,0.0,0.0,0.0,0.0,0.0,0.0,0.0,0.0,0.0,0.0,0.0,0.0,0.0,0.0,0.0,0.0,0.0,0.0,0.0,0.0,0.0,0.0,0.0,0.0,0.0,0.0,0.0,0.0,0.0,0.0,0.0,0.0,0.0,0.0,0.0,0.0,0.0,0.0,0.0,0.0,0.0,0.0,0.0,0.0,0.0,0.0,0.0,0.0,0.0,0.0,0.0,0.0,0.0,0.0,0.0,-1.2084,-1.3414,-1.4656,0.0,-1.5885,-1.5865,-1.5965,-1.5792,-1.4589,-1.2031,0.0,0.0,0.0,0.0,0.0,0.0,0.0,0.0,0.0,0.0,0.0,0.0,0.0,0.0,0.0,0.0,0.0,0.0,0.0,0.0,0.0,0.0,0.0,0.0,0.0,0.0,0.0,0.0,0.0,0.0,0.0,0.0,0.0,0.0,0.0,0.0,0.0,0.0,0.0,0.0,0.0,0.0,0.0,0.0,0.0,0.0,0.0,0.0,0.0,0.0,0.0,0.0,0.0,0.0,0.0,0.0,0.0,0.0,0.0,0.0,0.0,0.0,0.0,0.0,0.0,0.0,0.0,0.0,0.0,0.0,0.0,0.0,0.0,0.0,0.0,0.0,0.0,0.0,0.0,0.0,0.0,0.0,0.0,0.0,0.0,0.0,0.0,0.0,0.0,0.0,0.0,0.0,0.0,0.0,0.0,0.0,0.0,0.0,0.0,0.0,0.0,0.0,-1.2191,-1.4115,-1.5625,-1.6213,-1.6005,-1.5952,-1.6246,-1.6273,-1.501,0.0,0.0,0.0,0.0,0.0,0.0,0.0,0.0,0.0,0.0,0.0,0.0,0.0,0.0,0.0,0.0,0.0,0.0,0.0,0.0,0.0,0.0,0.0,0.0,0.0,0.0,0.0,0.0,0.0,0.0,0.0,0.0,0.0,0.0,0.0,0.0,0.0,0.0,0.0,0.0,0.0,0.0,0.0,0.0,0.0,0.0,0.0,0.0,0.0,0.0,0.0,0.0,0.0,0.0,0.0,0.0,0.0,0.0,0.0,0.0,0.0,0.0,0.0,0.0,0.0,0.0,0.0,0.0,0.0,0.0,0.0,0.0,0.0,0.0,0.0,0.0,0.0,0.0,0.0,0.0,0.0,0.0,0.0,0.0,0.0,0.0,0.0,0.0,0.0,0.0,0.0,0.0,0.0,0.0,0.0,0.0,0.0,0.0,0.0,0.0,0.0,0.0,0.0,-1.2191,-1.4115,-1.5625,-1.6213,-1.6005,-1.5952,-1.6246,-1.6079,-1.4877,-1.2338,0.0,0.0,0.0,0.0,0.0,0.0,0.0,0.0,0.0,0.0,0.0,0.0,0.0,0.0,0.0,0.0,0.0,0.0,0.0,0.0,0.0,0.0,0.0,0.0,0.0,0.0,0.0,0.0,0.0,0.0,0.0,0.0,0.0,0.0,0.0,0.0,0.0,0.0,0.0,0.0,0.0,0.0,0.0,0.0,0.0,0.0,0.0,0.0,0.0,0.0,0.0,0.0,0.0,0.0,0.0,0.0,0.0,0.0,0.0,0.0,0.0,0.0,0.0,0.0,0.0,0.0,0.0,0.0,0.0,0.0,0.0,0.0,0.0,0.0,0.0,0.0,0.0,0.0,0.0,0.0,0.0,0.0,0.0,0.0,0.0,0.0,0.0,0.0,0.0,0.0,0.0,0.0,0.0,0.0,0.0,0.0,0.0,0.0,0.0,0.0,0.0,0.0,-1.2218,-1.4322,-1.5925,-1.6393,-1.6179,-1.6126,-1.642,-1.6279,-1.5324,-1.3313,0.0,0.0,0.0,0.0,0.0,0.0,0.0,0.0,0.0,0.0,0.0,0.0,0.0,0.0,0.0,0.0,0.0,0.0,0.0,0.0,0.0,0.0,0.0,0.0,0.0,0.0,0.0,0.0,0.0,0.0,0.0,0.0,0.0,0.0,0.0,0.0,0.0,0.0,0.0,0.0,0.0,0.0,0.0,0.0,0.0,0.0,0.0,0.0,0.0,0.0,0.0,0.0,0.0,0.0,0.0,0.0,0.0,0.0,0.0,0.0,0.0,0.0,0.0,0.0,0.0,0.0,0.0,0.0,0.0,0.0,0.0,0.0,0.0,0.0,0.0,0.0,0.0,0.0,0.0,0.0,0.0,0.0,0.0,0.0,0.0,0.0,0.0,0.0,0.0,0.0,0.0,0.0,0.0,0.0,0.0,0.0,0.0,0.0,0.0,0.0,0.0,0.0,-1.2305,-1.4669,-1.6413,-1.6673,-1.6473,-1.6433,-1.672,-1.6693,-1.6052,-1.4609,0.0,0.0,0.0,0.0,0.0,0.0,0.0,0.0,0.0,0.0,0.0,0.0,0.0,0.0,0.0,0.0,0.0,0.0,0.0,0.0,0.0,0.0,0.0,0.0,0.0,0.0,0.0,0.0,0.0,0.0,0.0,0.0,0.0,0.0,0.0,0.0,0.0,0.0,0.0,0.0,0.0,0.0,0.0,0.0,0.0,0.0,0.0,0.0,0.0,0.0,0.0,0.0,0.0,0.0,0.0,0.0,0.0,0.0,0.0,0.0,-0.5925,0.0,0.0,0.0,0.0,0.0,0.0,0.0,0.0,0.0,0.0,0.0,0.0,0.0,0.0,0.0,0.0,0.0,0.0,0.0,0.0,0.0,0.0,0.0,0.0,0.0,0.0,0.0,0.0,0.0,0.0,0.0,0.0,0.0,0.0,0.0,0.0,0.0,0.0,0.0,0.0,0.0,-1.2612,-1.497,-1.664,-1.67,-1.6653,-1.6734,-1.7034,-1.6633,-1.5838,-1.4596,-1.4711,0.0,0.0,0.0,0.0,0.0,0.0,0.0,0.0,0.0,0.0,0.0,0.0,0.0,0.0,0.0,0.0,0.0,0.0,0.0,0.0,0.0,0.0,0.0,0.0,0.0,0.0,0.0,0.0,0.0,0.0,0.0,0.0,0.0,0.0,0.0,0.0,0.0,0.0,0.0,0.0,0.0,0.0,0.0,0.0,0.0,0.0,0.0,0.0,0.0,0.0,0.0,0.0,0.0,0.0,0.0,0.0,0.0,0.0,0.0,0.0,-0.6027,0.0,0.0,0.0,0.0,0.0,0.0,0.0,0.0,0.0,0.0,0.0,0.0,0.0,0.0,0.0,0.0,0.0,0.0,0.0,0.0,0.0,0.0,0.0,0.0,0.0,0.0,0.0,0.0,0.0,0.0,0.0,0.0,0.0,0.0,0.0,0.0,0.0,0.0,0.0,0.0,-1.2802,-1.5064,-1.6707,-1.6707,-1.6834,-1.6981,-1.7237,-1.6867,-1.6373,-1.5618,-1.539,0.0,0.0,0.0,0.0,0.0,0.0,0.0,0.0,0.0,0.0,0.0,0.0,0.0,0.0,0.0,0.0,0.0,0.0,0.0,0.0,0.0,0.0,0.0,0.0,0.0,0.0,0.0,0.0,0.0,0.0,0.0,0.0,0.0,0.0,0.0,0.0,0.0,0.0,0.0,0.0,0.0,0.0,0.0,0.0,0.0,0.0,0.0,0.0,0.0,0.0,0.0,0.0,0.0,-0.6865,-0.6973,-0.6976,-0.7,-0.7214,-0.7529,-0.6915,-0.6851,-0.7112,0.0,0.0,0.0,0.0,0.0,0.0,0.0,0.0,0.0,0.0,0.0,0.0,0.0,0.0,0.0,0.0,0.0,0.0,0.0,0.0,0.0,0.0,0.0,0.0,0.0,-1.4041,-1.4349,0.0,0.0,0.0,0.0,0.0,0.0,0.0,0.0,0.0,0.0,0.0,0.0,-1.3185,-1.5271,-1.68,-1.6854,-1.7128,-1.7308,-1.7308,-1.7255,-1.7101,-1.68,-1.5825,-1.5237,0.0,0.0,0.0,0.0,0.0,0.0,0.0,0.0,0.0,0.0,0.0,0.0,0.0,0.0,0.0,0.0,0.0,0.0,0.0,0.0,0.0,0.0,0.0,0.0,0.0,0.0,0.0,0.0,0.0,0.0,0.0,0.0,-0.5399,-0.5287,0.0,0.0,0.0,0.0,0.0,0.0,0.0,0.0,0.0,0.0,0.0,0.0,0.0,0.0,-0.6444,-0.6983,-0.7255,-0.7258,-0.7804,-0.8065,-0.8069,-0.8191,-0.8279,-0.833,-0.8231,0.0,-0.7319,-0.7048,0.0,0.0,0.0,0.0,0.0,0.0,0.0,0.0,0.0,0.0,0.0,0.0,0.0,0.0,0.0,0.0,0.0,0.0,0.0,0.0,0.0,0.0,-1.5825,-1.6112,-1.6473,-1.67,0.0,-1.4262,-1.2191,-1.2063,0.0,0.0,0.0,0.0,0.0,0.0,0.0,0.0,-1.4543,-1.6092,-1.7188,-1.7442,-1.7742,-1.7929,-1.7929,-1.7682,-1.7402,-1.7108,-1.6707,-1.5999,-1.5122,-1.5054,0.0,0.0,0.0,0.0,0.0,0.0,0.0,0.0,0.0,0.0,0.0,0.0,0.0,0.0,0.0,0.0,0.0,0.0,0.0,0.0,0.0,0.0,0.0,0.0,0.0,0.0,0.0,0.0,0.0,-0.5114,-0.5338,-0.5425,-0.5321,-0.5196,0.0,0.0,0.0,0.0,0.0,0.0,0.0,0.0,0.0,-0.6868,-0.7027,-0.7227,-0.7482,-0.7824,-0.7994,-0.7997,-0.8262,-0.8387,-0.8391,-0.8455,-0.8482,-0.8482,-0.8482,-0.8296,-0.7963,-0.7563,-0.7602,-0.8002,0.0,0.0,0.0,0.0,0.0,-1.1838,-1.3081,-1.3634,0.0,0.0,0.0,0.0,0.0,0.0,0.0,0.0,0.0,0.0,0.0,0.0,0.0,-1.6767,-1.6927,-1.6901,-1.6901,-1.5912,-1.4783,0.0,-1.3267,-1.2438,-1.1249,0.0,0.0,0.0,0.0,-1.4569,-1.4917,-1.6386,-1.7442,-1.7569,-1.8009,-1.8297,-1.8297,-1.817,-1.8204,-1.8537,-1.8544,-1.8476,-1.8209,-1.8176,-1.7705,0.0,0.0,0.0,0.0,0.0,0.0,0.0,0.0,0.0,0.0,0.0,0.0,0.0,0.0,0.0,0.0,0.0,0.0,0.0,0.0,0.0,0.0,0.0,0.0,0.0,0.0,0.0,0.0,-0.5362,-0.563,-0.5596,-0.5823,-0.581,0.0,0.0,0.0,0.0,0.0,0.0,-0.6746,-0.6759,-0.7037,-0.7634,-0.7767,-0.7987,-0.8323,-0.8469,-0.854,-0.854,-0.8618,-0.8652,-0.8655,-0.8693,-0.871,-0.871,-0.871,-0.871,-0.8665,-0.8072,-0.8133,-0.8528,-0.8109,-0.8839,-1.0223,-1.0648,-1.1472,-1.2524,-1.4046,-1.4566,-1.4637,-1.4502,0.0,-1.3975,-1.338,0.0,0.0,0.0,0.0,-1.4075,-1.5391,-1.5785,-1.6086,-1.7034,-1.7154,-1.7048,-1.7048,-1.7041,-1.6734,0.0,-1.4877,-1.3948,-1.2759,0.0,0.0,0.0,0.0,-1.5458,-1.5611,-1.6774,-1.7669,-1.7903,-1.833,-1.8604,-1.8604,-1.8604,-1.881,-1.9302,-1.9437,-1.9806,-2.0424,-2.0314,-2.0102,-1.9942,0.0,0.0,0.0,0.0,0.0,0.0,0.0,0.0,0.0,0.0,0.0,0.0,0.0,0.0,0.0,0.0,0.0,0.0,0.0,0.0,0.0,0.0,0.0,0.0,0.0,0.0,0.0,0.0,0.0,-0.6281,-0.6715,0.0,0.0,0.0,0.0,-0.6644,-0.6664,-0.6932,-0.7512,-0.7543,-0.7814,-0.8408,-0.8435,-0.8448,-0.8472,-0.8621,-0.8699,-0.8703,-0.8984,-0.912,-0.9123,-0.9269,-0.9337,-0.9337,-0.9337,-0.9337,-0.9289,-0.8686,-0.8184,-0.789,-0.7863,-0.7585,-0.7521,-0.9262,-0.9927,-1.0391,-1.3485,-1.4712,-1.4963,-1.5214,-1.477,-1.4282,-1.5337,-1.4877,0.0,0.0,-1.5271,-1.5498,-1.6406,-1.6854,-1.7148,-1.7482,-1.7776,-1.7976,-1.7976,-1.7321,-1.6794,0.0,-1.7215,-1.6987,-1.5812,0.0,-1.5598,-1.5251,-1.5311,-1.5892,-1.7275,-1.7528,-1.7909,-1.8764,-1.8885,-1.8905,-1.8905,-1.8905,-1.8771,-1.8574,-1.8017,-1.8436,-2.0039,-1.9607,-1.9686,-2.0446,-1.9956,0.0,0.0,0.0,0.0,0.0,0.0,0.0,0.0,0.0,0.0,0.0,0.0,0.0,0.0,0.0,0.0,0.0,0.0,0.0,0.0,0.0,0.0,0.0,0.0,0.0,0.0,0.0,0.0,-0.6458,-0.6926,0.0,-0.68,-0.7078,-0.7319,-0.7411,-0.7682,-0.794,-0.8157,-0.8167,-0.8309,-0.8618,-0.8723,-0.8821,-0.8913,-0.9066,-0.9144,-0.9144,-0.9249,-0.93,-0.9303,-0.9357,-0.9381,-0.9381,-0.9381,-0.9381,-0.9364,-0.9147,-0.891,-0.8665,-0.8574,-0.8949,-0.9725,-1.1456,-1.257,-1.354,-1.5786,-1.6593,-1.6716,-1.6731,-1.6593,-1.6413,-1.6834,-1.6667,-1.64,-1.6714,-1.6947,-1.7174,-1.7488,-1.7789,-1.8036,-1.8143,-1.825,-1.833,-1.833,-1.8083,-1.7889,-1.7996,-1.7475,-1.6887,-1.6466,-1.7034,-1.7181,-1.6119,-1.6774,-1.7502,-1.7822,-1.8203,-1.8571,-1.8891,-1.9092,-1.9205,-1.9205,-1.9205,-1.9407,-1.9968,-1.9843,-2.0227,-2.1191,-2.1956,-2.2361,-2.2455,-2.3177,-2.1997,0.0,0.0,0.0,0.0,0.0,0.0,0.0,0.0,0.0,0.0,0.0,0.0,0.0,0.0,0.0,0.0,0.0,0.0,0.0,0.0,0.0,0.0,0.0,0.0,0.0,0.0,-0.7071,-0.6675,-0.7244,-0.7556,-0.7255,-0.7634,-0.7936,-0.8031,-0.836,-0.8581,-0.8632,-0.8682,-0.8777,-0.893,-0.9035,-0.9133,-0.9228,-0.9381,-0.9459,-0.9459,-0.9507,-0.953,-0.953,-0.953,-0.953,-0.953,-0.953,-0.953,-0.953,-0.953,-0.9469,-0.9357,-0.9164,-0.9637,-1.0516,-1.162,-1.2832,-1.4374,-1.6445,-1.744,-1.7889,-1.7889,-1.7889,-1.7889,-1.7889,-1.7889,-1.7889,-1.7889,-1.8036,-1.8196,-1.8196,-1.8417,-1.8637,-1.8637,-1.8711,-1.8784,-1.8784,-1.8784,-1.8784,-1.8784,-1.7983,-1.7308,-1.7308,-1.7969,-1.8056,-1.676,-1.7669,-1.8343,-1.7923,-1.849,-1.8958,-1.9065,-1.9252,-1.9366,-1.9366,-1.9092,-1.9504,-2.1033,-2.0728,-2.1302,-2.2997,-2.3542,-2.3791,-2.3791,-2.4517,-2.3389,-2.0371,0.0,0.0,0.0,0.0,0.0,0.0,0.0,0.0,0.0,0.0,0.0,0.0,0.0,0.0,0.0,0.0,0.0,0.0,0.0,0.0,0.0,0.0,0.0,-0.6566,-0.7021,-0.7295,-0.701,-0.7746,-0.816,-0.7868,-0.8238,-0.8499,-0.8503,-0.8645,-0.8798,-0.8944,-0.9086,-0.9228,-0.9384,-0.9388,-0.9391,-0.9395,-0.9544,-0.9615,-0.9618,-0.9754,-0.9822,-0.9822,-0.9822,-0.9822,-0.9822,-0.9822,-0.9822,-0.9822,-0.9822,-0.9822,-0.9791,-0.9507,-0.9395,-0.9511,-0.9511,-1.0655,-1.2483,-1.5417,-1.7359,-1.8517,-1.8517,-1.8517,-1.8517,-1.8517,-1.8517,-1.8517,-1.8517,-1.8517,-1.8517,-1.8517,-1.8724,-1.8938,-1.8951,-1.9172,-1.9379,-1.9392,-1.9392,-1.9392,-1.9392,-1.8938,-1.8537,-1.8517,-1.8531,-1.8237,-1.7361,-1.7983,0.0,-1.7729,-1.841,-1.9052,-1.9299,-1.9325,-1.9325,-1.9441,-1.8537,-1.9057,-2.1518,-2.0604,-2.1571,-2.5201,-2.388,-2.3459,-2.4482,-2.3623,-2.2969,-2.2529,0.0,0.0,0.0,0.0,0.0,0.0,0.0,0.0,0.0,0.0,0.0,0.0,0.0,0.0,0.0,0.0,0.0,0.0,0.0,0.0,0.0,0.0,-0.7305,-0.7292,-0.7712,-0.8031,-0.8052,-0.8272,-0.8435,-0.8459,-0.8676,-0.8855,-0.896,-0.911,-0.9215,-0.9259,-0.9296,-0.9388,-0.9544,-0.9547,-0.9595,-0.97,-0.9741,-0.9764,-0.9764,-0.9802,-0.9822,-0.9822,-0.9822,-0.9822,-0.9822,-0.9822,-0.9822,-0.9822,-0.9822,-0.9822,-0.9812,-0.973,-1.0408,-1.1593,-1.2772,-1.4886,-1.7475,-1.8295,-1.8768,-1.9125,-1.9125,-1.9125,-1.9125,-1.9125,-1.9125,-1.9125,-1.9125,-1.9125,-1.9125,-1.9125,-1.9185,-1.9299,-1.9506,-1.9619,-1.974,-1.9947,-1.9993,-1.9993,-1.9993,-1.9867,-1.9619,-1.9199,-1.9299,-1.9359,-1.9112,-1.9459,0.0,-1.9239,-1.9406,-1.9265,-1.8497,-1.841,-1.883,-2.0004,-1.9864,-2.0655,-2.3087,-2.2892,-2.3141,-2.4209,-2.4536,-2.5117,-2.5859,-2.4375,-2.3398,0.0,0.0,0.0,0.0,0.0,0.0,0.0,0.0,0.0,0.0,0.0,0.0,0.0,0.0,0.0,0.0,0.0,0.0,0.0,0.0,0.0,0.0,-0.7356,-0.7821,-0.8035,-0.8235,-0.8414,-0.856,-0.8635,-0.8733,-0.8882,-0.9035,-0.9157,-0.9242,-0.9391,-0.9476,-0.9476,-0.9534,-0.9605,-0.9696,-0.9696,-0.9737,-0.9822,-0.9822,-0.9852,-0.9917,-0.9917,-0.9951,-1.0012,-1.0012,-1.0012,0.0,-1.0012,-1.0012,-1.0012,-1.0743,-1.111,0.0,0.0,0.0,0.0,0.0,-1.6738,-1.8525,-1.9127,-1.9366,-1.9366,-1.9366,-1.9452,-1.9546,-1.9546,-1.9633,-1.9733,-1.9733,-1.9733,-1.9733,-1.9733,-1.9733,-1.9773,-1.994,-1.998,-2.0027,-2.0194,-2.0234,-2.0234,-2.0234,0.0,0.0,-1.9786,-1.9867,-1.9853,-1.9492,-1.9887,-2.004,-1.9499,-1.9753,-1.972,-1.9032,-1.8958,-1.9292,-2.016,-2.0559,0.0,0.0,0.0,-2.4611,-2.489,-2.5249,0.0,0.0,0.0,0.0,0.0,0.0,0.0,0.0,-2.1475,-2.0918,0.0,0.0,0.0,0.0,0.0,0.0,0.0,0.0,0.0,0.0,0.0,0.0,0.0,0.0,0.0,0.0,-0.7916,-0.8418,-0.8696,-0.8632,-0.8608,-0.8743,-0.8896,-0.9039,-0.9167,-0.9317,-0.9408,-0.9408,-0.9547,-0.9635,-0.9635,0.0,0.0,0.0,0.0,-0.9829,-0.9846,-0.9846,-0.9924,-1.0076,-1.0076,-1.0148,-1.028,-1.028,-1.028,-1.028,-1.028,-1.028,-1.0404,-1.2154,-1.3152,-1.3363,-1.3013,-1.2875,-1.3232,-1.6216,-1.7409,0.0,0.0,0.0,0.0,-1.9466,-1.9639,-1.9853,-1.9853,-2.0027,-2.0234,-2.0234,-2.0234,-2.0234,-2.0234,-2.0234,-2.0241,-2.0274,-2.0287,-2.0294,-2.0321,-2.0334,-2.0334,-2.0334,-2.0334,-2.0334,-2.0334,-2.0307,-2.002,-1.9239,-1.9813,-2.0034,-1.9225,-1.98,-2.0234,-2.01,0.0,0.0,-2.0547,-2.1274,-2.2743,-2.5301,-2.5684,-2.6154,-2.6758,-2.6328,-2.6074,-2.6025,-2.5586,-2.5908,-2.7012,-2.7012,-2.7012,-2.6924,-2.3086,-2.2119,0.0,0.0,0.0,0.0,0.0,0.0,0.0,0.0,0.0,0.0,0.0,0.0,0.0,0.0,0.0,-0.7536,-0.8157,-0.8689,-0.8869,-0.8967,-0.9035,-0.9066,-0.9205,-0.9306,-0.9334,-0.9476,-0.9564,-0.9564,-0.97,-0.9781,-0.9781,-0.9805,0.0,-0.9822,-0.9822,-0.988,-1.0005,-1.0005,-1.0083,-1.0236,0.0,0.0,-1.028,-1.028,-1.028,-1.028,-1.028,-1.028,-1.0404,-1.2154,-1.4514,-1.6982,-1.6881,-1.6847,-1.6969,-1.8943,-1.9565,-1.9693,-1.994,-2.0067,-2.0067,-2.0067,-2.01,-2.0147,-2.0147,-2.0187,0.0,-2.0234,-2.0234,-2.0234,-2.0234,-2.0234,-2.0294,-2.0535,-2.0588,-2.0655,-2.0889,-2.0942,-2.0942,-2.0942,-2.0942,-2.0942,-2.0942,-2.0748,-2.0535,-2.0361,-2.0681,-2.0795,-2.0388,-2.0488,-2.0227,-1.9279,-1.9178,-2.0174,-2.272,-2.308,-2.4751,-2.8436,-2.8795,-2.8804,-2.8965,-2.8535,-2.8144,-2.7803,-2.7383,-2.7109,-2.7012,-2.7012,-2.7012,-2.6992,-2.6162,-2.5947,0.0,0.0,0.0,0.0,0.0,0.0,0.0,0.0,0.0,0.0,0.0,-0.6678,-0.698,0.0,-0.7804,-0.8106,-0.8533,-0.8876,-0.9025,-0.9239,-0.9354,-0.9276,-0.9401,-0.9496,-0.9496,-0.9629,-0.9717,-0.9717,-0.9781,-0.9822,-0.9822,-0.9822,-0.9856,-0.9934,-0.9934,-1.0008,-1.0164,-1.0164,-1.0239,-1.0385,-1.0385,-1.0426,-1.05,-1.05,-1.05,-1.05,-1.1394,-1.1778,-1.1903,-1.3682,-1.5843,-1.825,-1.825,-1.8593,-1.9107,-1.9978,-2.0234,-2.0234,-2.0234,-2.0234,-2.0234,-2.0234,-2.0334,-2.0454,-2.0454,-2.0555,-2.0668,-2.0668,-2.0668,-2.0668,-2.0668,-2.0668,-2.0708,-2.0855,-2.0895,-2.0935,-2.1076,-2.1109,-2.1109,-2.1109,-2.1109,-2.1109,-2.1109,-2.0989,-2.0895,-2.0895,-2.1015,-2.1056,-2.0909,-2.0895,-2.1033,-2.1251,-2.1306,-2.2223,-2.4639,-2.5557,-2.711,-2.9741,-2.9883,-2.9785,-2.958,-2.9365,-2.915,-2.8935,-2.8721,-2.8516,-2.8291,-2.8291,-2.8291,-2.8291,-2.8291,-2.7832,0.0,0.0,0.0,0.0,0.0,0.0,0.0,-0.5932,-0.6051,-0.6617,-0.6854,-0.7119,-0.7634,-0.7848,-0.8119,-0.8665,-0.8882,-0.9042,-0.9218,-0.9452,-0.9574,-0.9479,-0.9578,-0.9649,-0.9649,-0.9754,-0.9822,-0.9822,-0.9822,-0.9832,-0.9863,-0.9866,-0.9934,-1.009,-1.0093,-1.0168,-1.0321,-1.0321,-1.0392,-1.0534,-1.0534,-1.0602,-1.0721,-1.1111,-1.124,-1.124,-1.2672,-1.3325,-1.3451,-1.5135,-1.6953,-1.8506,-1.8896,-1.9537,-2.0401,-2.0401,-2.0401,-2.0401,-2.0401,-2.0401,-2.0401,-2.0401,-2.0561,-2.0762,-2.0762,-2.0922,-2.1109,-2.1109,-2.1109,-2.1109,-2.1109,-2.1109,-2.1109,-2.1109,-2.1109,-2.1109,-2.1109,-2.1109,-2.1109,-2.1109,-2.1109,-2.1109,-2.1109,-2.1109,-2.1109,-2.1109,-2.1109,-2.1235,-2.1601,-2.1607,-2.2215,-2.3938,-2.4054,-2.4663,-2.634,-2.7931,-2.9254,-3.0237,-3.0332,-3.0185,-2.9844,-2.9746,-2.9687,-2.9687,-2.9609,-2.957,-2.957,-2.957,-2.957,-2.957,-2.957,-2.8828,-0.2919,-0.3769,-0.4666,-0.4295,-0.5002,-0.6,0.0,-0.7163,-0.7099,-0.7567,-0.7784,-0.7953,-0.8157,-0.8309,-0.852,-0.8859,-0.9035,-0.9228,-0.9517,-0.9588,-0.9649,-0.9758,-0.9788,-0.9798,-0.9798,-0.9812,-0.9822,-0.9822,-0.9822,-0.988,-1.0015,-1.0022,-1.0093,-1.0249,-1.0253,-1.0324,-1.0466,-1.047,-1.0544,-1.0694,-1.0694,-1.0704,-1.0721,-1.2281,-1.3062,-1.3066,-1.3193,-1.3325,-1.3451,-1.5135,-1.6953,-1.864,-2.0195,-2.0936,-2.1009,-2.1009,-2.1009,-2.1009,-2.1009,-2.1009,-2.1009,-2.1009,-2.1029,-2.1062,-2.1062,-2.1082,-2.1109,-2.1109,-2.1109,-2.1109,-2.1109,-2.1109,-2.1109,-2.1109,-2.1109,-2.1109,-2.1109,-2.1109,-2.1109,-2.1109,-2.1109,-2.1109,-2.1109,-2.1109,-2.1109,-2.1109,-2.1109,-2.1601,-2.3084,-2.3325,-2.3931,-2.5619,-2.5733,-2.6349,-2.7931,-2.9658,-3.0626,-3.082,-3.081,-3.0791,-3.0752,-3.0342,-3.0127,-3.0127,-2.9756,-2.957,-2.957,-2.957,-2.957,-2.957,-2.957,-2.9463,-0.4278,-0.4307,-0.4178,-0.3918,-0.5121,-0.6541,-0.7161,-0.7302,-0.74,-0.7851,-0.8065,-0.8218,-0.8367,-0.8587,-0.8815,-0.9028,-0.9262,-0.9462,-0.9591,-0.968,-0.9754,-0.9815,-0.9822,-0.9822,-0.9822,-0.9822,-0.9859,-0.9947,-0.9954,-1.0022,-1.0175,-1.0185,-1.0253,-1.0399,-1.0405,-1.0473,-1.0622,-1.0626,-1.0656,-1.0721,-1.0721,-1.1244,-1.2153,-1.1894,-1.2281,-1.3325,-1.3325,-1.4488,-1.6302,-1.6043,-1.6953,-1.8506,-1.9285,-1.9546,-1.9674,-2.0716,-2.1109,-2.1109,-2.1109,-2.1109,-2.1109,-2.1109,-2.1109,-2.1109,-2.1109,-2.1109,-2.1109,-2.1109,-2.1109,-2.1109,-2.1109,-2.1109,-2.1109,-2.1109,-2.1109,-2.1109,-2.1109,-2.1109,-2.1109,-2.1109,-2.1249,-2.137,-2.137,-2.151,-2.1998,-2.3,-2.2813,-2.3201,-2.4778,-2.5016,-2.5627,-2.7194,-2.8307,-2.9157,-2.9776,-3.0518,-3.0889,-3.0889,-3.0889,-3.0889,-3.0889,-3.0703,-3.0605,-3.0605,-3.043,-3.0342,-3.0342,-3.0342,-3.0342,-3.0342,-3.0342,-3.0342,-0.5364,-0.506,-0.4695,-0.4656,-0.5922,-0.7073,-0.7238,-0.7414,-0.7584,-0.7909,-0.8099,-0.8252,-0.8397,-0.8672,-0.8937,-0.9123,-0.9408,-0.9625,-0.9663,-0.9754,-0.9822,-0.9822,-0.9859,-0.9883,-0.9883,-0.9883,-0.993,-1.0039,-1.009,-1.0178,-1.0331,-1.0337,-1.0405,-1.0551,-1.0555,-1.0609,-1.0717,-1.0721,-1.0721,-1.0721,-1.0721,-1.1372,-1.2545,-1.1762,-1.2413,-1.397,-1.397,-1.5394,-1.7731,-1.6953,-1.7339,-1.8518,-1.9108,-1.9395,-1.9536,-2.0798,-2.1249,-2.1109,-2.1109,-2.1109,-2.1109,-2.1109,-2.1109,-2.1109,-2.1109,-2.1109,-2.1109,-2.1109,-2.1109,-2.1129,-2.1209,-2.1229,-2.1256,-2.1329,-2.1349,-2.1349,-2.1349,-2.1349,-2.1349,-2.1349,-2.1523,-2.167,-2.167,-2.1844,-2.2628,-2.4279,-2.4515,-2.5194,-2.6772,-2.7392,-2.8129,-2.9361,-3.0491,-3.125,-3.125,-3.125,-3.125,-3.125,-3.125,-3.1191,-3.1064,-3.1064,-3.1006,-3.0889,-3.0889,-3.0889,-3.0889,-3.0889,-3.0889,-3.0889,-3.0889,-3.0889,-0.5434,-0.5983,-0.6726,-0.7295,-0.7605,-0.7721,-0.7797,-0.7794,-0.7801,-0.7814,-0.794,-0.8096,-0.8248,-0.852,-0.8811,-0.9106,-0.9408,-0.9656,-0.9795,-0.9819,-0.9822,-0.9822,-0.9951,-1.0042,0.0,-1.0042,-1.0042,-1.0049,-1.0188,-1.0334,-1.0477,-1.0483,-1.0555,-1.0707,-1.0714,-1.0714,-1.0721,-1.0721,-1.0721,-1.0721,-1.0721,-1.0721,-1.085,-1.2413,-1.4232,-1.5784,-1.5784,-1.5918,-1.6172,-1.7731,-1.8506,-1.8664,-2.0767,-2.1537,-2.157,-2.185,-2.1597,-2.1109,-2.1109,-2.1109,-2.1109,-2.1109,-2.1109,-2.1109,-2.1109,-2.1109,-2.1109,-2.1109,-2.1109,-2.1176,-2.1463,-2.1537,-2.161,-2.1891,-2.1957,-2.1957,-2.1957,-2.1957,-2.1957,-2.1957,-2.1964,-2.1971,-2.1971,-2.1977,-2.2497,-2.4157,-2.5921,-2.7563,-2.9306,-3.0973,-3.1998,-3.2129,-3.2129,-3.2129,-3.2129,-3.2129,-3.2129,-3.2129,-3.2129,-3.1943,-3.1514,-3.1504,-3.1309,-3.0898,-3.0889,-3.0889,-3.0889,-3.0889,-3.0889,-3.0889,-3.0889,-3.0889,-0.539,-0.4708,-0.4625,-0.7185,-0.776,-0.7744,-0.7734,-0.7801,-0.7963,-0.7963,-0.7848,-0.779,-0.794,-0.8214,-0.8516,-0.8811,-0.9283,-0.9659,-0.9802,-0.9822,-0.9859,-0.9961,-1.0019,-1.009,0.0,0.0,0.0,-1.0337,-1.0392,-1.0487,-1.0636,-1.0643,-1.0666,-1.0717,-1.0721,-1.0721,-1.0721,-1.0721,-1.0721,-1.0721,-1.1894,-1.2413,-1.2545,-1.4232,-1.5399,-1.5923,-1.6201,-1.6923,-1.799,-1.8816,-1.9817,-2.0895,-2.1529,-2.1844,-2.185,-2.1951,-2.1864,-2.169,-2.169,-2.169,-2.169,-2.169,-2.169,-2.169,-2.169,-2.169,-2.169,-2.169,-2.169,-2.171,-2.1817,-2.1844,-2.1864,-2.1964,-2.1984,-2.1984,-2.1984,-2.1984,-2.1984,-2.1984,-2.2138,-2.2271,-2.2271,-2.2438,-2.3226,-2.4923,-2.7123,-2.9359,-3.1134,-3.1905,-3.2168,-3.2168,-3.2168,-3.2168,-3.2168,-3.2168,-3.2168,-3.2168,-3.2168,-3.21,-3.1953,-3.1953,-3.1885,-3.1738,-3.1738,-3.1601,-3.1309,-3.1309,-3.1162,-3.0889,-3.0889,-3.0889,-0.5432,-0.3582,-0.2542,-0.5719,-0.6712,-0.7021,-0.7713,-0.7878,-0.8038,-0.8038,-0.7804,-0.7628,-0.7719,-0.8028,-0.8296,-0.8374,-0.894,-0.9418,-0.9561,-0.9629,-0.9758,-1.0019,-1.0144,-1.0246,-1.0344,-1.0405,0.0,-1.0487,-1.0541,-1.0616,-1.0714,-1.0721,-1.0721,-1.0721,-1.124,-1.1633,-1.1633,-1.1633,-1.1372,-1.0717,-1.2413,-1.3325,-1.3325,-1.5216,-1.6426,-1.7093,-1.733,-1.8496,-2.011,-2.0284,-2.1034,-2.1997,-2.2104,-2.2138,-2.2151,-2.2258,-2.2298,-2.2271,-2.2058,-2.1984,-2.1984,-2.1984,-2.1984,-2.1984,-2.1984,-2.1984,-2.1984,-2.1984,-2.1984,-2.2011,-2.2111,-2.2138,-2.2164,-2.2271,-2.2298,-2.2298,-2.2298,-2.2298,-2.2298,-2.2298,-2.2452,-2.2579,-2.2579,-2.2739,-2.3659,-2.6046,-2.7889,-2.9645,-3.1454,-3.2227,-3.2617,-3.2617,-3.2617,-3.2617,-3.2617,-3.2617,-3.2617,-3.2617,-3.2617,-3.2549,-3.2393,-3.2393,-3.2324,-3.2178,-3.2168,-3.2031,-3.1748,-3.1748,-3.1611,-3.1348,-3.1348,-3.1348,-0.5188,-0.2658,-0.0639,-0.3479,-0.486,-0.5924,-0.7637,-0.8038,-0.8031,-0.8011,-0.777,-0.756,-0.7546,-0.7916,-0.8133,-0.7855,-0.8459,-0.9011,-0.9157,-0.9313,-0.9578,-1.0008,-1.0317,-1.0493,-1.0504,-1.0633,-1.066,-1.0514,0.0,-1.0721,-1.0721,-1.0721,-1.0853,-1.0721,-1.2545,-1.3325,-1.3193,-1.3325,-1.2413,-1.085,-1.2684,-1.3464,-1.3604,-1.5639,-1.7456,-1.9197,-1.9453,-2.051,-2.2004,-2.2024,-2.2031,-2.2058,-2.2331,-2.2438,-2.2472,-2.2759,-2.2859,-2.2779,-2.2225,-2.2031,-2.2031,-2.2031,-2.2031,-2.2031,-2.2031,-2.2031,-2.2031,-2.2031,-2.2031,-2.2091,-2.2372,-2.2438,-2.2512,-2.2792,-2.2859,-2.2859,-2.2859,-2.2859,-2.2859,-2.2859,-2.2859,-2.2859,-2.2859,-2.2996,-2.4196,-2.7511,-2.8172,-2.8952,-3.0771,-3.2365,-3.3418,-3.3418,-3.3418,-3.3418,-3.3418,-3.3418,-3.3418,-3.3418,-3.3418,-3.3242,-3.2842,-3.2832,-3.2637,-3.2246,-3.2226,-3.2217,-3.2207,-3.2207,-3.2187,-3.2168,-3.2168,-3.2168,-0.2123,-0.0748,-0.1082,-0.5802,-0.7153,-0.7466,-0.7865,-0.7952,-0.7943,-0.7611,-0.7305,-0.7031,-0.68,-0.7221,-0.7645,-0.7787,-0.8632,-0.932,-0.9473,-0.9713,-0.9964,-1.0195,-1.0382,-1.0538,-1.0653,-1.0697,-1.0704,0.0,-1.0697,-1.0721,-1.0721,-1.1894,-1.2022,-1.0721,-1.3713,-1.397,-1.1372,-1.2672,-1.3062,-1.2676,-1.4645,-1.6298,-1.762,-1.826,-1.9585,-2.1214,-2.1499,-2.189,-2.2325,-2.2545,-2.2639,-2.2645,-2.2719,-2.2746,-2.2759,-2.2832,-2.2859,-2.2839,-2.2692,-2.2639,-2.2639,-2.2639,-2.2639,-2.2639,-2.2639,-2.2639,-2.2639,-2.2639,-2.2639,-2.2659,-2.2732,-2.2746,-2.2772,-2.2846,-2.2859,-2.2859,-2.2859,-2.2859,-2.2859,-2.2859,-2.2859,-2.2859,-2.2859,-2.3924,-2.5121,-2.6046,-2.841,-3.078,-3.2492,-3.3155,-3.3418,-3.3418,-3.3418,-3.3418,-3.3418,-3.3418,-3.3418,-3.3418,-3.3418,-3.3379,-3.3271,-3.3262,-3.3213,-3.3105,-3.3105,-3.2949,-3.2637,-3.2637,-3.2471,-3.2168,-3.2168,-3.2168,-0.0556,-0.1738,-0.3696,-0.4323,-0.625,-0.7928,-0.7617,-0.7561,-0.7523,-0.7351,-0.6929,-0.6583,-0.641,-0.6922,-0.7383,-0.7417,-0.836,-0.914,-0.9293,-0.9625,-0.9961,-1.0246,-1.0466,-1.0626,-1.0711,-1.0721,-1.0721,-1.0721,-1.0721,-1.0721,-1.0721,-1.2413,-1.2804,-1.1894,-1.4488,-1.5009,-1.3062,-1.4749,-1.5318,-1.4626,-1.6581,-1.8159,-1.9208,-2.0275,-2.1219,-2.2191,0.0,-2.2612,-2.2625,-2.2792,-2.2859,-2.2859,-2.2859,-2.2859,-2.2859,-2.2859,-2.2859,-2.2859,-2.2859,-2.2859,-2.2859,-2.2859,-2.2859,-2.2859,-2.2859,-2.2859,-2.2859,-2.2859,-2.2859,-2.2859,-2.2859,-2.2859,-2.2859,-2.2859,-2.2859,-2.2859,-2.2859,-2.2859,-2.2859,-2.2859,-2.3529,-2.406,-2.406,-2.5517,-2.6964,-2.7751,-2.9457,-3.1433,-3.3155,-3.3418,-3.3418,-3.3418,-3.3418,-3.3418,-3.3418,-3.3418,-3.3418,-3.3418,-3.3418,-3.3418,-3.3418,-3.3418,-3.3418,-3.3418,-3.3418,-3.331,-3.3066,-3.3066,-3.2949,-3.2725,-3.2725,-3.2725,0.0,-0.344,-0.6038,-0.1997,-0.4608,-0.7828,-0.7379,-0.7168,-0.7019,-0.7054,-0.6651,-0.6297,-0.6179,-0.6749,-0.7173,-0.7014,-0.7923,-0.8733,-0.8964,-0.9367,-0.9798,-1.0229,-1.0524,-1.0697,-1.0717,-1.0721,-1.0721,-1.0721,-1.085,-1.1111,-1.1111,-1.2672,-1.384,-1.4362,-1.5399,-1.6043,-1.6302,-1.7725,-1.7855,-1.6775,-1.853,-1.9484,-1.9875,-2.1654,-2.2478,-2.2492,0.0,0.0,-2.2859,-2.2859,-2.2859,-2.2859,-2.2859,-2.2859,-2.2859,-2.2859,-2.2859,-2.2859,-2.2859,-2.2859,-2.2859,-2.2859,-2.2859,-2.2859,-2.2859,-2.2859,-2.2859,-2.2859,-2.2859,-2.2859,-2.2859,-2.2859,-2.2859,-2.2859,-2.3133,-2.3263,-2.3263,-2.3393,-2.3665,-2.3665,-2.4858,-2.5912,-2.5912,-2.737,-2.9083,-3.0513,-3.1038,-3.1698,-3.3165,-3.3418,-3.3418,-3.3418,-3.3418,-3.3418,-3.3418,-3.3418,-3.3418,-3.3418,-3.3418,-3.3418,-3.3418,-3.3418,-3.3418,-3.3418,-3.3418,-3.3418,-3.3418,-3.3418,-3.3418,-3.3418,-3.3418,-3.3418,0.0,-0.0693,-0.2203,-0.5729,-0.7273,-0.7994,-0.783,-0.7272,-0.6804,-0.6772,-0.6497,-0.6148,-0.5674,-0.6039,-0.6637,-0.7204,-0.7885,-0.857,-0.9215,-0.9581,-0.9907,-1.0243,-1.0429,-1.0582,-1.0707,-1.0721,-1.0721,0.0,-1.2022,-1.2804,-1.2804,-1.4488,-1.6824,-1.9674,-1.7211,-1.656,-1.7988,-1.8378,-1.8507,-1.8632,-2.0585,-2.1654,-2.1936,-2.251,-2.2786,-2.2786,0.0,0.0,-2.2859,-2.2859,-2.2859,-2.2859,-2.2859,-2.2859,-2.2859,-2.2859,-2.2859,-2.2859,-2.2859,-2.2859,-2.2859,-2.2859,-2.2859,-2.2859,-2.2859,-2.2859,-2.2859,-2.2859,-2.2859,-2.2859,-2.2859,-2.2859,-2.2859,-2.2859,-2.406,-2.4986,-2.4986,-2.618,-2.7246,-2.7246,-2.7503,-2.7776,-2.7776,-2.9205,-3.0513,-3.0771,-3.2091,-3.3029,-3.3418,-3.3418,-3.3418,-3.3418,-3.3418,-3.3418,-3.3418,-3.3418,-3.3418,-3.3418,-3.3418,-3.3418,-3.3418,-3.3418,-3.3418,-3.3418,-3.3418,-3.3418,-3.3418,-3.3418,-3.3418,-3.3418,-3.3418,-3.3418,0.0,-0.1997,-0.483,-0.7363,-0.8011,-0.7887,-0.762,-0.6787,-0.5998,-0.6002,-0.5899,-0.5713,-0.5426,-0.5603,-0.6051,-0.6732,-0.7624,-0.8421,-0.8852,-0.9435,-0.9907,-1.0134,-1.0354,-1.0521,-1.0595,-1.145,-1.2022,-1.2022,0.0,-1.4232,-1.3325,-1.5784,-1.7988,-1.9674,-1.9024,-1.8506,-1.8506,-1.9554,-2.0288,-2.0573,-2.1667,-2.2365,-2.2652,-2.2799,-2.2859,-2.2859,-2.2859,0.0,-2.2859,-2.2859,-2.2859,-2.2859,-2.2859,-2.2859,-2.2859,-2.2859,-2.2859,-2.2859,-2.2859,-2.2859,-2.2859,-2.2859,-2.2859,-2.2859,-2.2859,-2.2859,-2.2859,-2.2859,-2.2859,-2.2859,-2.2859,-2.2859,-2.3126,-2.406,-2.5651,-2.6847,-2.6847,-2.7635,-2.8172,-2.8172,-2.8952,-2.9605,-2.9605,-3.1047,-3.21,-3.21,-3.2892,-3.3418,-3.3418,-3.3418,-3.3418,-3.3418,-3.3418,-3.3418,-3.3418,-3.3418,-3.3418,-3.3418,-3.3418,-3.3418,-3.3418,-3.3418,-3.3418,-3.3418,-3.3418,-3.3418,-3.3418,-3.3418,-3.3776,-3.4612,-3.4612,-3.5098,0.0,-0.3909,-0.7975,-0.8031,-0.8004,-0.7856,-0.7381,-0.6312,-0.543,-0.5398,-0.5428,-0.5428,-0.5428,-0.5383,-0.5639,-0.6381,-0.7258,-0.8113,-0.8691,-0.9209,-0.9686,-0.9968,-1.0263,-1.046,-1.0487,-1.218,-1.3325,-1.3325,0.0,0.0,-1.4488,-1.7339,-1.903,-1.903,-2.0329,-2.0488,-1.9243,-2.0773,-2.173,-2.2078,-2.2311,-2.2572,-2.2859,-2.2859,-2.2859,-2.2859,-2.2859,0.0,0.0,-2.2859,-2.2859,-2.2859,-2.2859,-2.2859,-2.2859,-2.2859,-2.2859,-2.2859,-2.2859,-2.2859,-2.2859,-2.2859,-2.2859,-2.2859,-2.2859,-2.2859,-2.2859,-2.2859,-2.2859,-2.2996,-2.34,-2.3393,-2.406,-2.6172,-2.7759,-2.8821,-2.9222,-2.9352,-2.9352,-2.9352,-3.0393,-3.1304,-3.1304,-3.2492,-3.3418,-3.3418,-3.3418,-3.3418,-3.3418,-3.3418,-3.3418,-3.3418,-3.3418,-3.3418,-3.3418,-3.3418,-3.3418,-3.3418,-3.3418,-3.3418,-3.3418,-3.3418,-3.3418,-3.3418,-3.3418,-3.3418,-3.3418,-3.3418,-3.4017,-3.5324,-3.5324,-3.6173,0.0,-0.3956,-0.8038,-0.7976,-0.8032,-0.7983,-0.7903,-0.6575,-0.5401,-0.5378,-0.5428,-0.5428,-0.5428,-0.5406,-0.5752,-0.6817,-0.6853,-0.7368,-0.9214,-0.9111,-0.9069,-0.9758,-1.0114,-1.0351,-1.048,-1.218,-1.3325,-1.3325,0.0,0.0,-1.7988,-1.9807,-2.0849,-2.0849,-2.0982,-2.1109,-2.1374,-2.1537,-2.183,-2.2378,-2.2405,-2.2572,-2.2859,-2.2859,-2.2859,-2.2859,-2.2859,0.0,0.0,-2.2859,-2.2859,-2.2859,-2.2859,-2.2859,-2.2859,-2.2859,-2.2859,-2.2859,-2.2859,-2.2859,-2.2859,-2.2859,-2.2859,-2.2859,-2.2859,-2.2859,-2.2859,-2.2859,-2.2859,-2.3263,-2.4851,-2.5248,-2.6172,-2.9457,-3.0375,-3.1038,-3.2629,-3.2892,-3.2892,-3.2892,-3.3029,-3.3155,-3.3155,-3.3292,-3.3418,-3.3418,-3.3418,-3.3418,-3.3418,-3.3418,-3.3418,-3.3418,-3.3418,-3.3418,-3.3418,-3.3418,-3.3418,-3.3418,-3.3418,-3.3418,-3.3418,-3.3418,-3.3418,-3.3418,-3.3418,-3.3418,-3.3418,-3.3418,-3.3418,-3.366,-3.366,-3.4497,-0.4744,-0.6376,-0.8,-0.8007,-0.7705,-0.7548,-0.7939,-0.6644,-0.5405,-0.5425,-0.5424,-0.5424,-0.5424,-0.5424,-0.5723,-0.668,-0.6659,-0.6998,-0.8391,-0.8718,-0.8855,-0.9245,-0.9876,-1.0679,-1.1869,-1.366,-1.5784,0.0,0.0,0.0,-2.0068,-2.0716,-2.1109,-2.1109,-2.1283,-2.1436,-2.155,-2.1897,-2.2191,-2.2418,-2.2599,-2.2746,-2.2859,-2.2859,-2.2859,-2.2859,-2.2859,0.0,0.0,-2.2859,-2.2859,-2.2859,-2.2859,-2.2859,-2.2859,-2.2859,-2.2859,-2.2859,-2.2859,-2.3522,-2.4452,-2.4452,-2.5256,-2.5651,-2.3529,-2.3659,-2.4452,-2.4452,-2.5256,-2.6314,-2.698,-2.7892,-2.9065,-3.0504,-3.157,-3.2492,-3.3292,-3.3418,-3.3418,-3.3418,-3.3418,-3.3418,-3.3418,-3.3418,-3.3418,-3.3418,-3.3418,-3.3418,-3.3418,-3.3418,-3.3418,-3.3418,-3.3418,-3.3418,-3.3418,-3.3418,-3.3418,-3.3418,-3.3418,-3.3418,-3.3418,-3.3418,-3.3418,-3.3418,-3.3418,-3.3418,-3.3418,-3.3418,-3.4383,-3.6306,-3.6306,-3.7615,-0.7633,-0.7768,-0.7743,-0.7746,-0.7571,-0.7379,-0.7239,-0.6318,-0.5412,-0.539,-0.5262,-0.5195,-0.5392,-0.5844,-0.6281,-0.6763,-0.669,-0.6924,-0.7805,-0.812,-0.8353,-0.8638,-0.9388,-1.066,-1.2513,-1.5164,0.0,0.0,0.0,0.0,0.0,-2.1109,-2.1109,-2.1109,-2.1396,-2.159,-2.1677,-2.2171,-2.2465,-2.2552,-2.2766,-2.2859,-2.2859,-2.2859,-2.2859,-2.2859,0.0,0.0,0.0,-2.2859,-2.2859,-2.2859,-2.2859,-2.2859,-2.2859,-2.2859,-2.2859,-2.2996,-2.3529,-2.4452,-2.5644,-2.618,-2.7105,-2.7776,-2.5256,-2.5383,-2.618,-2.5644,-2.723,-2.8952,-2.8952,-3.0254,-3.157,-3.157,-3.2492,-3.3418,-3.3418,-3.3418,-3.3418,-3.3418,-3.3418,-3.3418,-3.3418,-3.3418,-3.3418,-3.3418,-3.3418,-3.3418,-3.3418,-3.3418,-3.3418,-3.3418,-3.3418,-3.3418,-3.3418,-3.3418,-3.3418,-3.3418,-3.3418,-3.3418,-3.3418,-3.3418,-3.3418,-3.3418,-3.3418,-3.366,-3.4143,-3.4143,-3.5581,-3.8223,-3.8223,-3.9651,-0.7076,-0.7095,-0.7156,-0.7089,-0.7578,-0.7578,-0.5852,-0.5449,-0.5412,-0.539,-0.4934,-0.4674,-0.5262,-0.6813,-0.779,-0.7172,-0.6961,-0.7137,-0.7721,-0.7374,-0.7377,-0.7977,-0.8584,-0.9792,-1.2013,-1.6016,0.0,0.0,0.0,0.0,0.0,-2.1109,-2.1109,-2.1109,-2.1396,-2.169,-2.1977,-2.2271,-2.2565,-2.2859,-2.2859,-2.2859,-2.2859,-2.2859,-2.2859,0.0,0.0,0.0,0.0,-2.2859,-2.2859,-2.2859,-2.2859,-2.2859,-2.2859,-2.2859,-2.2859,-2.3133,-2.4851,-2.5517,-2.5778,-2.7635,-2.8172,-2.8172,-2.8172,-2.8172,-2.7776,-2.6046,-2.8015,-3.0771,-3.0771,-3.21,-3.3418,-3.3418,-3.3428,-3.3418,-3.3418,-3.3418,-3.3418,-3.3418,-3.3418,-3.3418,-3.3418,-3.3418,-3.3418,-3.3418,-3.3418,-3.3418,-3.3418,-3.3418,-3.3418,-3.3418,-3.3418,-3.3418,-3.3418,-3.3418,-3.3418,-3.3418,-3.3418,-3.3418,-3.3418,-3.3418,-3.3418,-3.3418,-3.3418,-3.4133,-3.5806,-3.5806,-3.6649,-3.8223,-3.8223,-3.9053,-0.7387,-0.7409,-0.7172,-0.7612,-0.7825,-0.7533,-0.5826,-0.5412,-0.5373,-0.5411,-0.4893,-0.4543,-0.4738,-0.5559,-0.6661,-0.8019,-0.6914,-0.6402,-0.7997,-0.7854,-0.7709,-0.8004,-1.1218,-1.4232,-1.6344,0.0,0.0,0.0,0.0,0.0,0.0,-2.1303,-2.141,-2.141,-2.1697,-2.1991,-2.2278,-2.2572,-2.2772,-2.2859,-2.2859,-2.2859,-2.2859,-2.2859,0.0,0.0,0.0,0.0,0.0,-2.2859,-2.2859,-2.2859,-2.2859,-2.2859,-2.2996,-2.4188,-2.4723,-2.4986,-2.6714,-2.8155,-2.9196,-2.9726,-3.0789,-3.1579,-3.0384,-2.9995,-3.0125,-3.078,-3.1698,-3.2629,-3.2629,-3.3019,-3.3418,-3.3418,-3.3418,-3.3418,-3.3418,-3.3418,-3.3418,-3.3418,-3.3418,-3.3418,-3.3418,-3.3418,-3.3418,-3.3418,-3.3418,-3.3418,-3.3418,-3.3418,-3.3418,-3.3418,-3.3418,-3.3418,-3.3418,-3.3418,-3.3418,-3.3418,-3.3418,-3.3418,-3.3418,-3.3418,-3.3892,-3.4964,-3.5088,-3.5806,-3.7495,-3.7495,-3.8212,-3.9884,-4.0949,-4.1785,-0.6664,-0.6769,-0.6583,-0.6889,-0.7032,-0.675,-0.5661,-0.5236,-0.5047,-0.5042,-0.4742,-0.4707,-0.5505,-0.6575,-0.7633,-0.8393,-0.738,-0.6835,-0.7979,-0.7765,-0.7952,-0.9222,-1.2871,-1.6038,0.0,0.0,0.0,0.0,0.0,0.0,0.0,-2.1456,-2.1657,-2.1877,-2.2051,-2.2231,-2.2418,-2.2712,-2.2859,-2.2859,-2.2859,-2.2859,-2.2859,-2.2859,0.0,0.0,0.0,0.0,0.0,-2.2859,-2.2859,-2.2996,-2.3659,-2.3924,-2.406,-2.5912,-2.6581,-2.6706,-2.8558,-2.9856,-3.0909,-3.157,-3.2492,-3.3155,-3.21,-3.1304,-3.1166,-3.2892,-3.3418,-3.3418,-3.3418,-3.3418,-3.3418,-3.3418,-3.3418,-3.3418,-3.3418,-3.3418,-3.3418,-3.3418,-3.3418,-3.3418,-3.3418,-3.3418,-3.3418,-3.3418,-3.3418,-3.3418,-3.3418,-3.3418,-3.3418,-3.3418,-3.3418,-3.3418,-3.3418,-3.3418,-3.3418,-3.3418,-3.4017,-3.4258,-3.4258,-3.486,-3.5704,-3.6649,-3.6649,-3.7495,-3.9053,-3.9768,-4.0476,-4.1545,-4.25,-4.2974,0.0,-0.5349,-0.5433,-0.5363,-0.5344,-0.5339,-0.5346,-0.4874,0.0,-0.4526,-0.4477,-0.5158,-0.7195,-0.9235,-1.01,-0.842,-0.822,-0.8117,-0.7947,-0.7513,-0.8335,-1.1315,-1.3591,-1.5669,-1.7667,0.0,0.0,0.0,0.0,0.0,0.0,-2.157,-2.1844,-2.2398,-2.2438,-2.2452,-2.2452,-2.2726,-2.2859,-2.2859,-2.2859,-2.2859,-2.2859,-2.2859,0.0,0.0,0.0,0.0,0.0,-2.2859,-2.2859,-2.3133,-2.4851,-2.551,-2.5778,-2.7635,-2.8435,-2.8689,-3.0384,-3.1029,-3.1295,-3.2892,-3.3418,-3.3418,-3.3418,-3.2228,-3.1304,-3.2892,-3.3418,-3.3418,-3.3418,-3.3418,-3.3418,-3.3418,-3.3418,-3.3418,-3.3418,-3.3418,-3.3418,-3.3418,-3.3418,-3.3418,-3.3418,-3.3418,-3.3418,-3.3418,-3.3418,-3.3418,-3.3418,-3.3544,-3.3544,-3.3418,-3.3544,-3.3534,-3.3534,-3.3534,-3.3534,-3.3534,-3.5088,-3.5928,-3.5928,-3.7374,-3.8223,-3.8342,-3.8461,-3.9288,-4.0719,-4.2263,-4.2974,-4.2974,-4.2974,-4.2974,-0.4657,0.0,-0.5391,-0.5387,-0.5047,-0.47,0.0,-0.4577,-0.452,-0.4488,-0.4515,-0.532,-0.7979,-0.9633,-1.0445,-1.0066,-0.9085,-0.8473,-0.8718,-0.8563,-0.9663,-1.3438,-1.4738,-1.5978,0.0,0.0,0.0,0.0,0.0,0.0,0.0,-2.1764,-2.2044,-2.2405,-2.2639,-2.2759,-2.2759,-2.2826,-2.2859,-2.2859,-2.2859,-2.2859,-2.2859,-2.2859,0.0,0.0,0.0,0.0,-2.2859,-2.2859,-2.2859,-2.3133,-2.4851,-2.551,-2.5905,-2.9065,-3.0254,-3.0384,-3.2228,-3.2756,-3.2892,-3.3292,-3.3418,-3.3418,-3.3418,-3.3155,-3.2892,-3.3292,-3.3418,-3.3418,-3.3418,-3.3418,-3.3418,-3.3418,-3.3418,-3.3418,-3.3418,-3.3418,-3.3418,-3.3418,-3.3418,-3.3418,-3.3418,-3.3418,-3.3418,-3.3418,-3.3418,-3.3418,-3.3418,-3.4497,-3.4726,-3.3544,-3.4497,-3.5211,-3.5211,-3.5211,-3.5211,-3.5211,-3.6781,-3.7615,-3.7615,-3.7974,-3.8817,-4.0001,-4.1191,-4.2024,-4.2388,-4.2849,-4.2974,-4.2974,-4.2974,-4.2974,-0.4505,-0.4759,-0.4965,-0.5016,-0.4753,-0.4489,-0.4529,-0.451,-0.45,-0.4528,-0.4493,-0.553,-0.8975,-1.016,-1.0432,-1.0009,-0.9509,-0.8997,-0.8665,-0.859,-1.0144,-1.4259,-1.5023,-1.6287,0.0,0.0,0.0,0.0,0.0,0.0,0.0,-2.2024,-2.2318,-2.2612,-2.2779,-2.2859,-2.2859,-2.2859,-2.2859,-2.2859,-2.2859,-2.2859,-2.2859,-2.2859,-2.2859,0.0,0.0,0.0,-2.2859,-2.2859,-2.3393,-2.4324,-2.6046,-2.723,-2.8279,-3.1038,-3.1963,-3.21,-3.3029,-3.3418,-3.3418,-3.3418,-3.3418,-3.3418,-3.3418,-3.3418,-3.3418,-3.3418,-3.3418,-3.3418,-3.3418,-3.3418,-3.3418,-3.3418,-3.3418,-3.3418,-3.3418,-3.3418,-3.3418,-3.3418,-3.3418,-3.3418,-3.3418,-3.3418,-3.3418,-3.3418,-3.3418,-3.366,-3.4373,-3.5201,-3.5806,-3.5581,-3.6417,-3.6892,-3.6892,-3.7604,-3.7723,-3.7013,-3.845,-3.9288,-3.9288,-4.0001,-4.0834,-4.1659,-4.2613,-4.2974,-4.2974,-4.2974,-4.2974,-4.2974,-4.2974,-4.2974,-0.4362,-0.4418,-0.4527,-0.4523,-0.4493,-0.451,-0.451,-0.4588,-0.4631,-0.4657,-0.5037,-0.641,-0.958,-0.9959,-0.9651,-0.9055,-0.9472,-0.9574,-0.8977,-0.8985,-1.0647,-1.462,-1.5371,0.0,0.0,0.0,0.0,0.0,0.0,0.0,0.0,-2.2258,-2.2552,-2.2853,-2.2859,-2.2859,-2.2859,-2.2859,-2.2859,-2.2859,-2.2859,-2.2859,-2.2859,-2.2859,-2.2859,0.0,0.0,0.0,-2.2859,-2.3126,-2.4196,-2.5644,-2.7768,-2.9474,-3.1038,-3.2756,-3.3418,-3.3418,-3.3418,-3.3418,-3.3418,-3.3418,-3.3418,-3.3418,-3.3418,-3.3418,-3.3418,-3.3418,-3.3418,-3.3418,-3.3418,-3.3418,-3.3418,-3.3418,-3.3418,-3.3418,-3.3418,-3.3418,-3.3418,-3.3418,-3.3418,-3.3418,-3.3418,-3.3418,-3.3418,-3.3418,-3.366,-3.4258,-3.556,-3.6284,-3.7002,-3.8104,-3.8461,-3.858,-3.858,-3.9768,-4.0117,-3.9053,-4.0233,-4.0949,-4.0949,-4.2263,-4.2974,-4.2974,-4.2974,-4.2974,-4.2974,-4.2974,-4.2974,-4.2974,-4.2974,-4.2974,-0.3746,-0.4131,-0.4494,-0.4482,-0.4478,-0.451,-0.451,-0.4914,-0.5264,-0.5282,-0.7624,-0.943,-0.8526,-0.7203,-0.6718,-0.8185,-0.8772,-0.9923,-1.2465,-1.2194,-1.2998,-1.6241,0.0,0.0,0.0,0.0,0.0,0.0,0.0,0.0,0.0,0.0,-2.2552,-2.2853,-2.2859,-2.2859,-2.2859,-2.2859,-2.2859,-2.2859,-2.2859,-2.2859,-2.2859,-2.2859,-2.2859,0.0,0.0,-2.2859,-2.2996,-2.4452,-2.5248,-2.5778,-2.9065,-3.0513,-3.1038,-3.2756,-3.3418,-3.3418,-3.3418,-3.3418,-3.3418,-3.3418,-3.3418,-3.3418,-3.3418,-3.3418,-3.3418,-3.3418,-3.3418,-3.3418,-3.3418,-3.3418,-3.3418,-3.3418,-3.3418,-3.3418,-3.3418,-3.3418,-3.3418,-3.3418,-3.3418,-3.3418,-3.3418,-3.3418,-3.3418,-3.3418,-3.4612,-3.5571,-3.5806,-3.8201,-3.9405,-3.8342,-3.9405,-4.0233,-4.0233,-4.0476,-4.1076,-4.2137,-4.25,-4.2613,-4.2613,-4.2862,-4.2974,-4.2974,-4.2974,-4.2974,-4.2974,-4.2974,-4.2974,-4.2974,-4.2974,-4.2974,-0.358,-0.4047,-0.4777,-0.6069,-0.5445,-0.4571,-0.492,-0.5201,-0.5416,-0.5378,-0.6656,-0.7906,-0.8392,-0.7697,-0.7445,-0.8633,-0.853,-0.9107,-1.1,-1.1681,-1.2873,0.0,0.0,0.0,0.0,0.0,0.0,0.0,0.0,0.0,0.0,0.0,-2.2719,-2.2859,-2.2859,-2.2859,-2.2859,-2.2859,-2.2859,-2.2859,-2.2859,-2.2859,-2.2859,-2.2859,-2.2859,-2.2859,0.0,-2.2859,-2.2996,-2.4716,-2.6046,-2.7238,-2.9856,-3.1433,-3.2355,-3.3155,-3.3418,-3.3418,-3.3418,-3.3418,-3.3418,-3.3418,-3.3418,-3.3418,-3.3418,-3.3418,-3.3418,-3.3418,-3.3418,-3.3418,-3.3418,-3.3418,-3.3418,-3.3418,-3.3418,-3.3418,-3.3418,-3.3418,-3.3418,-3.3418,-3.3418,-3.3418,-3.3418,-3.3418,-3.366,-3.4612,-3.5335,-3.6406,-3.8201,-3.9639,-4.0592,-4.0834,-4.1431,-4.1899,-4.1899,-4.1899,-4.2263,-4.2974,-4.2974,-4.2974,-4.2974,-4.2974,-4.2974,-4.2974,-4.2974,-4.2974,-4.2974,-4.2974,-4.2974,-4.2974,-4.2974,-4.2974,-0.3599,-0.4013,-0.4912,-0.6716,-0.6261,-0.5423,-0.5902,-0.601,-0.6002,-0.601,-0.6086,-0.6619,-0.7969,-0.8201,-0.8436,-0.8822,-0.8543,-0.8615,-0.9824,-1.1448,-1.3208,0.0,0.0,0.0,0.0,0.0,0.0,0.0,0.0,0.0,0.0,0.0,-2.2859,-2.2859,-2.2859,-2.2859,-2.2859,-2.2859,-2.2859,-2.2859,-2.2859,-2.2859,-2.2859,-2.2859,-2.2859,-2.2859,-2.3393,-2.3529,-2.3659,-2.5905,-2.7627,-2.8952,-3.078,-3.2228,-3.3418,-3.3418,-3.3418,-3.3418,-3.3418,-3.3418,-3.3418,-3.3418,-3.3418,-3.3418,-3.3418,-3.3418,-3.3418,-3.3418,-3.3418,-3.3418,-3.3418,-3.3418,-3.3418,-3.3418,-3.3418,-3.3418,-3.3418,-3.3418,-3.3418,-3.3418,-3.3418,-3.3418,-3.3418,-3.366,-3.4373,-3.556,-3.6396,-3.7843,-4.0233,-4.0949,-4.1659,-4.2862,-4.2974,-4.2974,-4.2974,-4.2974,-4.2974,-4.2974,-4.2974,-4.2974,-4.2974,-4.2974,-4.2974,-4.2974,-4.2974,-4.2974,-4.2974,-4.2974,-4.2974,-4.2974,-4.2974,-4.2974,-0.3621,-0.4041,-0.4572,-0.468,-0.6244,-0.7736,-0.7777,-0.779,-0.7842,-0.7829,-0.8238,-0.8098,-0.6351,-0.6966,-0.7719,-0.7855,-0.8445,-0.9578,-1.1805,0.0,0.0,0.0,0.0,0.0,0.0,0.0,0.0,0.0,0.0,0.0,0.0,0.0,0.0,-2.2859,-2.2859,-2.2859,-2.2859,-2.2859,-2.2859,-2.2859,-2.2859,-2.2859,-2.2859,-2.2859,-2.2859,-2.2996,-2.4588,-2.5248,-2.5644,-2.9065,-3.0513,-3.0771,-3.2492,-3.3292,-3.3418,-3.3418,-3.3418,-3.3418,-3.3418,-3.3418,-3.3418,-3.3418,-3.3418,-3.3418,-3.3418,-3.3418,-3.3418,-3.3418,-3.3418,-3.3418,-3.3418,-3.3418,-3.3418,-3.3418,-3.3418,-3.3418,-3.3418,-3.3418,-3.3418,-3.3418,-3.3418,-3.3418,-3.3418,-3.4612,-3.5683,-3.5806,-3.832,-4.0349,-4.0592,-4.1899,-4.2862,-4.2974,-4.2974,-4.2974,-4.2974,-4.2974,-4.2974,-4.2974,-4.2974,-4.2974,-4.2974,-4.2974,-4.2974,-4.2974,-4.2974,-4.2974,-4.2974,-4.2974,-4.2974,-4.2974,-4.2974,-4.2974,-0.4043,-0.4323,-0.4558,-0.499,-0.5734,-0.6403,-0.636,-0.7198,-0.7959,-0.8009,-0.8204,-0.8065,-0.6946,-0.7677,-0.8452,-0.8503,-0.9062,-0.9888,0.0,0.0,0.0,0.0,0.0,0.0,0.0,0.0,0.0,0.0,0.0,0.0,0.0,0.0,0.0,-2.2859,-2.2859,-2.2859,-2.2859,-2.2859,-2.2859,-2.2859,-2.2859,-2.2859,-2.2859,-2.2859,-2.2859,-2.2996,-2.4716,-2.551,-2.5778,-2.9327,-3.0771,-3.1038,-3.2756,-3.3418,-3.3418,-3.3418,-3.3418,-3.3418,-3.3418,-3.3418,-3.3418,-3.3418,-3.3418,-3.3418,-3.3418,-3.3418,-3.3418,-3.3418,-3.3418,-3.3418,-3.3418,-3.3418,-3.3418,-3.3418,-3.3418,-3.3418,-3.3418,-3.3418,-3.3418,-3.3418,-3.3418,-3.3418,-3.3418,-3.4726,-3.6162,-3.7133,-3.9159,-4.0949,-4.2012,-4.2613,-4.2974,-4.2974,-4.2974,-4.2974,-4.2974,-4.266,-4.2472,-4.2472,-4.2785,-4.2974,-4.2974,-4.2974,-4.2974,-4.2974,-4.2974,-4.2974,-4.2974,-4.2974,-4.2974,-4.2974,-4.2974,-4.2974,-0.4346,-0.4613,-0.5045,-0.5962,-0.5787,-0.5419,-0.5387,-0.6721,-0.8057,-0.8219,-0.8296,-0.8214,-0.7861,-0.836,-0.8923,-0.8872,-0.9442,-0.9981,0.0,0.0,0.0,0.0,0.0,0.0,0.0,0.0,0.0,0.0,0.0,0.0,0.0,0.0,0.0,0.0,-2.2859,-2.2859,-2.2859,-2.2859,-2.2859,-2.2859,-2.2859,-2.2859,-2.2859,-2.2859,-2.2859,-2.2996,-2.5383,-2.6306,-2.6573,-3.0116,-3.157,-3.1698,-3.2892,-3.3418,-3.3418,-3.3418,-3.3418,-3.3418,-3.3418,-3.3418,-3.3418,-3.3418,-3.3418,-3.3418,-3.3418,-3.3418,-3.3418,-3.3418,-3.3418,-3.3418,-3.3418,-3.3418,-3.3418,-3.3418,-3.3418,-3.3418,-3.3418,-3.3418,-3.3418,-3.3418,-3.3776,-3.4133,-3.4133,-3.5928,-3.7723,-3.8805,-4.0361,-4.1785,-4.2862,-4.2974,-4.2974,-4.2974,-4.2974,-4.2898,-4.2735,-4.2371,-4.2082,-4.1907,-4.2258,-4.2534,-4.271,-4.2723,-4.2723,-4.2723,-4.2547,-4.2459,-4.2459,-4.2459,-4.2547,-4.2723,-4.2723,-4.2723,-0.4376,-0.4971,-0.5872,-0.755,-0.6729,-0.5431,-0.5428,-0.6776,-0.8131,-0.8769,-0.887,-0.8814,-0.8663,-0.8749,-0.8889,-0.8737,-0.9466,0.0,0.0,0.0,0.0,0.0,0.0,0.0,0.0,0.0,0.0,0.0,0.0,0.0,0.0,0.0,0.0,0.0,-2.2859,-2.2859,-2.2859,-2.2859,-2.2859,-2.2859,-2.2859,-2.2859,-2.2859,-2.2859,-2.2866,-2.3133,-2.6714,-2.8172,-2.8435,-3.1973,-3.3418,-3.3418,-3.3418,-3.3418,-3.3418,-3.3418,-3.3418,-3.3418,-3.3418,-3.3418,-3.3418,-3.3418,-3.3418,-3.3418,-3.3418,-3.3418,-3.3418,-3.3418,-3.3418,-3.3418,-3.3418,-3.3418,-3.3418,-3.3418,-3.3418,-3.3418,-3.3418,-3.3418,-3.3418,-3.3418,-3.4736,-3.5806,-3.5806,-3.8439,-4.0592,-4.0592,-4.2024,-4.2974,-4.2974,-4.2974,-4.2974,-4.2974,-4.2974,-4.2748,-4.2208,-4.2158,-4.1919,-4.1379,-4.1329,-4.158,-4.2133,-4.2145,-4.2145,-4.2145,-4.1605,-4.1342,-4.1342,-4.1342,-4.1618,-4.2145,-4.2145,-4.2145,-0.637,-0.7432,-0.7563,-0.6451,-0.6719,-0.7337,-0.7781,-0.793,-0.8007,-0.818,-0.8579,-0.8914,-0.8871,-0.8745,-0.8699,-0.8879,0.0,0.0,0.0,0.0,0.0,0.0,0.0,0.0,0.0,0.0,0.0,0.0,0.0,0.0,0.0,0.0,0.0,0.0,0.0,0.0,-2.2859,-2.2859,-2.2859,-2.2859,-2.2859,-2.2859,-2.2859,-2.2859,-2.3529,-2.4851,-2.7238,-2.8952,-3.0254,-3.2492,-3.3418,-3.3418,-3.3418,-3.3418,-3.3418,-3.3418,-3.3418,-3.3418,-3.3418,-3.3418,-3.3418,-3.3418,-3.3418,-3.3418,-3.3418,-3.3418,-3.3418,-3.3418,-3.3418,-3.3418,-3.3418,-3.3418,-3.3418,-3.3418,-3.3418,-3.3418,-3.3418,-3.3418,-3.3776,-3.485,-3.5448,-3.6162,-3.7254,-3.917,-4.0592,-4.0592,-4.2024,-4.2974,-4.2974,-4.2974,-4.2974,-4.2974,-4.2974,-4.2911,-4.2748,-4.202,-4.1517,-4.1354,-4.0978,-4.1015,-4.1555,-4.158,-4.158,-4.158,-4.1417,-4.1342,-4.1342,-4.1342,-4.1417,-4.158,-4.158,-4.158,-0.6149,-0.7028,-0.7373,-0.6615,-0.7204,-0.8133,-0.8456,-0.8475,-0.8364,-0.8376,-0.8694,-0.8859,-0.8952,-0.8903,0.0,0.0,0.0,0.0,0.0,0.0,0.0,0.0,0.0,0.0,0.0,0.0,0.0,0.0,0.0,0.0,0.0,0.0,0.0,0.0,0.0,0.0,-2.2859,-2.2859,-2.2859,-2.2859,-2.2859,-2.2859,-2.2859,-2.2859,-2.3788,-2.5644,-2.8155,-3.0254,-3.1963,-3.3019,-3.3418,-3.3418,-3.3418,-3.3418,-3.3418,-3.3418,-3.3418,-3.3418,-3.3418,-3.3418,-3.3418,-3.3418,-3.3418,-3.3418,-3.3418,-3.3418,-3.3418,-3.3418,-3.3418,-3.3418,-3.3418,-3.3418,-3.3418,-3.3418,-3.3418,-3.3418,-3.3418,-3.3892,-3.4612,-3.556,-3.6881,-3.7963,-3.8935,-4.0476,-4.1545,-4.1545,-4.2375,-4.2974,-4.2974,-4.2974,-4.2898,-4.2672,-4.2647,-4.2472,-4.2032,-4.1392,-4.0915,-4.0701,-4.0375,-4.0337,-4.0676,-4.0902,-4.1015,-4.1015,-4.0802,-4.0689,-4.0689,-4.0689,-4.0802,-4.1015,-4.1015,-4.1015,-0.4586,-0.5127,-0.6081,-0.7629,-0.8037,-0.8085,-0.8141,-0.8541,-0.8895,-0.8859,-0.885,-0.8863,-0.896,-0.9188,0.0,0.0,0.0,0.0,0.0,0.0,0.0,0.0,0.0,0.0,0.0,0.0,0.0,0.0,0.0,0.0,0.0,0.0,0.0,0.0,0.0,0.0,-2.2859,-2.2859,-2.2859,0.0,-2.2859,-2.2859,-2.2859,-2.2859,-2.3924,-2.5912,-2.9457,-3.1963,-3.3418,-3.3418,-3.3418,-3.3418,-3.3418,-3.3418,-3.3418,-3.3418,-3.3418,-3.3418,-3.3418,-3.3418,-3.3418,-3.3418,-3.3418,-3.3418,-3.3418,-3.3418,-3.3418,-3.3418,-3.3418,-3.3418,-3.3418,-3.3418,-3.3418,-3.3418,-3.3418,-3.3418,-3.3534,-3.4726,-3.5928,-3.6162,-3.8557,-4.0604,-4.0822,-4.2024,-4.2961,-4.2911,-4.2898,-4.2886,-4.2836,-4.2836,-4.2635,-4.2133,-4.2082,-4.1681,-4.0676,-4.0551,-4.03,-3.9798,-3.9722,-3.9697,-3.9697,-4.0174,-4.0438,-4.0438,-3.9948,-3.9697,-3.9697,-3.9697,-3.9948,-4.0438,-4.0438,-4.0438,-0.5153,-0.625,-0.8136,-0.7995,-0.8386,-0.8873,-0.9288,-0.912,-0.8846,-0.8944,-0.8891,-0.9013,-0.9246,0.0,0.0,0.0,0.0,0.0,0.0,0.0,0.0,0.0,0.0,0.0,0.0,0.0,0.0,0.0,0.0,0.0,0.0,0.0,0.0,0.0,0.0,-2.2859,-2.2859,-2.2859,-2.2859,0.0,-2.2859,-2.2859,-2.2859,-2.2859,-2.4595,-2.7768,-3.1313,-3.3029,-3.3418,-3.3418,-3.3418,-3.3418,-3.3418,-3.3418,-3.3418,-3.3418,-3.3418,-3.3418,-3.3418,-3.3418,-3.3418,-3.3418,-3.3418,-3.3418,-3.3418,-3.3418,-3.3418,-3.3418,-3.3418,-3.3418,-3.3418,-3.3418,-3.3418,-3.3418,-3.3418,-3.3776,-3.4964,-3.556,-3.6528,-3.9041,-4.0117,-4.0949,-4.2263,-4.2737,-4.2836,-4.2396,-4.2333,-4.217,-4.1743,-4.1693,-4.1643,-4.153,-4.1517,-4.1417,-4.1178,-4.0764,-4.0463,-4.035,-3.9936,-3.9697,-3.9697,-3.981,-3.9873,-3.9873,-3.9747,-3.9697,-3.9697,-3.9697,-3.9747,-3.9873,-3.9873,-3.9873,-0.6256,-0.7312,-0.8443,-0.8404,-0.8639,-0.9072,-0.9706,-0.9613,-0.9292,-0.9312,-0.9154,-0.9,0.0,0.0,0.0,0.0,0.0,0.0,0.0,0.0,0.0,0.0,0.0,0.0,0.0,0.0,0.0,0.0,0.0,0.0,0.0,0.0,0.0,0.0,-2.2859,-2.2859,-2.2859,-2.2859,-2.2859,-2.2859,-2.2859,-2.34,-2.4188,-2.4986,-2.6839,-2.9605,-3.2237,-3.3418,-3.3418,-3.3418,-3.3418,-3.3418,-3.3418,-3.3418,-3.3418,-3.3418,-3.3418,-3.3418,-3.3418,-3.3418,-3.3418,-3.3418,-3.3418,-3.3418,-3.3418,-3.3418,-3.3418,-3.3418,-3.3418,-3.3418,-3.3418,-3.3418,-3.3534,-3.4383,-3.4017,-3.3902,-3.5448,-3.6406,-3.7723,-4.0117,-4.1191,-4.2024,-4.2862,-4.2974,-4.2886,-4.2597,-4.2547,-4.2446,-4.2158,-4.1894,-4.163,-4.1367,-4.1103,-4.084,-4.0576,-4.0287,-4.0124,-4.0124,-3.9848,-3.9697,-3.9697,-3.9697,-3.9697,-3.9697,-3.9697,-3.9697,-3.9697,-3.9697,-3.9697,-3.9697,-3.9697,-3.9697,-0.6829,-0.765,-0.8123,-0.8772,-0.8913,-0.9076,-0.9685,-0.9763,-0.9754,-0.9752,-0.9456,0.0,0.0,0.0,0.0,0.0,0.0,0.0,0.0,0.0,0.0,0.0,0.0,0.0,0.0,0.0,0.0,0.0,0.0,0.0,0.0,0.0,-2.2505,-2.2853,-2.2859,-2.2859,-2.2859,-2.2859,-2.2859,-2.2859,-2.2859,-2.3924,-2.6046,-2.7503,-2.9213,-3.0909,-3.2629,-3.3418,-3.3418,-3.3418,-3.3418,-3.3418,-3.3418,-3.3418,-3.3418,-3.3418,-3.3418,-3.3418,-3.3418,-3.3418,-3.3418,-3.3418,-3.3418,-3.3418,-3.3418,-3.3418,-3.3418,-3.3418,-3.3418,-3.3418,-3.3776,-3.3776,-3.4258,-3.5806,-3.5211,-3.4622,-3.6284,-3.7723,-3.9053,-4.0719,-4.2063,-4.2798,-4.271,-4.2698,-4.266,-4.2572,-4.2559,-4.2522,-4.2421,-4.2007,-4.1555,-4.1103,-4.0651,-4.0187,-3.9735,-3.9697,-3.9697,-3.9697,-3.9697,-3.9697,-3.9697,-3.9697,-3.9697,-3.9697,-3.9697,-3.9697,-3.9697,-3.9697,-3.9697,-3.9697,-3.9697,-3.9697,-0.4733,-0.6438,-0.8171,-0.8727,-0.8944,-0.9094,-0.968,-0.9839,-0.9812,0.0,0.0,0.0,0.0,0.0,0.0,0.0,0.0,0.0,0.0,0.0,0.0,0.0,0.0,0.0,0.0,0.0,0.0,0.0,0.0,0.0,0.0,-2.2024,-2.2298,-2.2846,-2.2859,-2.2859,-2.2859,-2.2859,-2.2859,-2.2859,-2.2859,-2.4588,-2.7908,-2.804,-2.9213,-3.0909,-3.2629,-3.3418,-3.3418,-3.3418,-3.3418,-3.3418,-3.3418,-3.3418,-3.3418,-3.3418,-3.3418,-3.3418,-3.3418,-3.3418,-3.3418,-3.3418,-3.3418,-3.3418,-3.3418,-3.3418,-3.3418,-3.3418,-3.3418,-3.3776,-3.5088,-3.5448,-3.5928,-3.7495,-3.7746,-3.7974,-3.9639,-4.0117,-4.0719,-4.2375,-4.2474,-4.212,-4.1643,-4.1555,-4.1392,-4.0915,-4.084,-4.0676,-4.0199,-4.0061,-3.9998,-3.9923,-3.9848,-3.9772,-3.9697,-3.9697,-3.9697,-3.9697,-3.9697,-3.9697,-3.9697,-3.9697,-3.9697,-3.9697,-3.9697,-3.9697,-3.9697,-3.9697,-3.9697,-3.9697,-3.9697,-3.9697,-0.478,-0.6456,-0.8058,-0.8334,-0.86,-0.9093,-0.9683,-0.9842,-0.9748,-0.9788,0.0,0.0,0.0,0.0,0.0,0.0,0.0,0.0,0.0,0.0,0.0,0.0,0.0,0.0,0.0,0.0,0.0,0.0,0.0,0.0,-2.1724,-2.1897,-2.2178,-2.2599,-2.2772,-2.2859,-2.2859,-2.2859,-2.2859,-2.2859,-2.3924,-2.5651,-2.8172,-2.9213,-3.0651,-3.2355,-3.3029,-3.3418,-3.3418,-3.3418,-3.3418,-3.3418,-3.3418,-3.3418,-3.3418,-3.3418,-3.3418,-3.3418,-3.3418,-3.3418,-3.3418,-3.3418,-3.3418,-3.3418,-3.3418,-3.4017,-3.4736,-3.4736,-3.4736,-3.485,-3.556,-3.5806,-3.6162,-3.7865,-3.8935,-4.0001,-4.1545,-4.1191,-4.098,-4.2338,-4.207,-4.1618,-4.1379,-4.1342,-4.1254,-4.1015,-4.0978,-4.089,-4.0651,-4.0337,-4.0162,-4.0162,-3.9873,-3.9697,-3.9697,-3.9697,-3.9697,-3.9697,-3.9697,-3.9697,-3.9697,-3.9697,-3.9697,-3.9697,-3.9697,-3.9697,-3.9697,-3.9697,-3.9697,-3.9697,-3.9697,-3.9697,-0.4912,-0.6683,-0.8227,-0.8049,-0.8434,-0.9033,-0.9418,-0.9715,-0.9745,0.0,0.0,0.0,0.0,0.0,0.0,0.0,0.0,0.0,0.0,0.0,0.0,0.0,0.0,0.0,0.0,0.0,0.0,0.0,0.0,0.0,-2.1537,-2.1757,-2.2044,-2.2405,-2.2632,-2.2786,-2.2859,-2.2859,-2.2859,-2.2859,-2.4188,-2.6046,-2.8303,-2.9605,-3.1304,-3.3418,-3.3418,-3.3418,-3.3418,-3.3418,-3.3418,-3.3418,-3.3418,-3.3418,-3.3418,-3.3418,-3.3418,-3.3418,-3.3418,-3.3418,-3.3418,-3.3418,-3.3418,-3.3418,-3.3418,-3.4487,-3.5806,-3.5806,-3.604,-3.6528,-3.6881,-3.7002,-3.7484,-3.9053,-4.0254,-4.1339,-4.2525,-4.1815,-4.1144,-4.1638,-4.1404,-4.1078,-4.094,-4.0915,-4.0915,-4.0915,-4.0915,-4.0915,-4.0915,-4.0563,-4.0312,-4.0312,-3.9936,-3.9697,-3.9697,-3.9697,-3.9697,-3.9697,-3.9697,-3.9697,-3.9697,-3.9697,-3.9697,-3.9697,-3.9697,-3.9697,-3.9697,-3.9697,-3.9697,-3.9697,-3.9697,-3.9697,-0.4369,-0.6625,-0.8689,-0.8155,-0.8464,-0.8874,-0.8941,-0.9411,-0.9605,0.0,0.0,0.0,0.0,0.0,0.0,0.0,0.0,0.0,0.0,0.0,0.0,0.0,0.0,0.0,0.0,0.0,0.0,0.0,0.0,0.0,-2.1537,-2.157,-2.1837,-2.2398,-2.2432,-2.2579,-2.2859,-2.2859,-2.2859,-2.2859,-2.2996,-2.4858,-2.8172,-2.8303,-3.0133,-3.3418,-3.3418,-3.3418,-3.3418,-3.3418,-3.3418,-3.3418,-3.3418,-3.3418,-3.3418,-3.3418,-3.3418,-3.3418,-3.3418,-3.3418,-3.3418,-3.3418,-3.3418,-3.3418,-3.3418,-3.4487,-3.5806,-3.5806,-3.6892,-3.845,-3.9989,-4.0349,-4.0719,-4.2375,-4.2461,-4.2183,-4.2195,-4.2195,-4.1773,-4.0814,-4.0576,-4.0388,-3.9873,-3.9772,-3.9772,-3.9772,-3.9772,-3.9772,-3.9772,-3.9747,-3.9735,-3.9735,-3.971,-3.9697,-3.9697,-3.9697,-3.9697,-3.9697,-3.9697,-3.9697,-3.9697,-3.9697,-3.9697,-3.9697,-3.9697,-3.9697,-3.9697,-3.9697,-3.9697,-3.9697,-3.9697,-3.9697,-0.3848,-0.4947,-0.6084,-0.627,-0.735,-0.8464,-0.8799,-0.9117,-0.926,0.0,0.0,0.0,0.0,0.0,0.0,0.0,0.0,0.0,0.0,0.0,0.0,0.0,0.0,0.0,0.0,0.0,0.0,0.0,0.0,0.0,-2.1263,-2.145,-2.165,-2.1857,-2.2044,-2.2191,-2.2298,-2.2298,-2.2392,-2.2579,-2.3764,-2.5715,-2.8303,-2.9344,-3.1176,-3.3418,-3.3418,-3.3418,-3.3418,-3.3418,-3.3418,-3.3418,-3.3418,-3.3418,-3.3418,-3.3418,-3.3418,-3.3418,-3.3418,-3.3418,-3.3418,-3.3418,-3.3418,-3.3418,-3.3418,-3.5222,-3.7374,-3.7374,-3.8225,-3.9464,-4.0382,-4.0342,-4.053,-4.2538,-4.2559,-4.2057,-4.1706,-4.163,-4.1404,-4.0664,-4.0224,-3.9923,-3.9722,-3.9697,-3.9697,-3.9697,-3.9697,-3.9697,-3.9697,-3.9697,-3.9697,-3.9697,-3.9697,-3.9697,-3.9697,-3.9697,-3.9697,-3.9697,-3.9697,-3.9697,-3.9697,-3.9697,-3.9697,-3.9697,-3.9697,-3.9697,-3.9697,-3.9697,-3.9697,-3.9697,-3.9697,-3.9697,-0.3525,-0.403,-0.4571,-0.4971,-0.6153,-0.739,-0.8376,-0.8738,-0.9054,0.0,0.0,0.0,0.0,0.0,0.0,0.0,0.0,0.0,0.0,0.0,0.0,0.0,0.0,0.0,0.0,0.0,0.0,0.0,0.0,0.0,-2.1109,-2.1296,-2.145,-2.155,-2.1737,-2.1891,-2.1984,-2.1984,-2.2131,-2.2418,-2.3595,-2.5593,-2.8303,-2.9344,-3.1176,-3.3418,-3.3418,-3.3418,-3.3418,-3.3418,-3.3418,-3.3418,-3.3418,-3.3418,-3.3418,-3.3418,-3.3418,-3.3418,-3.3418,-3.3418,-3.3418,-3.3418,-3.3418,-3.3544,-3.4017,-3.6061,-3.8309,-3.8612,-3.9612,-4.0668,-4.0849,-4.0765,-4.0952,-4.2375,-4.2421,-4.1957,-4.1216,-4.1065,-4.0902,-4.035,-3.9936,-3.9697,-3.9697,-3.9697,-3.9697,-3.9697,-3.9697,-3.9697,-3.9697,-3.9697,-3.9697,-3.9697,-3.9697,-3.9697,-3.9697,-3.9697,-3.9697,-3.9697,-3.9697,-3.9697,-3.9697,-3.9697,-3.9697,-3.9697,-3.9697,-3.9697,-3.9697,-3.9697,-3.9697,-3.9697,-3.9697,-3.9697,0.0,0.0,0.0,-0.4495,-0.4956,-0.5808,-0.7507,-0.8423,-0.8916,0.0,0.0,0.0,0.0,0.0,0.0,0.0,0.0,0.0,0.0,0.0,0.0,0.0,0.0,0.0,0.0,0.0,0.0,0.0,0.0,-2.1082,-2.1082,-2.1089,-2.1229,-2.1516,-2.1543,-2.1683,-2.1971,-2.1984,-2.2131,-2.2412,-2.2412,-2.4545,-2.8303,-2.8303,-3.0133,-3.3418,-3.3418,-3.3418,-3.3418,-3.3418,-3.3418,-3.3418,-3.3418,-3.3418,-3.3418,-3.3418,-3.3418,-3.3418,-3.3418,-3.3418,-3.3418,-3.3418,-3.3418,-3.3776,-3.5335,-3.7002,-3.8455,-3.9494,-4.0954,-4.1982,-4.1455,-4.1718,-4.2133,-4.2133,-4.212,-4.1819,-4.0752,-4.0501,-4.0337,-3.9798,-3.9697,-3.9697,-3.9697,-3.9697,-3.9697,-3.9697,-3.9697,-3.9697,-3.9697,-3.9697,-3.9697,-3.9697,-3.9697,-3.9697,-3.9697,-3.9697,-3.9697,-3.9697,-3.9697,-3.9697,-3.9697,-3.9697,-3.9697,-3.9697,-3.9697,-3.9697,-3.9697,-3.9697,-3.9697,-3.9697,-3.9697,-3.9697,-0.3541,0.0,0.0,0.0,0.0,0.0,0.0,0.0,0.0,0.0,0.0,0.0,0.0,0.0,0.0,0.0,0.0,0.0,0.0,0.0,0.0,0.0,0.0,0.0,0.0,0.0,0.0,0.0,-2.0595,-2.0474,-2.0474,-2.0681,-2.0835,-2.0915,-2.1329,-2.159,-2.167,-2.1884,-2.2779,-2.4378,-2.4378,-2.637,-3.0125,-3.0125,-3.1304,-3.3418,-3.3418,-3.3418,-3.3418,-3.3418,-3.3418,-3.3418,-3.3418,-3.3418,-3.3418,-3.3418,-3.3418,-3.3418,-3.3418,-3.3418,-3.3418,-3.3418,-3.4133,-3.5211,-3.5683,-3.748,-3.9415,-3.9741,-4.0318,-4.094,-4.0777,-4.1153,-4.1568,-4.1568,-4.1254,-4.089,-4.0588,-4.0212,-3.9873,-3.9722,-3.9697,-3.9697,-3.9697,-3.9697,-3.9697,-3.9697,-3.9697,-3.9697,-3.9697,-3.9697,-3.9697,-3.9697,-3.9697,-3.9697,-3.9697,-3.9697,-3.9697,-3.9697,-3.9697,-3.9697,-3.9697,-3.9697,-3.9697,-3.9697,-3.9697,-3.9697,-3.9697,-3.9697,-3.9697,-3.9697,-3.9697,-3.9697,-0.3602,-0.3605,-0.3741,-0.435,0.0,0.0,-0.5348,-0.6459,0.0,0.0,0.0,0.0,0.0,0.0,0.0,0.0,0.0,0.0,0.0,0.0,0.0,0.0,0.0,0.0,0.0,0.0,0.0,0.0,-2.0327,-2.0234,-2.0234,-2.0281,-2.0368,-2.0488,-2.0822,-2.1122,-2.1363,-2.2413,-2.3681,-2.5163,-2.5812,-2.78,-3.0771,-3.0771,-3.1698,-3.3418,-3.3418,-3.3418,-3.3418,-3.3418,-3.3418,-3.3418,-3.3418,-3.3418,-3.3418,-3.3418,-3.3418,-3.3418,-3.3418,-3.3418,-3.3418,-3.3418,-3.4497,-3.5928,-3.6649,-3.8365,-4.0171,-4.0314,-4.0335,-4.0224,-4.0463,-4.0752,-4.1053,-4.1279,-4.0915,-4.0513,-4.0513,-4.0086,-3.9697,-3.9697,-3.9697,-3.9697,-3.9697,-3.9697,-3.9697,-3.9697,-3.9697,-3.9697,-3.9697,-3.9697,-3.9697,-3.9697,-3.9697,-3.9697,-3.9697,-3.9697,-3.9697,-3.9697,-3.9697,-3.9697,-3.9697,-3.9697,-3.9697,-3.9697,-3.9697,-3.9697,-3.9697,-3.9697,-3.9697,-3.9697,-3.9697,-3.9697,-0.3581,-0.3602,-0.371,-0.4288,-0.4442,0.0,-0.5208,-0.5542,-0.6383,0.0,0.0,0.0,0.0,0.0,0.0,0.0,0.0,0.0,0.0,0.0,0.0,0.0,0.0,0.0,0.0,0.0,-2.0147,-2.018,-2.0154,-2.0134,-2.0134,-1.992,-1.9933,-2.0221,-2.0294,-2.0601,-2.1156,-2.3232,-2.4706,-2.5419,-2.7101,-2.9103,-3.1038,-3.0992,-3.1916,-3.3418,-3.3418,-3.3418,-3.3418,-3.3418,-3.3418,-3.3418,-3.3418,-3.3418,-3.3418,-3.3418,-3.3418,-3.3418,-3.3418,-3.3389,-3.335,-3.3466,-3.4624,-3.6246,-3.7807,-3.9314,-4.0607,-4.0985,-4.045,-3.981,-4.03,-4.0425,-4.0551,-4.104,-4.0777,-4.0425,-4.0425,-4.0036,-3.9697,-3.9697,-3.9697,-3.9697,-3.9697,-3.9697,-3.9697,-3.9697,-3.9697,-3.9697,-3.9697,-3.9697,-3.9697,-3.9697,-3.9697,-3.9697,-3.9697,-3.9697,-3.9697,-3.9697,-3.9697,-3.9697,-3.9697,-3.9697,-3.9697,-3.9697,-3.9697,-3.9697,-3.9697,-3.9697,-3.9697,-3.9697,-3.9697,-3.9697,-0.362,-0.3578,-0.361,-0.3767,-0.412,0.0,-0.4647,-0.6535,-0.8364,0.0,0.0,0.0,0.0,0.0,0.0,0.0,0.0,0.0,0.0,0.0,0.0,0.0,0.0,0.0,0.0,0.0,-1.9633,-1.9867,-1.9666,-1.9539,-1.9539,-1.97,-1.9933,-2.0221,-2.0695,-2.1109,-2.1463,-2.3782,-2.5674,-2.723,-2.8904,-3.0792,-3.2873,-3.2546,-3.271,-3.3418,-3.3418,-3.3418,-3.3418,-3.3418,-3.3418,-3.3418,-3.3418,-3.3418,-3.3418,-3.3418,-3.3418,-3.3418,-3.3418,-3.3203,-3.3158,-3.434,-3.5487,-3.6783,-3.8283,-3.9611,-4.0413,-4.0095,-3.986,-3.9722,-3.9823,-3.986,-3.9885,-3.9986,-3.9936,-3.986,-3.986,-3.9772,-3.9697,-3.9697,-3.9697,-3.9697,-3.9697,-3.9697,-3.9697,-3.9697,-3.9697,-3.9697,-3.9697,-3.9697,-3.9697,-3.9697,-3.9697,-3.9697,-3.9697,-3.9697,-3.9697,-3.9697,-3.9697,-3.9697,-3.9697,-3.9697,-3.9697,-3.9697,-3.9697,-3.9697,-3.9697,-3.9697,-3.9697,-3.9697,-3.9697,-3.9697,-0.3697,-0.3605,-0.3614,-0.3588,-0.3815,0.0,0.0,-0.5657,-0.6694,-0.6725,0.0,0.0,0.0,0.0,0.0,0.0,0.0,0.0,0.0,0.0,0.0,0.0,0.0,0.0,0.0,0.0,-1.9205,-1.9352,-1.9232,-1.9145,-1.9145,-1.9426,-1.972,-2.0007,-2.0301,-2.0742,-2.1329,-2.4254,-2.632,-2.7756,-3.0329,-3.2228,-3.3418,-3.3203,-3.3223,-3.3418,-3.3418,-3.3418,-3.3418,-3.3418,-3.3418,-3.3418,-3.3418,-3.3418,-3.3418,-3.3418,-3.3418,-3.3389,-3.3184,-3.2969,-3.2991,-3.4293,-3.5563,-3.6973,-3.8442,-3.9672,-4.0463,-4.0174,-3.991,-3.9697,-3.9697,-3.9697,-3.9697,-3.9697,-3.9697,-3.9697,-3.9697,-3.9697,-3.9697,-3.9697,-3.9697,-3.9697,-3.9697,-3.9697,-3.9697,-3.9697,-3.9697,-3.9697,-3.9697,-3.9697,-3.9697,-3.9697,-3.9697,-3.9697,-3.9697,-3.9697,-3.9697,-3.9697,-3.9697,-3.9697,-3.9697,-3.9697,-3.9697,-3.9697,-3.9697,-3.9697,-3.9697,-3.9697,-3.9697,-3.9697,-3.9697,-3.9697,-0.3914,-0.3791,-0.3752,-0.3639,-0.358,-0.3767,0.0,0.0,0.0,0.0,0.0,0.0,0.0,0.0,0.0,0.0,0.0,0.0,0.0,0.0,0.0,0.0,0.0,0.0,0.0,0.0,-1.8691,-1.8751,-1.8698,-1.8744,-1.8911,-1.9152,-1.9439,-1.9786,-1.9853,-2.0254,-2.1022,-2.4556,-2.6653,-2.7541,-3.108,-3.2891,-3.3301,-3.3301,-3.335,-3.3418,-3.3418,-3.3418,-3.3418,-3.3418,-3.3418,-3.3418,-3.3418,-3.3418,-3.3418,-3.3418,-3.3418,-3.3359,-3.2939,-3.2744,-3.2957,-3.4237,-3.5857,-3.748,-3.8713,-3.9668,-4.0362,-4.0362,-4.0036,-3.9697,-3.9697,-3.9697,-3.9697,-3.9697,-3.9697,-3.9697,-3.9697,-3.9697,-3.9697,-3.9697,-3.9697,-3.9697,-3.9697,-3.9697,-3.9697,-3.9697,-3.9697,-3.9697,-3.9697,-3.9697,-3.9697,-3.9697,-3.9697,-3.9697,-3.9697,-3.9697,-3.9697,-3.9697,-3.9697,-3.9697,-3.9697,-3.9697,-3.9697,-3.9697,-3.9697,-3.9697,-3.9697,-3.9697,-3.9697,-3.9697,-3.9697,-3.9697,-0.4392,-0.4424,-0.4275,-0.3742,-0.3598,-0.3764,-0.4351,0.0,-0.3869,-0.4414,0.0,0.0,0.0,0.0,0.0,0.0,0.0,0.0,0.0,0.0,0.0,0.0,0.0,0.0,0.0,0.0,0.0,-1.8123,-1.7889,-1.8083,-1.8878,-1.8958,-1.9225,-1.978,-2.0047,-2.0361,-2.0722,-2.4564,-2.667,-2.6794,-3.0531,-3.2461,-3.2861,-3.2861,-3.3066,-3.3418,-3.3418,-3.3418,-3.3418,-3.3418,-3.3418,-3.3418,-3.3418,-3.3418,-3.3418,-3.3418,-3.3418,-3.3359,-3.2939,-3.2549,-3.2633,-3.501,-3.736,-3.9432,-3.9549,-3.9719,-3.9785,-3.9785,-3.9747,-3.9697,-3.9697,-3.9697,-3.9697,-3.9697,-3.9697,-3.9697,-3.9697,-3.9697,-3.9697,-3.9697,-3.9697,-3.9697,-3.9697,-3.9697,-3.9697,-3.9697,-3.9697,-3.9697,-3.9697,-3.9697,-3.9697,-3.9697,-3.9697,-3.9697,-3.9697,-3.9697,-3.9697,-3.9697,-3.9697,-3.9697,-3.9697,-3.9697,-3.9697,-3.9697,-3.9697,-3.9697,-3.9697,-3.9697,-3.9697,-3.9697,-3.9697,-3.9697,-0.4424,-0.4758,-0.4445,-0.4197,-0.4122,-0.4206,-0.4422,-0.4302,-0.4121,-0.4014,0.0,0.0,0.0,0.0,0.0,0.0,-0.4601,0.0,0.0,0.0,0.0,0.0,0.0,0.0,0.0,0.0,0.0,0.0,0.0,-1.8524,-1.8905,-1.8925,-1.9192,-1.978,-1.992,-2.0201,-2.0675,-2.4184,-2.6131,-2.6346,-3.0316,-3.2256,-3.2451,-3.2939,-3.3252,-3.3418,-3.3418,-3.3418,-3.3418,-3.3418,-3.3418,-3.3398,-3.3154,-3.3203,-3.3389,-3.3144,-3.3057,-3.2969,-3.2285,-3.1943,-3.2177,-3.4749,-3.7441,-3.9697,-3.9697,-3.9697,-3.9697,-3.9697,-3.9697,-3.9697,-3.9697,-3.9697,-3.9697,-3.9697,-3.9697,-3.9697,-3.9697,-3.9697,-3.9697,-3.9697,-3.9697,-3.9697,-3.9697,-3.9697,-3.9697,-3.9697,-3.9697,-3.9697,-3.9697,-3.9697,-3.9697,-3.9697,-3.9697,-3.9697,-3.9697,-3.9697,-3.9697,-3.9697,-3.9697,-3.9697,-3.9697,-3.9697,-3.9697,-3.9697,-3.9697,-3.9697,-3.9697,-3.9697,-3.9697,-3.9697,-3.9697,-3.9697,-0.3231,-0.4359,-0.4947,-0.5727,-0.5192,-0.4493,-0.4528,-0.4502,-0.4307,-0.3705,-0.3975,0.0,0.0,0.0,-0.4251,-0.4252,0.0,-0.402,0.0,0.0,0.0,0.0,0.0,0.0,0.0,0.0,0.0,0.0,0.0,0.0,-1.8684,-1.8838,-1.9118,-1.9546,-1.9713,-2.0047,-2.0548,-2.3851,-2.5691,-2.5836,-3.0065,-3.1992,-3.2021,-3.2871,-3.331,-3.3418,-3.3418,-3.3418,-3.3418,-3.3418,-3.335,-3.3223,-3.291,-3.291,-3.3037,-3.2734,-3.2627,-3.2519,-3.1777,-3.2008,-3.2857,-3.4747,-3.7275,-3.9697,-3.9697,-3.9697,-3.9697,-3.9697,-3.9697,-3.9697,-3.9697,-3.9697,-3.9697,-3.9697,-3.9697,-3.9697,-3.9697,-3.9697,-3.9697,-3.9697,-3.9697,-3.9697,-3.9697,-3.9697,-3.9697,-3.9697,-3.9697,-3.9697,-3.9697,-3.9697,-3.9697,-3.9697,-3.9697,-3.9697,-3.9697,-3.9697,-3.9697,-3.9697,-3.9697,-3.9697,-3.9697,-3.9697,-3.9697,-3.9697,-3.9697,-3.9697,-3.9697,-3.9697,-3.9697,-3.9697,-3.9697,-3.9697,0.0,0.0,0.0,-0.8903,0.0,0.0,-0.4478,-0.4502,-0.434,-0.3718,-0.3624,-0.3794,-0.4371,-0.4012,-0.3617,-0.3651,-0.411,0.0,0.0,0.0,0.0,0.0,0.0,0.0,0.0,0.0,0.0,0.0,0.0,0.0,-1.8076,-1.8611,-1.8931,-1.8951,-1.9506,-1.9947,-2.0241,-2.3855,-2.5567,-2.5337,-2.9517,-3.1543,-3.1572,-3.2422,-3.3037,-3.3418,-3.3418,-3.3418,-3.3418,-3.3418,-3.3184,-3.2812,-3.2803,-3.2559,-3.2207,-3.2187,-3.2187,-3.2129,-3.167,-3.3152,-3.5201,-3.53,-3.7275,-3.9697,-3.9697,-3.9697,-3.9697,-3.9697,-3.9697,-3.9697,-3.9697,-3.9697,-3.9697,-3.9697,-3.9697,-3.9697,-3.9697,-3.9697,-3.9697,-3.9697,-3.9697,-3.9697,-3.9697,-3.9697,-3.9697,-3.9697,-3.9697,-3.9697,-3.9697,-3.9697,-3.9697,-3.9697,-3.9697,-3.9697,-3.9697,-3.9697,-3.9697,-3.9697,-3.9697,-3.9697,-3.9697,-3.9697,-3.9697,-3.9697,-3.9697,-3.9697,-3.9697,-3.9697,-3.9697,-3.9697,-3.9697,-3.9697,0.0,0.0,-0.5673,-0.6651,0.0,0.0,0.0,0.0,-0.4495,-0.4495,-0.4306,-0.4207,-0.4147,-0.4199,-0.408,-0.367,-0.3764,-0.3916,0.0,0.0,0.0,0.0,0.0,0.0,0.0,0.0,0.0,0.0,0.0,0.0,0.0,-1.8711,-1.8925,-1.8925,-1.9492,-1.9846,-1.9947,-2.3611,-2.52,-2.4738,-2.8978,-3.0937,-3.0684,-3.1846,-3.2607,-3.3027,-3.3301,-3.3418,-3.3398,-3.3115,-3.292,-3.2734,-3.2168,-3.1865,-3.1738,-3.1738,-3.1738,-3.168,-3.125,-3.233,-3.3957,-3.4958,-3.6607,-3.8465,-3.9362,-3.9697,-3.9697,-3.9697,-3.9697,-3.9697,-3.9697,-3.9697,-3.9697,-3.9697,-3.9697,-3.9697,-3.9697,-3.9697,-3.9697,-3.9697,-3.9697,-3.9697,-3.9697,-3.9697,-3.9697,-3.9697,-3.9697,-3.9697,-3.9697,-3.9697,-3.9697,-3.9697,-3.9697,-3.9697,-3.9697,-3.9697,-3.9697,-3.9697,-3.9697,-3.9697,-3.9697,-3.9697,-3.9697,-3.9697,-3.9697,-3.9697,-3.9697,-3.9697,-3.9697,-3.9697,-3.9697,-3.9697,-0.47,-0.4652,0.0,-0.5889,-0.5847,0.0,-0.5418,0.0,-0.4892,-0.5021,-0.4949,-0.4694,-0.427,-0.4346,-0.4376,-0.3961,-0.3736,-0.3623,0.0,-0.3612,0.0,0.0,0.0,0.0,0.0,0.0,0.0,0.0,0.0,0.0,0.0,0.0,-1.8824,-1.8918,-1.9421,-1.9945,-2.0593,-2.3661,-2.5177,-2.5187,-2.8765,-3.043,-3.0478,-3.1328,-3.2187,-3.3027,-3.3135,-3.3203,-3.3358,-3.3083,-3.2779,-3.2305,-3.1748,-3.1435,-3.1299,-3.1299,-3.1299,-3.126,-3.0986,-3.1883,-3.3293,-3.4181,-3.5497,-3.7037,-3.8477,-3.8908,-3.9062,-3.9819,-3.9848,-3.9735,-3.9936,-3.9835,-3.9697,-3.9697,-3.9697,-3.9697,-3.9697,-3.9697,-3.9697,-3.9697,-3.9697,-3.9697,-3.9697,-3.9697,-3.9697,-3.9697,-3.9697,-3.9697,-3.9697,-3.9697,-3.9697,-3.9697,-3.9697,-3.9697,-3.9697,-3.9697,-3.9697,-3.9697,-3.9697,-3.9697,-3.9697,-3.9697,-3.9747,-3.9653,-3.9644,-3.9644,-3.9665,-3.9644,-3.9697,-3.9697,-3.9697,-3.9697]}]]